GEFSMW_500_meanwind_000.txt.gz
Wind_Speed
25 25 24 25 23 19 19 17 19 20 20 22 22 22 25 26 26 27 28 31 31 33 35 36 35 34 37 40 42 43 45 48 48 50 54 58 60 63 63 65 65 69 71
26 28 29 31 29 27 25 24 24 24 25 27 28 28 29 31 30 31 32 35 36 36 36 39 39 40 43 44 45 48 50 52 53 55 57 59 61 63 64 66 69 70 66
29 30 30 32 35 30 29 30 30 28 30 30 31 32 33 37 37 36 37 39 41 41 40 43 46 48 49 49 50 54 54 54 57 58 59 61 63 64 66 69 66 60 51
32 31 32 34 33 32 33 34 32 31 32 33 34 36 38 40 42 42 42 44 47 46 47 49 50 52 53 54 56 56 56 56 58 60 62 62 62 60 56 53 49 45 43
37 35 33 31 33 36 37 36 36 34 33 35 38 39 40 42 45 45 48 53 55 52 53 51 46 45 50 53 54 54 56 59 60 61 62 60 56 51 47 44 44 43 42
39 35 35 35 37 37 39 39 39 36 35 37 38 40 43 45 49 49 52 57 53 50 47 47 47 50 52 54 56 57 58 58 59 60 59 56 51 48 47 45 45 44 42
36 39 40 41 40 40 42 43 40 38 35 37 38 42 44 50 56 54 48 44 43 42 39 47 53 54 54 55 57 57 57 57 59 59 57 53 50 49 48 48 48 50 50
25 30 34 39 41 44 44 42 38 36 37 41 41 40 44 46 44 45 42 39 39 40 45 50 52 53 55 56 55 55 57 60 59 56 54 52 50 50 50 54 57 58 57
22 23 28 34 36 38 38 39 40 41 44 44 41 41 43 43 42 43 40 39 41 43 47 52 54 55 54 52 55 57 59 59 57 55 53 53 54 55 56 59 62 63 63
22 25 27 29 31 33 34 38 40 39 42 44 44 42 41 39 38 40 45 42 41 45 50 53 52 50 52 55 57 58 58 56 55 55 55 56 58 58 59 61 63 64 64
28 30 30 30 31 30 32 36 37 39 44 44 42 39 36 33 39 42 39 38 41 47 50 48 49 52 55 56 57 57 55 55 57 57 57 57 58 59 61 62 63 63 62
30 29 27 28 31 34 36 37 36 38 41 36 36 40 40 41 44 41 37 39 44 45 45 47 50 53 55 56 56 55 54 55 57 57 57 58 59 59 60 60 60 59 56
31 32 32 31 33 35 35 36 37 40 44 44 43 43 42 42 41 40 40 43 44 45 47 49 50 53 54 53 53 53 53 54 54 56 58 59 60 58 55 52 48 46 45
36 39 40 37 35 34 34 37 42 47 49 49 46 43 40 40 40 42 44 44 45 47 48 49 49 50 51 52 52 52 53 53 55 57 58 57 54 48 43 39 37 35 34
36 38 41 39 39 42 44 46 50 50 51 49 44 42 40 39 41 42 43 45 45 45 46 47 48 50 51 51 51 52 54 55 56 54 52 49 44 41 41 38 33 28 25
39 41 43 46 48 50 53 54 51 50 51 47 43 43 43 42 42 42 43 43 44 44 46 48 50 51 51 51 52 53 55 53 50 46 44 43 42 42 41 34 28 23 19
46 48 50 52 53 53 53 46 47 48 47 44 42 45 47 43 41 40 41 43 44 45 47 50 50 50 50 51 52 53 51 46 42 40 40 38 35 35 31 26 23 20 18
52 51 52 51 50 49 40 44 47 44 45 43 44 49 44 40 41 40 41 44 45 47 49 50 49 49 49 50 50 48 44 40 37 36 34 31 30 26 21 19 17 14 13
48 47 49 49 51 41 44 48 37 44 45 42 46 41 39 41 41 41 42 44 47 49 50 48 47 48 49 47 45 42 39 34 32 32 30 27 24 19 14 13 12 10 9
45 46 48 46 41 41 43 37 43 48 43 39 37 36 38 41 41 42 44 46 49 48 47 46 46 47 45 42 40 37 32 29 29 28 28 24 19 16 12 10 7 5 3
44 44 43 38 42 43 43 50 51 48 42 37 36 36 38 39 41 43 45 47 48 47 47 47 45 43 40 37 36 32 28 26 25 24 24 23 19 15 9 4 4 8 8
38 37 34 31 42 45 45 46 41 36 33 33 35 35 37 39 42 44 45 46 47 48 48 46 42 38 36 33 31 27 23 22 20 21 19 17 12 4 5 9 12 11 10
30 30 29 34 38 38 39 36 33 31 30 30 32 35 37 40 42 43 45 47 48 47 44 40 35 33 32 28 23 19 16 17 19 18 16 11 7 10 13 14 13 13 12
24 26 29 35 37 33 30 27 28 27 26 29 33 36 39 40 42 44 46 46 43 38 33 30 30 30 26 21 15 12 14 16 17 16 9 10 12 14 14 13 12 11 10
21 24 27 30 28 25 23 23 23 23 26 31 34 37 38 40 42 43 42 38 32 27 26 27 28 26 19 13 9 10 11 12 13 9 9 11 12 12 10 10 11 11 9
18 21 18 16 17 17 17 18 20 24 28 31 34 36 39 41 41 38 33 28 22 22 26 28 24 17 11 6 6 7 8 10 12 9 10 12 12 13 13 14 14 12 11

GEFSMW_500_meanwind_006.txt.gz
Wind_Speed
40 42 37 32 30 28 28 29 31 32 34 33 32 32 32 32 32 33 34 34 35 35 36 37 39 41 43 44 44 46 48 50 52 53 54 54 57 60 62 63 66 68 68
43 43 38 33 31 30 30 31 33 36 38 39 39 39 37 36 36 38 38 39 39 38 37 39 41 43 47 49 51 53 55 57 58 59 59 60 60 61 62 64 66 68 69
45 46 42 35 33 33 34 33 35 39 41 42 44 44 43 41 40 41 42 43 43 42 42 43 45 48 50 51 54 55 58 58 59 60 61 61 60 61 65 68 69 69 68
39 46 42 36 35 35 35 35 38 40 43 45 46 47 47 46 45 46 46 46 45 45 45 46 48 51 52 53 55 54 55 55 56 57 58 60 63 66 67 67 66 65 66
35 43 41 36 35 34 33 36 41 44 46 47 47 48 49 49 49 48 46 46 47 49 49 49 50 51 52 53 54 54 55 56 58 59 62 64 66 66 66 64 64 66 67
34 35 33 33 33 33 34 37 42 45 47 47 47 48 49 49 48 47 47 49 51 51 50 51 51 52 53 53 54 55 55 57 60 63 66 66 65 64 64 65 68 69 69
35 32 31 32 34 34 36 39 42 44 44 46 48 48 48 49 49 50 50 53 55 54 55 54 52 52 52 54 57 59 58 59 62 64 65 64 63 65 67 68 70 70 69
33 33 32 31 31 33 36 38 40 42 44 46 47 47 48 49 49 51 52 53 55 55 55 53 51 52 55 56 58 60 61 63 64 64 63 63 65 67 68 69 70 69 66
27 27 27 26 27 30 32 34 37 39 40 41 42 44 46 47 48 50 51 51 52 53 52 52 53 54 56 58 60 62 64 65 64 63 64 66 68 70 71 71 70 68 65
21 24 25 26 27 30 31 33 34 35 35 36 38 41 43 45 48 48 48 50 52 54 55 54 54 56 58 60 62 62 63 62 62 63 65 67 69 70 69 69 68 68 66
21 24 27 29 32 34 35 35 34 34 36 37 38 40 43 44 45 47 50 53 55 56 55 54 55 56 58 59 59 59 60 61 62 64 65 66 68 68 68 67 66 66 66
24 24 28 31 34 36 37 37 36 38 39 40 42 43 44 44 47 50 53 55 55 55 54 53 53 55 56 57 57 58 60 61 62 63 64 65 66 65 65 64 65 64 63
21 24 29 33 36 38 38 38 37 38 39 41 42 43 45 48 50 52 53 53 53 54 55 54 54 55 56 55 56 57 59 61 62 63 63 62 62 62 63 62 59 55 52
22 28 33 37 40 40 39 38 39 42 44 46 47 47 48 51 53 51 51 51 52 55 56 56 55 55 54 54 56 58 60 61 61 61 61 61 61 61 59 53 48 45 44
25 30 34 39 41 40 39 41 45 48 51 51 50 48 50 55 53 51 49 49 51 53 55 56 55 54 54 55 58 59 60 60 60 61 61 60 58 55 49 44 42 41 41
31 33 36 39 41 43 45 47 51 53 53 52 50 49 54 58 55 50 48 51 53 54 55 54 53 53 54 56 58 59 58 59 60 60 58 54 50 45 42 40 38 37 35
40 41 43 45 47 49 51 53 55 54 52 51 50 51 56 60 56 51 50 52 53 53 52 51 52 53 54 56 57 57 58 59 58 55 51 47 42 39 38 35 33 32 28
47 48 50 51 52 54 54 54 52 50 49 50 50 54 58 58 54 49 49 49 48 48 49 51 53 55 55 55 56 57 56 54 50 47 43 40 37 36 33 29 26 24 16
50 50 50 50 50 50 49 48 47 47 48 49 52 57 56 54 51 47 46 44 45 47 50 52 53 54 55 54 53 51 49 45 42 39 36 35 34 32 27 22 18 13 8
50 50 48 47 45 45 45 45 45 46 46 48 53 56 54 51 46 43 42 43 46 48 50 51 53 53 52 50 46 43 40 36 33 31 31 31 30 25 19 12 8 4 1
45 44 43 42 42 42 41 42 42 43 44 47 51 52 52 49 43 40 42 44 47 48 50 51 50 47 43 40 37 35 31 27 25 25 25 24 20 14 7 2 3 5 6
38 37 36 35 34 35 35 37 38 41 44 47 48 47 45 43 43 43 45 46 48 49 49 46 41 36 34 32 30 26 21 20 20 20 18 14 11 6 6 8 10 9 8
30 29 28 28 29 30 32 34 37 40 43 43 42 40 39 40 42 44 45 46 47 45 40 33 28 28 29 27 22 18 16 17 17 15 11 9 7 8 11 12 12 11 9
25 25 25 25 26 28 32 35 37 37 37 37 37 37 38 40 42 43 44 43 39 32 25 22 24 27 26 21 16 13 13 13 13 11 9 9 10 12 13 13 11 9 7
21 20 21 23 26 29 30 31 30 31 32 34 37 38 39 39 39 39 37 32 24 19 20 23 25 25 23 17 12 10 10 10 9 6 7 11 13 14 13 11 8 6 5
18 19 20 22 23 23 23 25 27 30 33 35 36 37 36 36 34 30 24 19 19 21 23 23 23 21 18 14 9 8 8 7 4 5 8 10 11 10 10 8 7 6 6

GEFSMW_500_meanwind_012.txt.gz
Wind_Speed
36 37 37 37 35 34 35 36 36 35 34 34 32 32 31 31 33 35 36 35 36 38 40 42 41 41 41 42 44 45 46 47 48 49 50 50 51 51 52 52 53 54 56
39 38 39 39 38 37 37 37 38 39 38 36 35 35 35 36 39 40 39 38 39 41 44 45 45 45 45 45 46 47 49 50 51 51 51 51 52 53 54 54 56 57 58
43 43 42 41 40 38 37 38 40 41 40 39 38 37 38 40 42 43 42 41 42 45 46 47 46 46 45 46 48 49 50 52 53 52 51 52 52 53 55 57 58 59 60
43 43 42 38 36 36 37 39 41 42 42 40 39 39 39 41 43 43 42 43 44 45 46 47 47 47 48 49 49 50 51 51 51 51 51 52 53 54 56 59 61 62 63
43 40 35 33 33 36 38 39 41 41 41 40 40 39 38 39 42 43 43 45 45 46 47 48 49 49 50 50 51 52 51 50 51 53 55 56 58 58 58 59 61 63 64
41 36 32 32 34 36 39 41 40 39 38 38 38 38 38 39 41 42 44 46 46 48 49 49 49 49 50 52 53 53 53 54 56 58 59 59 59 59 59 58 58 60 62
32 31 31 32 35 38 41 42 42 37 35 36 37 38 38 39 41 43 44 45 47 47 48 48 48 49 51 52 53 54 55 57 59 60 60 59 58 58 58 58 59 61 63
27 29 30 32 37 41 43 42 40 35 31 33 35 37 39 40 41 43 44 46 47 48 49 49 51 53 53 53 54 56 58 59 60 59 58 58 58 59 61 63 65 65 66
26 29 33 36 40 42 42 39 35 30 30 33 36 39 41 43 45 46 47 48 49 51 51 52 54 54 55 56 57 59 60 60 59 58 57 58 60 62 64 66 68 70 69
31 32 34 36 36 37 36 35 31 30 32 35 39 42 45 47 47 48 49 49 50 50 50 52 54 56 57 57 59 60 61 60 58 58 58 60 62 64 67 69 71 72 73
34 35 36 37 37 37 36 32 30 31 34 38 42 45 48 50 50 50 50 50 51 53 55 56 58 59 59 60 62 63 62 60 59 59 61 63 64 66 68 69 71 72 73
35 37 38 39 37 36 34 30 30 33 37 41 45 48 50 51 50 49 51 53 55 56 57 58 58 59 60 62 63 62 60 59 59 60 62 64 66 67 68 69 70 72 73
39 39 37 37 37 36 33 32 33 36 40 44 47 49 49 48 50 52 54 57 58 58 58 57 57 58 59 59 58 58 58 58 59 60 62 63 65 66 68 69 70 71 69
39 36 37 38 36 35 34 34 36 39 43 46 48 49 51 53 55 57 59 59 58 57 57 56 56 57 57 58 59 58 57 57 57 59 61 62 64 66 67 67 66 63 58
33 34 37 39 39 37 36 37 39 42 45 48 50 53 55 57 59 60 59 58 57 56 57 57 58 59 58 58 56 54 54 55 56 58 60 61 63 65 64 60 54 49 45
32 36 41 42 43 42 43 43 44 46 49 51 53 55 57 58 58 57 57 57 57 58 58 58 59 58 56 53 52 52 53 54 55 57 59 59 59 57 52 46 41 38 36
38 41 44 45 46 47 47 47 48 49 50 52 52 53 53 53 52 54 56 57 58 58 57 56 56 53 51 49 49 50 52 54 55 55 54 52 48 43 38 34 32 30 27
46 47 48 48 48 48 48 48 48 48 49 48 47 47 48 49 52 53 55 55 54 54 53 53 51 49 48 48 49 50 51 51 50 48 45 41 36 32 29 26 23 20 17
49 49 48 47 46 46 47 46 46 45 43 42 43 45 48 49 51 52 52 52 51 50 50 48 47 46 47 47 48 47 45 44 42 40 35 31 27 24 22 18 14 12 11
48 47 46 45 45 45 45 44 43 40 40 41 43 45 47 48 48 49 49 49 47 46 45 45 45 45 45 44 41 38 37 37 36 32 28 25 22 20 16 13 11 10 10
47 46 44 43 43 43 43 41 39 38 38 39 40 42 44 45 46 46 45 44 43 43 43 43 43 41 39 35 32 31 32 31 27 24 21 20 17 14 11 10 10 10 10
42 41 41 41 41 41 39 38 36 36 37 38 40 42 43 42 41 41 41 42 42 42 41 40 37 34 29 27 27 29 29 24 20 17 15 13 11 10 9 9 10 11 12
38 38 39 39 39 37 35 34 34 35 36 38 38 39 39 39 40 41 41 41 40 38 36 32 29 27 26 26 27 27 23 17 14 11 9 8 7 7 8 10 12 13 14
36 36 36 35 34 32 32 32 33 34 34 35 36 37 38 39 40 40 39 36 34 31 27 25 25 26 26 26 26 23 17 11 8 5 4 5 6 7 9 11 13 14 14
33 32 30 29 28 28 29 30 31 32 33 35 36 37 38 37 36 34 32 29 26 24 24 25 25 25 24 22 21 16 11 6 3 2 3 4 6 9 11 12 13 14 14
24 23 23 23 24 25 26 28 30 32 34 36 36 36 34 32 29 27 25 24 24 24 24 24 23 21 19 17 14 10 5 2 1 2 3 5 7 10 12 12 13 13 15

GEFSMW_500_meanwind_018.txt.gz
Wind_Speed
30 27 25 23 22 23 26 28 30 32 32 31 31 32 32 30 30 31 31 32 34 34 35 35 35 34 31 28 28 29 32 34 37 39 41 43 43 44 45 46 47 47 48
34 31 29 26 25 25 27 29 31 33 33 33 34 34 34 31 30 29 30 30 32 33 33 33 33 30 30 30 32 34 36 37 39 40 42 43 44 45 47 48 49 50 51
34 33 31 28 27 26 27 30 33 35 35 36 36 36 37 35 32 30 26 27 29 29 29 30 32 34 37 37 37 38 39 41 42 42 43 44 46 48 49 50 52 54 55
34 33 32 30 29 28 30 33 36 38 37 38 37 38 39 36 33 28 25 24 25 26 27 31 35 37 38 39 40 42 43 44 45 45 47 48 50 51 52 53 55 57 59
34 34 33 32 32 33 34 37 40 40 39 40 39 39 38 35 32 26 22 21 23 26 30 33 36 39 41 43 44 45 46 47 48 49 50 51 53 55 56 56 58 59 61
35 34 34 35 35 37 39 42 41 40 40 40 39 38 37 33 29 24 23 24 26 30 34 37 40 42 45 47 47 48 49 50 52 54 56 57 58 60 60 60 60 60 61
35 34 35 36 38 40 41 40 39 39 39 40 40 39 36 32 30 27 26 28 31 34 38 41 43 46 49 50 51 52 53 55 58 59 61 61 62 62 63 63 62 62 61
33 34 34 35 36 37 36 35 36 37 38 38 37 36 35 33 31 30 30 32 35 39 43 45 48 50 52 53 55 56 58 61 63 63 63 62 62 63 63 64 65 65 64
29 30 30 30 31 31 32 33 34 35 36 36 37 38 38 34 33 33 34 37 40 44 47 50 52 54 56 58 60 61 64 65 65 64 63 62 63 64 65 66 68 69 67
28 28 29 29 30 30 31 33 35 36 38 38 38 39 39 38 38 38 40 43 46 49 52 54 56 59 60 62 64 66 67 66 65 64 63 64 65 65 66 67 68 69 69
28 29 29 30 32 33 35 36 38 40 41 41 40 39 38 38 40 41 43 47 50 52 54 57 59 62 64 66 67 68 67 65 64 65 65 65 64 64 64 65 66 68 69
27 29 30 32 34 36 38 40 42 43 43 43 42 40 39 41 43 44 46 49 52 54 57 60 62 64 66 67 67 66 65 64 64 65 64 63 62 62 64 65 66 68 70
29 30 32 34 36 39 41 43 44 45 44 43 41 40 41 43 45 47 49 51 54 56 59 61 64 65 66 66 64 63 63 63 63 62 61 61 62 62 63 65 66 66 66
31 33 35 37 39 41 43 44 44 44 42 41 41 43 45 46 48 49 51 53 56 58 60 62 63 63 63 62 61 62 62 61 60 60 60 61 61 62 62 63 62 60 57
36 37 39 41 42 44 45 46 45 43 43 44 45 47 48 49 50 51 53 54 57 59 60 60 60 59 60 60 61 61 60 59 59 59 59 60 60 60 59 57 53 49 44
39 41 42 43 44 44 46 46 47 47 47 47 46 47 48 49 50 51 53 54 56 57 57 57 57 58 58 59 59 59 58 57 57 57 57 57 56 53 50 46 43 37 31
38 39 41 43 44 46 48 49 49 48 48 47 46 47 47 48 49 51 52 53 54 54 55 56 56 57 57 56 56 56 56 56 55 54 53 50 47 43 39 34 30 26 23
42 44 46 47 49 50 50 50 49 49 48 47 46 46 46 47 49 50 50 51 52 52 53 54 54 54 54 54 54 54 54 53 51 48 45 41 38 32 27 23 21 20 20
45 46 48 49 50 50 50 50 50 48 47 45 45 45 46 47 48 48 48 49 49 50 51 51 51 51 52 52 51 51 50 47 44 40 36 32 26 21 18 17 17 18 19
44 45 47 48 49 49 49 48 47 45 43 43 43 44 45 46 46 46 47 47 48 48 49 49 49 49 49 49 47 45 42 38 36 32 30 24 17 15 15 15 16 18 19
43 44 45 46 46 46 45 44 43 42 42 42 43 43 43 44 44 45 45 46 46 47 47 47 47 47 45 42 39 35 32 30 29 27 24 17 13 13 14 16 17 19 19
40 41 41 41 41 41 41 41 41 41 41 41 41 41 41 42 42 43 44 44 45 45 45 44 42 39 36 32 29 28 27 26 24 21 16 12 11 12 14 16 17 18 19
37 37 38 39 39 39 39 39 38 38 38 38 38 38 39 40 41 42 43 43 42 41 39 37 34 31 28 26 25 25 24 21 18 13 9 8 9 12 14 15 16 17 17
35 36 36 36 36 35 34 33 34 34 34 35 36 37 38 40 40 40 40 39 36 34 31 29 28 27 25 25 24 22 18 14 10 6 4 5 8 11 12 13 15 15 14
31 31 30 28 27 27 27 28 30 31 33 35 36 37 38 38 37 35 33 31 29 27 27 26 25 24 22 21 19 16 11 6 3 1 1 5 8 10 11 12 13 13 14
23 21 20 20 21 23 24 26 29 31 33 34 35 34 33 32 30 28 27 26 25 25 24 22 21 19 18 16 13 8 3 4 4 3 3 6 8 9 10 12 12 13 14

GEFSMW_500_meanwind_024.txt.gz
Wind_Speed
23 24 25 26 27 27 28 28 28 28 28 29 30 32 34 37 39 39 40 38 38 39 38 40 40 39 38 35 31 26 23 22 22 24 25 28 30 30 32 34 37 39 41
28 28 28 28 29 31 31 31 31 31 31 32 33 36 38 41 44 45 44 41 38 36 34 34 34 34 33 30 24 21 22 23 25 25 27 28 30 31 34 36 39 41 44
32 32 31 30 31 32 33 33 33 34 34 35 36 38 40 44 45 46 42 38 35 31 30 29 31 30 27 24 21 21 23 25 26 28 30 32 35 36 38 40 44 46 49
36 34 33 31 31 31 33 33 34 35 36 37 38 40 42 45 46 43 40 37 31 28 25 25 26 24 23 22 22 24 26 29 30 33 35 38 41 44 47 48 50 51 53
38 36 34 32 32 32 33 34 35 36 38 39 40 42 43 46 46 44 40 33 27 25 23 23 24 23 23 24 26 28 31 33 36 37 40 42 45 48 51 54 56 58 58
38 35 34 32 32 32 33 35 36 38 40 41 42 43 44 44 44 43 39 33 30 27 24 24 25 26 28 29 31 33 36 38 40 42 45 47 50 52 54 56 58 59 60
34 33 32 32 32 33 34 35 37 39 40 42 42 42 41 41 41 40 39 35 32 29 28 30 31 32 33 34 36 38 40 42 44 47 49 51 54 56 58 59 59 60 60
29 28 27 28 30 31 33 35 36 38 40 40 40 39 39 39 40 40 39 37 35 34 33 34 34 35 36 37 40 42 44 46 49 51 53 55 57 58 59 60 60 60 60
23 22 22 23 25 27 30 32 34 36 38 38 38 38 38 39 40 40 40 39 38 37 36 37 38 38 39 41 43 46 48 51 53 55 56 58 59 60 60 60 61 61 60
22 22 22 23 25 27 29 31 33 35 36 37 38 38 39 39 40 40 40 39 38 38 39 40 42 43 44 45 48 50 52 54 56 58 58 59 60 60 60 60 60 60 59
24 25 26 27 28 30 31 33 34 36 37 37 38 39 40 40 40 40 41 41 41 42 42 43 45 46 48 50 52 53 55 56 58 58 59 59 59 59 59 59 59 59 61
25 27 28 30 31 33 34 35 36 37 38 38 39 40 41 42 42 43 44 45 45 46 45 46 48 50 51 53 54 56 56 57 58 58 58 58 58 58 57 57 58 60 61
27 28 30 31 33 34 35 36 37 38 39 39 40 42 43 44 45 47 48 48 49 49 49 50 51 52 54 55 56 56 57 57 58 57 57 57 56 56 57 58 59 60 60
31 32 33 35 36 38 39 40 41 41 42 43 44 45 45 47 49 50 51 52 51 51 51 52 53 54 55 56 56 56 56 56 56 56 55 55 55 56 57 58 59 57 54
37 38 39 40 41 43 43 44 44 45 45 45 46 46 48 50 51 53 53 52 52 53 53 54 55 56 56 56 56 55 55 55 55 55 55 55 55 57 57 56 54 51 46
41 42 44 45 46 46 46 46 46 45 45 46 47 48 50 51 52 52 52 52 52 53 54 55 55 55 55 55 55 55 54 54 54 54 54 55 56 55 53 50 47 42 37
44 44 45 45 45 44 43 42 42 43 44 46 48 50 51 51 51 51 52 53 53 53 54 54 54 54 54 54 54 54 53 53 52 53 54 54 52 49 45 42 38 35 31
40 39 39 40 40 40 40 41 42 43 45 47 49 50 50 51 51 51 52 52 52 52 53 53 54 53 53 53 53 52 52 51 52 52 51 48 45 40 37 33 31 29 29
36 36 37 38 37 38 39 40 42 44 46 48 49 49 49 50 50 50 50 51 51 51 52 52 52 51 50 50 50 50 50 50 50 48 44 40 36 32 28 25 25 25 26
32 34 35 37 39 40 41 42 44 45 46 46 47 47 48 48 49 49 50 50 49 49 49 49 49 48 48 48 49 48 47 46 44 41 37 33 28 24 21 20 20 22 23
33 35 36 38 39 40 41 42 42 43 44 45 46 47 47 48 48 47 47 46 46 46 46 46 46 46 46 46 44 42 40 38 35 33 29 25 20 16 16 17 18 19 19
32 33 35 36 37 38 39 41 42 43 43 44 44 44 43 43 43 43 43 43 43 44 44 44 44 43 42 40 37 35 32 30 28 25 21 17 13 12 14 16 16 16 15
32 33 34 35 36 38 39 39 39 40 40 40 39 39 39 39 40 40 41 41 42 42 41 40 39 37 35 33 30 27 25 23 20 16 12 9 8 10 12 13 13 12 13
31 32 33 34 34 35 35 35 35 35 35 35 36 37 37 38 38 38 38 38 38 37 36 34 33 31 29 27 24 21 19 16 11 8 5 5 6 9 10 10 10 11 12
27 28 29 29 29 29 30 30 30 31 32 34 34 35 36 35 35 35 34 33 32 31 30 28 27 25 23 21 18 16 12 7 4 2 1 2 5 6 7 8 9 11 12
22 22 23 23 24 25 25 27 28 30 31 32 33 33 32 31 30 29 28 27 25 24 22 21 20 18 17 14 11 8 5 4 4 3 2 3 4 6 8 10 11 13 14

GEFSMW_500_meanwind_030.txt.gz
Wind_Speed
21 23 22 23 21 19 19 20 24 26 27 29 30 31 32 32 34 35 36 36 37 37 37 35 34 34 32 30 28 29 30 30 29 28 25 24 24 25 25 26 28 30 31
24 25 24 25 24 22 22 24 27 29 31 32 32 33 33 33 34 35 36 37 38 37 37 34 33 32 31 28 26 25 24 25 25 25 25 26 26 27 28 29 31 33 34
27 27 27 27 27 27 27 28 29 32 33 34 34 34 34 34 35 37 38 38 38 38 35 33 31 31 30 29 27 26 25 24 24 25 26 25 26 27 29 31 33 36 38
29 29 30 30 31 31 32 32 32 34 35 35 35 35 35 36 37 38 39 39 39 39 35 33 31 31 31 30 29 28 27 27 26 26 27 28 31 32 34 36 38 40 43
31 32 34 34 34 35 35 35 35 36 36 36 36 35 36 37 38 39 40 40 40 39 36 34 32 31 31 31 30 30 30 30 30 30 32 33 35 37 40 42 44 47 50
34 34 35 36 37 38 38 38 37 36 36 36 36 36 37 38 40 41 40 41 41 38 37 35 34 33 33 31 31 32 32 32 33 34 36 38 40 42 45 47 49 52 55
36 35 36 38 38 38 38 38 37 37 37 37 37 38 39 40 41 42 41 41 40 39 38 37 36 35 34 34 34 34 34 36 37 39 40 42 44 47 50 52 54 56 58
41 40 39 38 37 36 36 36 36 37 38 38 39 40 41 42 42 42 42 42 41 40 39 39 38 37 36 36 36 37 38 40 41 43 44 47 49 51 54 56 58 59 60
45 43 40 37 35 34 34 34 35 36 37 38 39 40 41 42 42 43 43 43 42 42 42 41 41 39 39 39 39 40 41 42 44 46 48 50 53 55 57 59 61 62 62
43 41 37 34 33 32 32 33 34 36 37 38 39 40 42 42 43 44 44 44 44 44 43 43 43 42 42 42 43 44 45 46 48 50 51 53 56 58 59 61 62 63 63
36 35 33 32 31 32 32 33 34 35 36 38 39 40 42 43 44 45 46 47 47 47 47 47 46 46 46 46 47 48 49 50 51 53 54 56 58 59 59 60 61 61 62
30 30 31 31 31 32 33 34 35 36 37 38 40 42 43 45 46 48 49 50 51 51 51 50 50 50 50 50 51 52 53 54 54 56 57 57 58 58 58 58 59 61 62
29 29 30 31 32 34 35 36 37 38 39 41 42 44 46 47 49 51 52 53 53 53 53 53 53 53 53 53 54 55 55 56 57 57 57 57 57 57 57 58 59 60 61
30 31 32 33 34 35 37 38 39 41 42 44 45 47 49 50 52 53 54 54 54 54 54 54 54 54 55 55 56 57 57 57 57 57 56 56 56 56 57 57 58 59 59
33 34 36 37 38 39 40 41 42 44 45 47 49 51 52 53 54 55 55 55 55 55 54 54 55 55 55 56 57 57 57 56 56 55 55 55 55 55 55 56 56 56 54
35 37 39 41 42 43 44 45 47 48 49 50 51 52 53 53 53 53 53 53 53 54 54 55 56 56 56 56 56 56 56 56 55 54 54 54 53 53 53 53 52 50 48
36 38 40 41 42 44 46 47 49 50 51 51 51 51 51 50 50 50 50 51 53 54 55 55 55 55 55 55 55 55 55 53 53 52 52 51 51 49 49 48 47 43 39
38 39 40 40 41 41 42 42 43 45 45 45 45 45 46 46 46 47 48 50 51 52 52 53 53 54 54 54 54 53 52 51 50 49 48 47 46 45 44 41 38 34 32
38 38 38 38 38 38 38 38 39 40 41 40 40 42 44 45 45 46 47 49 50 50 51 52 52 52 51 51 50 49 48 47 46 45 44 42 41 39 36 32 29 27 28
35 36 37 37 37 38 39 40 40 40 40 40 42 43 44 45 45 46 47 48 48 49 49 49 49 48 48 48 47 46 45 44 42 40 38 35 33 31 27 24 22 23 24
31 32 32 33 34 36 37 38 38 39 40 41 42 43 44 44 45 45 46 46 46 46 46 46 46 46 45 44 44 43 41 39 37 34 31 28 24 21 19 18 18 19 20
30 31 31 32 34 35 36 37 38 39 40 41 42 42 42 42 43 43 43 44 44 44 44 44 43 43 42 41 40 39 36 32 30 26 23 19 16 13 12 13 15 17 18
29 30 31 33 34 34 35 36 37 38 39 39 39 40 40 40 41 41 41 41 42 42 41 41 40 39 38 36 34 31 27 24 21 17 14 11 8 7 9 11 13 14 15
27 28 29 30 31 32 33 34 34 35 36 37 37 38 38 39 39 39 39 39 39 38 37 36 35 33 31 29 26 23 20 17 14 10 7 5 4 5 7 9 10 12 14
25 25 26 27 28 29 30 32 33 34 35 36 37 37 37 37 36 36 35 34 33 31 30 28 27 25 23 21 18 15 12 10 7 4 1 0 2 4 6 8 10 13 14
21 22 23 25 27 28 30 31 33 34 34 35 34 34 33 32 31 29 28 27 25 23 22 20 19 17 15 12 9 6 3 3 4 4 4 4 4 5 7 9 11 13 14

GEFSMW_500_meanwind_036.txt.gz
Wind_Speed
24 24 23 21 19 18 17 15 15 15 15 17 19 20 21 22 22 21 22 22 21 21 22 21 21 20 19 17 16 15 15 16 15 15 15 16 18 20 22 23 24 25 27
25 25 24 23 21 20 17 17 15 17 19 21 24 25 26 27 26 26 26 26 25 24 24 25 23 23 22 19 18 17 17 17 17 17 17 18 19 20 21 24 26 28 29
28 26 24 25 23 21 22 22 20 21 23 25 26 29 30 31 31 31 30 30 28 27 27 28 27 26 23 21 21 20 20 21 20 21 21 22 22 24 25 27 29 31 33
29 29 29 27 26 26 25 24 23 25 26 28 30 32 33 34 34 34 33 31 30 29 30 30 30 27 25 24 24 24 24 24 25 25 25 26 27 28 29 32 34 36 38
30 30 30 30 29 29 28 28 28 30 30 32 34 35 36 36 36 36 34 32 31 31 31 32 30 28 27 27 27 28 28 28 28 29 30 31 32 33 34 36 38 41 43
32 33 33 33 33 32 32 32 34 35 36 37 37 36 37 37 36 36 36 35 34 33 32 32 31 31 30 30 31 31 32 32 33 34 35 36 37 38 40 41 43 45 48
35 35 35 35 35 35 36 37 38 39 40 40 40 39 39 38 38 37 36 35 33 31 32 33 33 33 33 33 34 34 35 36 37 38 39 40 42 43 45 46 47 49 52
37 37 37 37 38 39 40 41 42 42 43 43 42 41 39 38 37 37 34 33 33 34 34 34 35 34 34 36 37 38 39 40 41 42 44 45 46 47 49 50 52 53 55
38 38 38 39 41 43 44 44 45 46 45 45 43 41 39 38 36 35 35 35 35 36 36 38 37 37 38 40 41 42 43 44 45 46 48 49 50 51 52 54 55 56 58
39 39 40 41 42 43 45 46 47 47 46 45 44 41 40 38 38 37 37 37 37 38 39 39 40 41 42 44 45 46 47 48 49 50 51 53 53 53 55 56 57 58 59
40 40 41 41 42 43 45 46 47 47 46 45 43 42 41 40 39 39 40 40 40 41 42 43 44 46 47 48 48 49 50 51 52 54 54 55 55 56 56 58 59 60 61
40 41 42 43 43 44 45 45 45 45 44 43 43 42 42 43 43 43 43 43 44 45 46 47 49 50 51 52 52 53 54 55 56 55 55 55 55 56 57 58 59 61 62
39 42 43 45 45 46 45 43 42 42 42 43 43 44 45 46 46 47 47 48 49 50 51 52 54 55 56 57 57 57 57 57 56 55 55 55 55 56 57 58 60 61 61
35 39 41 43 45 45 45 44 43 43 43 44 45 46 47 48 49 50 51 52 53 54 55 56 57 58 59 59 59 59 57 56 55 54 54 55 55 56 58 59 59 59 58
37 37 39 41 44 44 43 43 42 43 44 46 47 48 50 51 52 53 54 55 56 57 58 58 59 59 59 59 58 57 56 55 54 54 54 55 55 56 57 57 56 55 54
35 37 37 37 39 41 41 41 41 42 43 45 46 47 49 50 52 53 55 56 56 57 58 59 58 57 56 55 54 54 53 52 52 52 53 53 54 54 55 54 52 50 48
32 34 35 37 37 37 37 38 40 42 43 44 45 45 46 48 49 50 52 53 54 54 53 53 52 52 52 51 51 51 50 51 51 51 51 51 51 50 50 48 47 46 44
29 29 29 30 32 34 37 39 41 41 42 43 45 46 46 47 47 47 48 48 49 48 48 47 47 48 48 48 48 48 48 48 48 48 48 48 47 46 45 43 42 40 38
27 27 28 29 30 32 34 36 38 40 41 42 44 45 46 46 47 47 46 46 46 46 46 46 47 47 47 47 47 47 46 46 46 46 45 43 43 42 40 38 36 34 30
25 25 27 27 28 29 31 34 36 39 40 41 42 43 43 43 43 43 43 44 44 45 45 45 45 45 45 46 46 45 45 44 44 43 41 39 38 36 34 30 28 25 22
22 23 24 26 28 29 30 32 33 35 36 38 39 39 40 40 40 41 42 42 43 43 43 43 44 44 44 44 44 43 43 42 41 39 36 34 32 29 26 22 19 17 16
20 21 23 25 26 28 29 30 32 33 34 35 36 37 37 38 39 39 40 40 41 41 41 41 42 42 42 41 41 40 39 37 35 33 30 27 24 21 18 14 12 11 12
19 21 22 23 24 25 27 28 29 30 31 32 34 35 36 36 37 37 38 38 37 37 37 37 37 37 37 36 35 34 32 29 27 24 21 18 15 12 9 7 7 8 9
18 20 21 21 22 24 25 26 27 28 29 31 32 33 33 33 34 33 33 33 33 33 32 32 31 31 30 29 27 25 22 20 17 14 12 10 8 5 3 3 4 6 8
17 18 19 20 21 22 23 24 25 27 28 29 29 29 29 30 29 29 28 28 27 26 25 24 24 23 22 20 17 14 12 10 8 6 6 5 4 3 3 3 5 7 9
16 17 18 18 19 19 20 22 23 24 25 25 25 25 24 23 22 22 22 20 19 18 17 16 16 14 12 9 7 5 3 4 6 7 8 8 8 7 7 7 7 8 9

GEFSMW_500_meanwind_042.txt.gz
Wind_Speed
25 22 20 18 17 17 16 16 18 19 20 20 19 19 20 21 21 22 22 22 23 23 23 24 24 25 24 23 23 23 22 21 21 21 21 21 21 22 22 23 24 25 27
26 25 22 20 19 16 15 14 15 18 21 21 21 23 23 23 23 23 24 25 25 26 27 28 28 28 27 26 25 25 24 24 23 24 25 25 25 26 26 28 29 30 31
27 25 24 22 19 17 16 16 16 18 21 22 23 24 25 26 25 24 25 26 27 28 29 29 28 28 28 27 27 28 25 25 25 25 27 28 29 30 31 32 34 35 36
28 27 25 24 21 19 19 19 19 19 21 23 25 26 26 26 27 28 27 28 29 30 30 30 30 29 29 29 28 27 27 26 26 28 29 30 32 33 35 36 38 39 41
29 27 27 25 23 23 23 23 23 24 25 27 29 29 29 30 31 30 30 29 29 29 31 32 32 30 29 29 29 28 28 28 29 30 31 32 34 36 38 39 41 42 43
30 29 28 27 27 26 26 25 26 26 28 30 31 32 32 33 33 33 32 31 30 30 32 33 31 30 30 30 31 31 30 30 31 32 33 34 36 38 40 41 43 45 46
32 31 31 31 31 30 30 29 29 30 31 34 34 34 36 37 36 36 34 33 32 32 34 33 32 32 32 32 33 33 33 33 34 35 36 37 38 40 42 44 46 47 49
33 33 32 32 32 31 32 32 32 34 35 37 38 39 40 40 39 39 38 35 35 35 33 34 34 34 34 34 35 35 36 36 37 38 38 40 41 43 45 47 49 50 52
35 35 35 35 34 35 36 37 37 38 40 41 41 41 41 40 40 40 39 37 36 35 35 36 36 36 36 37 38 38 38 39 40 41 42 44 46 47 48 49 52 53 54
39 39 39 39 39 40 41 42 42 42 43 44 44 45 45 44 44 42 40 39 38 37 38 38 38 38 39 40 41 41 42 43 44 46 46 48 49 51 52 53 55 56 58
41 41 41 42 43 43 44 45 45 46 46 45 45 46 46 45 44 42 41 41 41 40 41 41 41 42 43 43 44 46 47 48 48 49 50 52 54 55 56 57 57 58 58
43 43 44 44 44 44 45 46 47 48 48 48 47 46 45 45 45 45 44 44 43 43 44 45 46 48 48 48 48 50 51 52 52 53 54 56 57 57 57 57 57 56 57
44 44 45 45 45 45 46 46 47 47 48 47 46 47 47 46 46 46 45 45 46 46 47 48 50 50 51 51 52 53 54 55 56 57 58 57 57 57 57 56 56 56 57
43 43 44 44 45 43 43 43 44 45 46 47 47 47 47 47 46 46 46 47 49 50 49 50 52 52 53 54 54 55 56 57 58 59 58 57 56 56 56 55 55 55 55
41 42 43 42 41 40 41 40 41 42 43 43 44 45 46 46 46 46 47 48 49 50 49 50 52 52 53 53 55 57 57 58 58 57 57 56 55 54 54 54 53 53 53
39 40 40 39 38 36 37 38 38 37 37 38 38 39 41 43 45 46 47 47 48 50 50 52 53 55 56 57 58 58 57 57 56 56 55 54 53 53 53 52 52 51 50
36 36 34 33 34 33 32 32 33 32 33 34 35 36 38 40 41 44 45 46 48 49 51 54 55 56 56 57 57 56 55 55 54 54 53 53 52 52 52 50 49 48 47
31 32 31 30 30 30 29 29 29 30 31 33 34 36 38 40 42 44 46 48 50 51 52 53 54 55 56 56 56 55 54 54 53 52 52 52 50 49 48 47 45 44 43
26 27 27 27 27 26 27 28 29 31 32 33 34 36 38 40 42 43 46 48 49 51 52 53 53 54 54 54 54 53 53 52 51 51 50 48 47 45 43 41 40 38 37
22 22 22 23 23 23 25 27 28 30 32 33 34 36 37 39 40 42 44 45 47 48 50 51 51 51 51 51 51 50 49 48 47 46 44 42 41 39 36 34 33 31 29
17 17 18 19 21 22 24 25 27 29 30 32 33 35 36 38 39 41 43 44 45 46 47 47 47 47 46 46 45 45 44 44 42 41 38 35 33 30 28 26 24 22 21
15 15 16 18 19 20 22 23 25 26 27 29 30 32 34 36 38 40 41 42 43 43 43 43 42 41 40 40 40 39 38 36 34 31 28 25 23 21 19 17 15 14 13
13 14 15 17 18 19 20 21 22 23 24 26 28 30 32 34 35 36 37 37 37 37 37 37 36 35 34 33 32 30 27 23 20 18 16 15 13 11 10 8 8 8 8
12 13 14 15 16 17 18 19 19 21 23 24 26 27 29 30 32 32 32 32 31 31 30 29 28 27 26 24 21 17 14 12 10 8 6 5 4 3 2 2 3 4 6
12 13 13 14 15 15 16 16 17 19 21 22 23 25 26 28 28 27 27 26 25 24 23 22 20 19 16 14 11 8 5 3 1 2 3 3 4 4 3 3 4 5 7
12 12 13 13 13 14 14 15 16 18 19 20 21 23 24 25 25 24 23 22 20 19 17 16 14 12 9 7 5 4 5 6 7 8 8 8 9 8 8 7 7 8 9

GEFSMW_500_meanwind_048.txt.gz
Wind_Speed
30 28 27 26 25 24 23 23 24 24 23 21 21 21 22 23 24 25 25 27 29 31 32 32 32 31 31 31 29 28 28 29 27 26 25 26 26 27 28 28 28 28 28
32 30 30 28 27 27 25 25 25 26 25 25 25 26 26 26 27 28 28 30 32 34 35 35 34 34 32 30 29 29 28 27 28 28 28 28 28 29 30 30 30 31 32
33 32 31 31 29 29 27 26 27 27 27 28 29 28 28 28 29 30 31 33 34 35 35 34 33 32 30 29 29 29 29 27 26 27 27 28 30 31 32 33 34 34 35
33 34 33 33 32 31 29 29 29 29 29 31 31 30 30 31 32 33 33 34 35 35 35 33 32 31 29 29 29 30 29 28 27 28 29 30 31 33 34 35 36 38 39
34 35 35 34 34 34 33 31 32 32 32 33 33 33 33 33 34 35 35 35 35 36 34 33 32 31 30 30 29 29 29 28 29 31 32 33 34 35 36 37 39 40 42
33 35 36 36 35 34 33 34 35 33 33 34 35 36 37 36 36 35 36 36 36 36 37 35 33 31 30 29 30 31 31 31 31 33 34 35 36 37 39 41 42 43 44
30 32 34 35 36 35 34 34 34 34 34 35 36 38 38 37 36 37 37 37 38 39 39 36 34 33 32 33 32 32 33 34 35 36 36 38 39 40 42 43 45 46 47
26 28 31 33 34 35 36 35 35 35 35 36 37 38 38 39 40 39 39 38 39 40 41 39 37 35 35 35 35 34 35 36 37 38 39 40 41 43 45 46 48 49 51
26 27 29 31 33 35 36 37 37 38 39 40 41 41 41 43 43 42 42 42 42 43 43 42 39 39 39 38 38 38 38 39 40 41 42 43 44 46 47 49 50 52 54
28 29 31 32 34 36 37 38 39 41 42 43 43 42 43 44 44 45 45 44 46 46 45 45 44 43 42 42 42 41 41 43 43 45 46 47 47 49 50 52 54 56 58
30 31 32 34 36 37 38 39 41 42 43 44 44 45 46 46 47 46 47 48 48 49 48 47 46 46 45 46 46 45 45 45 47 48 49 49 51 52 54 56 57 60 61
32 34 34 35 37 38 38 40 41 42 44 45 46 47 47 47 48 48 49 49 49 49 49 48 48 48 48 48 48 47 46 47 50 52 53 53 55 56 58 59 60 61 62
35 36 37 39 40 41 41 43 44 45 46 46 46 46 46 47 48 49 50 49 50 50 50 50 50 49 50 50 49 48 49 50 53 55 57 57 57 58 59 60 61 62 62
36 37 38 39 40 41 42 43 44 45 45 45 44 45 45 46 46 47 48 49 49 50 51 51 50 51 51 50 49 51 53 54 56 58 59 59 60 60 60 61 62 62 62
34 35 36 38 39 40 40 41 41 42 42 42 42 42 42 42 43 44 45 45 46 48 48 48 49 51 52 52 52 54 56 58 59 60 61 60 60 60 61 61 61 61 60
33 33 34 35 35 36 36 37 37 38 38 39 40 41 41 42 42 42 42 42 44 46 47 48 49 50 52 53 55 57 58 59 60 61 62 62 61 60 60 59 57 56 54
29 30 30 31 32 32 33 33 34 34 35 36 37 38 38 39 40 39 40 42 43 45 46 47 49 51 53 56 57 58 59 60 61 61 61 60 59 58 56 54 51 49 46
26 27 28 28 29 30 30 31 32 32 33 34 35 36 36 37 38 39 40 42 43 45 47 48 50 52 54 55 57 57 58 59 59 58 57 57 55 53 50 46 44 41 38
24 25 26 26 26 27 27 28 29 30 31 32 33 34 35 37 38 39 39 41 42 44 45 47 49 50 51 53 54 55 55 54 53 52 50 48 45 42 39 36 34 31 30
20 21 22 22 22 23 25 26 27 27 28 29 29 30 31 33 34 35 36 38 40 42 44 45 47 48 49 49 49 49 47 45 43 41 39 36 33 30 29 27 25 24 23
17 18 19 19 20 21 22 23 23 24 25 25 26 27 28 30 31 33 34 36 38 39 41 43 44 44 44 43 41 39 37 35 32 29 26 24 22 21 19 18 17 17 16
15 15 16 17 18 19 19 20 21 22 22 23 24 24 26 27 28 29 31 32 34 35 36 37 36 35 34 32 30 27 24 21 19 17 15 14 13 12 11 11 10 10 9
12 13 14 16 17 17 18 18 19 19 20 20 20 22 23 24 25 27 28 29 31 31 31 29 27 25 23 20 18 15 13 11 9 7 6 6 5 5 5 5 5 5 6
11 12 13 14 15 15 16 16 17 17 18 18 18 19 21 22 23 25 26 26 26 26 24 23 20 17 14 12 10 8 7 5 4 4 4 5 5 5 5 5 6 6 7
10 11 12 12 13 14 14 14 14 14 15 16 17 18 19 20 21 22 22 22 21 20 18 16 14 12 9 8 7 6 7 7 7 7 7 7 7 7 6 6 6 6 7
10 11 11 12 12 13 13 13 13 13 14 14 15 16 17 18 19 19 18 18 17 16 14 12 11 9 8 8 8 9 9 10 10 10 9 8 7 7 7 6 7 7 8

GEFSMW_500_meanwind_054.txt.gz
Wind_Speed
33 34 33 29 26 23 20 19 20 20 20 20 21 21 22 23 24 25 25 25 26 26 27 27 27 28 29 30 31 32 32 31 31 31 30 30 29 28 28 28 29 29 30
36 35 32 29 29 26 23 21 21 21 21 21 23 25 26 27 27 28 29 29 29 29 29 30 31 32 32 32 31 30 31 32 32 30 30 30 30 29 29 29 30 30 32
33 34 31 30 27 26 24 23 23 23 23 23 23 26 28 29 29 30 31 32 33 33 32 33 34 35 35 32 31 30 31 31 31 31 29 30 30 29 28 29 30 31 33
32 29 28 30 28 27 26 24 24 25 26 25 26 27 28 30 31 33 35 36 34 34 35 34 36 37 36 33 30 29 31 32 30 28 29 30 30 31 31 32 33 34 36
29 29 29 30 30 29 28 27 27 28 28 29 29 31 32 33 34 35 36 37 37 37 36 38 38 37 37 34 32 30 29 30 29 28 29 31 32 34 35 35 36 38 39
28 28 28 30 30 30 31 30 30 31 31 31 32 34 35 37 37 37 38 38 38 36 36 38 38 37 36 35 33 32 32 32 32 32 33 33 34 36 38 40 40 41 42
27 27 29 30 31 32 32 32 33 34 34 35 36 36 38 39 40 39 38 37 37 35 35 37 37 35 35 35 35 35 35 34 34 35 36 36 37 39 40 42 43 45 46
27 28 29 30 31 33 34 36 37 37 37 37 39 39 39 40 41 41 40 39 39 40 39 39 38 37 37 37 37 37 38 37 37 39 40 40 41 41 43 44 46 48 50
27 28 30 31 33 34 36 38 39 38 38 39 39 39 40 42 43 43 42 42 42 42 42 42 42 40 41 41 41 41 41 41 41 42 42 44 45 46 47 48 49 51 53
27 28 29 30 32 34 35 37 38 38 39 40 40 40 41 42 42 42 42 43 43 45 45 44 44 44 44 45 44 44 43 44 45 45 47 48 49 49 50 52 52 53 55
27 27 28 29 31 33 34 35 36 38 39 40 41 41 42 44 44 44 45 46 47 47 47 47 47 47 47 47 47 48 48 49 48 48 50 50 51 52 52 53 55 57 58
29 29 30 30 31 33 34 35 37 38 39 41 42 42 43 44 45 45 46 48 48 49 49 49 49 49 50 49 49 49 50 51 52 52 52 53 54 55 55 57 58 59 60
29 30 31 32 34 35 36 36 37 38 40 41 42 44 44 45 45 46 48 48 49 50 51 50 51 51 51 51 51 52 52 53 54 54 54 55 56 58 58 59 60 61 63
28 30 32 33 34 35 36 37 38 39 41 42 43 44 44 45 47 48 49 49 49 50 50 51 51 52 52 52 53 53 54 55 55 55 55 56 56 57 58 59 60 60 61
28 30 32 33 34 35 36 37 38 39 40 41 43 44 45 46 46 47 48 48 48 49 50 51 52 52 52 53 53 53 53 54 54 55 56 56 55 55 56 57 57 57 56
29 30 31 32 33 34 36 37 37 38 39 40 41 42 43 43 44 45 46 46 47 48 49 49 49 51 51 51 52 53 53 54 55 55 55 54 54 53 54 55 54 52 49
28 29 30 31 32 33 33 34 35 37 37 38 38 39 40 40 41 41 43 44 45 46 47 47 47 48 50 51 52 53 54 54 53 52 51 51 51 50 49 48 46 44 41
27 28 29 30 30 30 32 33 34 34 34 35 35 36 36 37 38 39 40 41 42 43 43 44 45 46 48 49 49 50 50 49 49 48 47 46 45 43 42 39 37 35 34
26 26 26 26 26 27 27 29 29 30 31 31 32 33 33 34 34 35 36 37 38 39 40 41 42 44 45 45 45 45 45 45 44 42 40 38 35 33 31 29 28 27 25
23 23 23 23 24 24 25 25 26 26 27 27 28 28 29 30 31 32 33 34 34 36 36 37 39 40 41 41 40 40 38 36 33 29 26 24 22 21 21 20 19 17 16
19 19 19 20 21 21 22 22 23 23 24 24 24 25 25 26 27 28 29 30 31 31 33 34 35 35 34 34 32 30 27 24 20 17 14 13 13 12 12 11 10 9 8
15 15 16 16 17 18 19 19 19 20 20 21 22 22 23 23 23 24 25 26 27 28 29 29 29 28 26 24 22 19 16 13 11 9 8 7 8 8 8 8 8 7 7
13 13 13 14 15 15 16 17 17 18 18 18 19 19 19 20 21 22 23 23 24 24 24 23 22 20 18 16 14 12 10 8 8 7 7 8 9 9 9 9 9 9 8
11 12 12 13 14 15 15 15 15 15 15 15 16 16 17 18 19 19 20 20 19 19 18 18 17 15 13 11 10 9 8 8 8 8 9 10 10 10 11 10 10 10 10
11 12 12 13 13 13 14 14 14 14 14 14 14 15 16 16 16 17 16 15 15 15 14 13 12 11 10 9 9 9 9 8 9 9 9 9 9 10 10 10 9 9 9
10 11 12 12 12 12 12 12 13 13 13 13 13 14 14 14 14 13 12 12 12 12 11 10 10 9 9 9 9 9 9 9 9 9 9 9 9 9 9 9 9 9 9

GEFSMW_500_meanwind_060.txt.gz
Wind_Speed
31 31 30 29 28 27 27 26 23 21 20 20 20 20 19 20 20 19 19 19 20 21 21 22 23 24 25 26 27 28 27 26 25 25 24 24 24 25 25 25 25 26 27
32 32 32 31 31 32 31 27 25 24 23 22 22 22 21 20 20 20 20 21 22 23 25 25 25 26 27 27 26 26 26 26 25 25 25 24 25 25 25 25 26 28 28
31 32 32 31 32 33 31 30 27 25 24 25 24 22 21 20 21 21 22 23 24 25 25 26 27 28 29 27 27 27 27 26 27 28 26 26 26 26 26 26 27 28 30
30 31 32 32 31 31 31 30 29 28 27 26 25 25 24 24 24 24 25 25 26 26 27 28 29 29 28 27 27 28 28 27 26 27 27 26 26 27 27 28 30 31 32
28 30 31 32 32 33 34 32 30 29 27 26 27 27 27 26 25 26 27 26 26 26 27 28 29 29 27 26 25 26 26 26 26 26 27 27 28 28 30 31 32 34 36
29 30 32 33 33 33 31 30 29 28 27 27 28 28 28 27 27 27 27 26 27 28 28 29 28 28 27 26 25 25 26 27 28 28 29 29 31 31 32 33 34 36 38
29 30 31 32 32 32 29 27 28 28 27 27 28 28 29 29 28 28 28 27 28 29 30 30 29 30 29 28 27 27 27 28 29 29 30 32 33 34 35 36 37 39 41
28 28 29 30 29 29 29 28 27 27 28 29 29 29 30 31 30 29 28 29 29 30 31 30 30 30 30 30 31 31 32 33 33 34 35 36 37 38 38 39 41 43 45
26 27 28 28 28 28 28 28 29 29 30 31 31 30 31 31 32 31 31 31 32 32 32 31 32 33 33 34 35 35 36 37 38 39 40 41 41 42 43 44 45 47 48
25 25 26 27 27 27 28 28 29 30 30 30 30 31 31 31 32 32 32 33 34 34 34 35 35 37 37 38 38 39 40 41 42 43 44 44 45 46 47 48 49 49 51
25 25 25 25 26 27 28 29 30 31 31 32 32 33 33 33 33 33 34 35 36 37 38 38 39 39 40 41 42 42 43 44 45 46 46 46 47 48 49 50 51 52 53
25 26 27 27 27 28 29 29 30 31 32 32 33 33 33 34 34 35 36 37 38 39 40 41 41 42 43 44 44 44 45 46 47 47 47 48 48 50 51 52 53 54 55
22 25 26 27 28 29 29 30 31 31 32 33 34 34 35 35 36 37 38 39 40 41 42 43 44 44 45 45 45 46 46 47 47 48 49 50 51 51 52 52 53 54 54
22 23 24 26 28 28 29 30 31 32 33 33 34 35 36 37 37 38 39 40 41 42 43 44 44 44 45 45 45 46 47 47 48 49 50 51 51 51 52 52 52 52 52
22 22 23 25 27 28 30 31 31 32 33 33 34 35 35 36 37 38 39 41 41 42 43 43 43 44 44 44 46 47 47 48 48 48 49 49 50 50 50 50 50 50 50
21 22 23 25 27 28 28 29 30 31 31 32 32 33 34 35 36 37 38 39 40 40 41 41 41 42 43 44 45 45 45 45 45 45 46 46 45 45 44 44 44 43 42
21 22 23 25 26 27 28 28 29 29 29 30 31 32 33 34 35 35 36 36 37 37 37 38 38 40 40 41 41 41 41 41 42 42 41 39 38 37 36 36 36 35 35
20 21 22 23 24 26 26 27 27 27 28 28 29 29 30 30 31 32 33 33 33 34 34 35 36 37 37 37 37 36 36 36 35 33 32 31 30 29 28 27 27 27 26
17 18 20 21 22 23 24 24 24 25 25 25 26 26 27 28 29 29 29 29 30 31 32 33 33 32 32 31 30 30 29 29 28 27 25 24 23 21 21 20 19 19 18
15 16 17 19 20 21 22 22 22 23 23 24 24 24 24 24 24 25 25 26 27 28 29 28 28 27 26 26 26 25 24 24 23 21 19 18 17 15 15 14 13 12 12
14 14 15 16 16 17 18 19 20 20 21 21 21 21 21 21 22 22 23 23 24 25 24 24 22 22 21 20 20 20 19 19 18 17 15 13 12 12 12 11 11 10 10
13 13 13 14 14 15 16 17 17 18 18 18 19 19 19 20 20 21 21 20 20 20 19 18 17 17 16 17 17 16 15 15 14 13 12 11 11 11 11 11 11 11 10
10 11 12 12 13 14 15 15 15 16 16 17 17 17 18 18 17 17 17 16 15 15 14 13 13 13 13 13 13 12 12 12 11 11 11 10 10 11 11 11 11 11 11
8 9 10 11 12 13 14 14 15 15 15 15 15 15 15 14 13 13 13 12 12 11 11 11 10 11 11 11 11 10 10 10 10 10 10 10 10 10 11 12 12 12 12
7 8 9 10 11 11 12 12 13 14 14 14 14 13 12 11 11 11 11 10 10 9 9 9 9 9 9 10 10 10 9 9 9 10 10 10 11 11 11 12 12 12 12
8 8 8 9 10 10 11 11 11 12 12 11 11 10 10 10 9 9 9 8 8 8 8 7 7 8 9 9 9 10 9 9 9 10 11 11 11 11 12 12 12 13 13

GEFSMW_500_meanwind_066.txt.gz
Wind_Speed
31 29 26 25 24 24 24 23 23 24 22 22 23 23 25 26 26 25 25 25 25 25 25 26 26 25 25 25 25 24 25 26 26 26 26 27 27 26 25 26 26 27 27
32 32 31 29 27 25 25 25 26 26 24 23 23 25 26 28 28 27 27 27 27 28 29 29 28 28 28 27 27 26 26 27 28 29 28 27 27 27 27 28 29 29 30
33 33 32 31 29 28 27 26 27 28 26 26 27 28 29 29 29 29 29 28 29 30 31 30 29 29 29 28 28 27 27 28 29 30 29 27 27 28 29 30 30 31 32
32 33 32 31 30 30 29 28 28 29 28 29 30 31 31 30 31 32 32 31 30 30 30 30 30 29 29 30 30 29 28 28 27 29 29 28 28 27 28 29 31 32 33
29 30 30 29 29 29 29 28 28 28 29 30 31 31 30 30 32 31 32 32 32 31 31 30 31 30 29 29 29 27 26 26 26 27 28 29 28 28 29 30 31 33 34
25 26 27 28 28 28 29 28 28 28 29 29 30 30 30 30 31 32 33 32 33 32 32 32 32 31 30 29 27 27 26 26 26 27 27 28 29 30 32 32 33 35 37
23 25 26 27 26 26 28 28 28 28 29 29 27 27 26 27 28 28 30 31 31 31 31 32 31 29 28 26 26 25 26 27 28 29 29 30 32 34 35 36 37 39 40
22 24 25 26 27 27 27 28 28 28 28 28 27 25 24 24 25 25 25 26 26 27 28 27 27 26 25 25 25 27 28 30 31 32 33 34 36 37 38 40 41 43 44
21 23 24 25 26 26 27 26 27 27 27 26 24 24 23 23 23 23 24 24 24 24 25 25 25 25 25 26 27 30 32 33 34 36 37 39 40 41 42 43 44 46 47
21 22 24 25 26 25 25 25 26 26 25 25 25 25 24 23 24 23 23 23 23 23 24 25 26 26 28 30 31 33 34 36 37 39 40 41 42 43 45 46 47 48 49
19 22 23 24 25 25 25 24 25 25 25 25 25 25 25 24 24 24 24 24 25 24 25 27 28 29 31 32 33 35 37 38 40 40 41 43 44 45 47 48 49 51 52
18 20 21 22 23 24 24 25 25 25 25 25 25 25 25 25 25 25 25 25 25 26 27 28 30 31 33 34 36 38 39 40 41 42 43 44 45 46 47 48 49 51 52
17 18 19 21 23 24 25 26 26 26 26 26 26 25 25 25 25 25 26 26 27 28 29 30 32 33 35 36 38 39 40 41 41 42 43 44 44 44 45 46 47 48 49
17 18 20 21 23 24 25 25 25 25 25 26 26 25 25 26 26 26 27 28 29 30 31 32 33 34 36 37 38 39 40 41 41 42 42 42 42 43 43 44 45 45 46
17 18 20 22 23 24 25 25 26 26 26 26 26 26 26 26 27 27 27 28 29 30 31 32 33 34 35 36 37 38 38 39 39 39 39 40 40 40 40 40 40 40 40
18 19 19 21 22 23 24 25 26 26 27 26 26 26 26 26 26 26 26 27 28 29 30 31 32 33 34 34 35 35 36 37 37 36 35 35 35 35 35 35 34 34 34
17 18 18 19 20 21 23 24 25 25 25 25 26 25 25 25 26 26 26 27 28 28 28 29 30 31 31 32 33 33 33 32 31 30 30 30 30 30 29 29 30 29 29
17 17 18 19 19 20 21 22 23 23 23 24 24 24 24 24 25 25 25 26 26 26 26 27 28 29 29 29 29 29 27 26 26 27 26 26 26 25 25 25 25 25 24
15 16 17 17 18 19 19 20 20 20 21 21 21 21 22 22 22 23 23 23 23 23 23 24 24 25 25 25 24 23 22 21 22 22 22 21 21 21 21 21 21 21 20
13 14 15 15 16 16 17 18 18 18 18 18 19 19 19 20 20 20 21 20 20 21 21 21 21 21 21 20 18 17 17 17 17 17 17 16 17 17 18 18 18 18 17
12 12 13 13 13 14 15 16 16 16 16 16 16 17 17 18 18 19 19 19 18 18 18 18 18 18 16 16 15 14 14 14 14 15 15 15 16 17 17 17 16 16 16
12 13 13 13 13 13 14 14 15 15 16 16 16 17 17 17 17 17 17 16 16 16 16 15 15 14 14 13 13 12 12 12 13 13 14 15 15 16 16 16 15 15 15
11 11 12 12 12 13 14 14 14 14 15 15 16 16 16 16 15 15 14 14 13 13 13 13 12 12 11 11 11 11 11 12 12 13 13 14 15 15 15 15 15 15 14
10 11 11 11 12 12 13 13 13 13 14 14 14 14 14 14 13 13 12 12 11 11 10 10 10 10 9 9 10 10 11 11 12 12 13 14 15 15 15 15 15 14 14
9 10 10 11 11 11 11 11 12 12 12 12 13 12 12 12 11 10 10 10 9 9 8 8 8 8 8 8 9 9 10 11 12 13 13 14 15 15 15 15 15 14 14
9 9 9 9 10 10 10 11 11 11 11 12 12 11 11 11 10 9 9 8 7 7 6 7 7 7 7 8 8 9 10 11 11 12 13 14 14 14 15 15 14 14 14

GEFSMW_500_meanwind_072.txt.gz
Wind_Speed
30 31 32 33 33 31 28 27 28 25 24 24 25 25 27 27 27 27 28 29 29 29 30 29 30 30 29 29 29 29 29 30 30 30 30 29 29 29 30 30 31 31 31
31 33 34 36 35 32 29 27 26 24 23 23 23 24 24 25 27 28 29 30 31 32 32 32 32 31 31 31 31 31 31 32 31 31 30 30 30 30 31 32 33 33 34
31 34 35 35 35 34 31 29 27 25 24 24 23 24 24 25 26 26 28 31 33 33 34 33 33 33 33 32 32 33 33 32 33 32 31 31 32 32 32 33 33 34 34
30 33 35 35 35 34 33 30 28 27 26 25 25 26 25 25 26 28 28 29 31 32 34 34 33 33 33 33 34 34 33 32 33 32 32 32 32 33 33 33 33 35 36
26 31 34 35 35 34 33 31 31 30 28 28 28 28 27 27 27 28 28 29 30 32 33 34 35 35 35 36 37 36 35 34 34 34 33 34 34 35 35 35 35 36 37
24 27 31 33 34 34 33 33 32 32 31 30 29 28 29 28 27 27 26 27 30 32 34 34 35 36 36 36 37 36 36 35 34 34 33 32 33 33 34 34 34 35 37
23 25 28 32 34 34 34 34 33 33 32 31 30 29 29 27 27 27 25 27 29 31 33 32 33 34 34 35 35 34 34 33 31 32 33 33 33 33 35 35 37 38 40
21 23 25 27 31 32 32 32 32 33 32 31 30 29 28 27 26 25 25 24 24 26 27 29 30 30 30 30 31 32 31 30 30 31 33 34 35 36 37 39 40 42 43
19 21 23 25 27 29 31 31 31 31 30 29 29 28 27 26 25 24 23 23 22 24 25 25 27 28 28 28 27 28 29 30 31 32 33 35 36 38 39 41 42 43 45
20 20 22 24 25 27 29 30 30 30 29 29 28 27 26 25 23 22 20 21 21 22 24 25 26 28 29 27 27 28 29 30 32 34 35 36 38 39 41 42 44 45 47
19 20 22 24 25 27 28 29 30 30 29 28 27 27 25 25 23 22 21 20 20 21 23 24 24 24 25 26 27 28 29 30 32 34 35 37 38 40 42 43 45 46 47
16 18 21 23 24 26 28 28 28 29 28 28 28 27 26 25 24 23 23 22 22 22 23 24 23 24 25 26 28 29 31 32 33 35 37 38 39 41 42 43 45 46 47
15 17 19 20 22 23 25 27 28 28 28 28 27 27 26 25 24 24 24 24 24 24 24 25 25 25 26 27 29 30 31 33 34 36 37 38 40 41 42 43 44 44 45
15 16 18 20 21 22 24 25 26 27 27 27 27 27 26 26 25 26 26 26 25 25 26 26 27 27 28 29 30 31 32 33 34 36 37 38 39 40 41 41 41 42 42
15 16 18 20 21 22 24 25 26 26 27 27 27 27 26 26 26 26 26 26 25 25 25 26 26 27 28 29 30 30 31 33 34 35 36 37 37 37 38 38 39 39 39
17 17 18 20 22 22 23 24 25 25 26 26 26 26 26 25 25 25 26 25 25 24 24 25 26 27 27 28 28 29 31 32 33 34 34 34 34 34 36 36 35 35 35
17 18 18 19 19 21 22 22 22 23 24 24 24 24 24 24 25 24 24 24 24 24 25 25 26 26 26 27 28 28 29 30 30 30 30 30 30 30 29 29 29 29 28
17 18 18 18 18 20 21 21 22 22 23 22 23 22 22 22 22 23 23 23 24 23 23 24 24 25 25 25 26 27 26 25 25 25 25 25 25 25 25 24 24 24 25
15 16 16 16 16 17 17 17 18 19 19 19 20 20 20 21 21 21 21 22 22 22 23 23 23 23 23 23 23 23 22 22 23 23 23 23 22 22 22 22 22 22 22
15 15 15 15 15 16 16 16 17 18 18 18 18 19 19 19 20 20 20 20 21 21 21 21 21 21 21 21 21 20 20 20 20 20 20 20 19 20 20 20 20 20 19
13 14 15 14 14 14 15 16 17 17 17 17 17 17 18 18 18 19 19 19 19 19 19 20 19 19 19 19 18 18 18 18 18 18 17 17 17 17 18 18 18 18 17
11 12 12 12 12 12 13 14 14 14 15 15 16 16 17 17 17 18 18 18 18 18 18 17 16 16 16 16 15 15 15 15 15 15 15 15 16 16 17 17 17 16 16
10 10 11 12 12 12 13 12 12 13 13 14 14 14 14 15 16 16 16 16 16 16 15 14 14 14 14 13 13 13 14 13 13 13 13 14 15 15 16 15 15 15 15
9 9 10 10 11 11 12 12 12 12 12 13 13 13 13 13 13 13 14 14 13 13 13 12 12 12 12 12 12 12 12 12 12 12 13 13 13 14 14 14 14 14 13
7 8 9 9 10 10 10 10 10 11 11 11 11 12 12 12 12 12 12 12 12 11 11 11 11 10 11 11 11 11 11 11 12 12 12 12 13 13 13 13 13 13 12
4 5 5 6 6 7 8 8 9 9 10 10 10 10 10 10 10 10 11 11 11 11 10 10 9 9 10 10 9 10 10 10 10 11 11 12 12 13 13 13 12 12 11

GEFSMW_500_meanwind_078.txt.gz
Wind_Speed
30 30 32 35 35 35 35 35 33 32 31 31 30 29 27 28 30 30 29 28 28 29 29 28 29 28 28 28 28 27 27 27 28 28 28 28 29 29 30 30 31 31 31
29 29 32 33 34 34 35 35 34 33 32 31 30 27 28 28 26 26 27 27 27 28 28 28 28 29 30 29 29 30 30 30 31 31 31 30 31 31 31 32 32 32 32
29 30 32 32 32 34 34 35 34 34 33 32 31 28 25 23 23 23 24 24 26 26 28 29 29 29 30 31 31 32 32 32 32 32 33 33 33 32 32 33 34 34 34
28 30 31 31 31 33 34 34 34 34 32 31 29 28 25 24 23 23 22 24 25 24 25 26 28 28 30 31 32 32 32 32 33 34 35 35 34 34 34 34 35 35 36
26 27 29 31 33 33 34 34 34 34 31 30 29 28 27 24 23 21 21 22 23 24 23 24 26 29 31 32 32 32 33 33 34 34 35 35 35 36 37 36 36 37 38
24 26 28 29 31 32 33 33 35 35 31 30 30 29 28 25 23 22 21 22 23 23 23 24 25 28 31 32 33 34 34 35 36 35 35 36 36 37 38 38 38 39 39
22 24 27 29 30 31 31 32 34 34 32 30 30 29 28 26 24 22 22 22 22 22 23 24 26 28 29 31 33 34 35 36 35 35 36 36 37 39 39 39 39 40 40
21 23 24 26 28 29 29 31 32 32 31 30 28 28 28 26 24 23 21 21 22 23 23 25 26 27 29 30 32 34 35 35 34 35 35 36 37 36 37 38 38 39 40
20 21 22 24 25 26 26 28 29 29 29 29 28 28 27 25 23 23 22 22 23 24 25 25 26 27 28 29 31 33 34 34 34 34 34 35 35 36 37 37 38 39 40
20 20 21 22 23 24 23 25 26 27 27 27 27 27 26 24 24 24 24 23 24 24 25 26 26 26 27 27 28 30 32 33 33 33 32 33 33 34 36 37 38 40 42
19 20 21 21 21 21 22 23 24 25 25 26 26 26 25 24 24 25 25 24 24 24 25 25 25 25 26 27 28 29 30 30 31 31 31 32 33 34 35 37 38 39 41
18 18 19 20 21 21 22 23 24 25 25 25 25 25 25 25 25 25 25 24 24 24 24 24 24 25 26 26 27 27 28 28 28 29 30 31 33 34 35 36 38 39 41
18 18 18 19 21 23 23 24 25 25 25 25 26 26 26 25 25 25 25 25 25 24 24 24 25 25 25 26 26 26 27 27 28 29 30 32 33 34 35 37 38 39 40
17 18 18 19 20 21 23 23 24 25 26 26 26 26 27 27 27 26 26 26 26 25 25 25 26 26 26 27 27 27 28 27 28 30 31 32 33 34 35 37 38 39 40
17 17 18 19 20 21 22 22 22 23 25 26 26 26 26 27 27 27 26 27 27 27 27 27 27 27 27 27 27 28 28 28 29 30 31 32 33 34 35 36 36 37 38
18 18 19 20 21 21 22 22 22 23 24 24 25 26 26 26 25 25 26 26 26 27 27 27 27 27 27 27 27 27 27 27 28 29 31 31 32 33 33 34 34 35 35
19 20 20 20 21 22 22 22 23 23 23 23 24 24 25 26 25 25 24 25 25 25 25 25 25 25 25 25 26 26 27 27 27 28 29 30 31 31 31 32 32 32 32
20 20 21 21 21 21 21 21 21 21 22 23 24 23 24 24 24 24 25 24 24 24 25 25 24 25 25 24 24 24 25 26 26 27 28 28 28 28 29 29 29 29 29
19 19 20 19 18 18 18 19 20 20 20 21 21 22 22 22 22 23 24 23 23 23 23 23 23 23 23 22 22 23 24 24 25 26 26 26 26 26 27 27 26 26 26
18 18 17 17 17 16 16 16 17 17 18 18 19 19 20 20 20 20 20 21 21 21 20 20 20 20 20 21 21 22 22 23 24 24 24 24 24 24 24 24 24 23 23
18 17 16 15 16 15 15 14 14 15 15 16 16 16 17 17 17 18 19 19 19 19 19 19 19 19 19 20 20 21 21 22 22 22 22 21 21 21 21 21 21 21 20
17 15 15 14 14 14 14 14 14 14 14 14 14 15 15 15 16 17 17 17 17 18 18 17 17 18 18 18 19 19 19 19 19 19 19 19 19 19 19 19 19 18 18
13 13 12 12 12 12 12 12 13 13 13 13 13 14 14 14 14 15 15 15 15 15 15 16 16 16 16 16 17 17 17 17 17 17 17 17 18 18 17 17 17 16 16
11 10 10 10 9 9 10 10 10 11 12 12 12 12 12 12 12 12 13 13 13 13 14 14 14 14 14 15 15 15 15 15 15 16 16 16 16 16 16 16 16 16 16
9 9 8 7 7 8 8 8 9 10 10 10 10 11 11 11 11 11 11 11 11 11 11 11 12 12 13 13 13 13 14 14 14 14 14 15 15 15 15 15 15 14 14
8 7 8 7 7 7 8 7 7 8 8 9 9 9 9 9 9 9 9 9 9 9 10 10 11 11 12 11 11 12 12 13 13 13 13 13 13 13 13 13 13 13 13

GEFSMW_500_meanwind_084.txt.gz
Wind_Speed
30 30 30 31 32 33 32 31 31 31 30 30 31 32 30 29 27 28 29 30 31 32 31 32 32 32 30 29 28 28 27 27 26 26 26 25 25 25 25 25 26 26 27
29 31 31 31 32 31 31 32 30 29 30 30 30 30 30 29 29 29 29 28 27 28 30 30 31 31 31 30 29 29 29 29 28 27 27 27 27 28 28 27 28 29 29
26 28 30 31 30 30 30 30 29 28 28 29 29 29 29 29 29 27 27 27 27 27 30 30 30 30 30 30 29 29 28 28 28 29 29 29 29 29 29 29 30 30 30
25 26 28 28 29 29 28 27 27 26 27 29 30 30 29 29 27 26 26 26 24 26 26 27 27 29 28 29 29 29 28 29 29 30 30 30 31 31 31 31 32 31 32
23 24 25 26 26 26 25 26 26 26 26 28 28 28 29 28 27 26 25 23 23 24 24 23 24 25 25 26 27 28 28 28 28 29 30 31 32 32 32 32 32 33 33
22 22 23 23 24 24 25 25 25 26 26 27 27 28 28 27 26 25 24 24 23 22 21 22 23 23 23 24 25 26 27 28 28 29 30 30 31 31 32 32 33 34 34
20 20 21 21 21 21 22 23 24 25 25 26 26 27 28 26 25 25 24 23 22 21 20 20 20 21 21 22 23 25 26 27 28 29 29 30 30 31 32 33 34 35 35
19 20 20 20 20 20 20 21 22 23 24 24 25 26 26 25 24 24 23 22 21 21 20 19 20 20 20 21 21 23 25 26 28 29 29 30 31 31 32 33 34 34 34
17 17 18 19 19 19 19 19 21 22 22 21 22 23 23 23 22 22 22 22 22 21 19 20 19 19 19 20 21 22 23 24 25 27 28 29 30 31 32 33 33 33 33
14 15 16 17 17 17 17 18 18 19 20 20 20 20 20 20 21 21 21 22 21 19 19 20 20 19 20 20 20 21 22 24 25 26 27 28 29 30 30 31 31 31 32
14 15 15 15 15 15 15 16 17 17 17 18 18 18 18 19 19 20 20 19 19 18 19 20 20 20 20 20 20 21 22 23 24 25 25 26 27 27 28 28 29 30 31
14 13 14 14 13 14 15 16 16 16 16 17 17 18 18 19 19 19 19 18 18 18 18 19 20 20 19 19 20 21 22 22 23 23 24 25 26 26 27 27 28 29 30
14 14 13 13 13 13 14 15 16 16 16 17 18 18 19 19 19 19 19 19 18 18 18 19 20 20 20 20 20 21 21 21 22 22 23 24 24 25 26 27 28 29 30
15 14 14 14 14 14 13 14 15 16 16 17 18 18 18 19 19 20 20 20 20 20 20 20 20 20 20 20 20 21 21 21 22 22 23 24 24 25 26 27 28 29 31
16 16 16 15 15 15 15 15 15 16 16 16 16 18 19 20 21 21 20 20 21 22 22 22 21 21 21 21 21 21 22 22 22 22 22 23 24 25 26 27 28 29 30
17 17 16 16 16 16 16 17 17 17 17 17 18 18 18 19 19 20 20 20 20 21 22 22 22 22 21 21 21 22 22 22 22 22 22 23 24 25 25 27 27 28 28
18 17 17 17 17 17 17 17 17 17 18 18 18 18 19 18 18 18 20 21 20 20 20 20 20 20 21 21 21 21 21 21 21 22 22 22 23 24 25 26 26 27 27
18 18 18 17 18 17 17 17 17 17 17 18 18 18 19 19 19 19 19 19 19 19 19 19 19 19 19 19 20 20 20 20 20 21 21 22 23 24 24 24 25 25 26
18 18 18 17 17 16 16 16 17 17 17 17 17 17 18 17 17 18 19 19 19 19 18 18 18 19 19 19 19 19 18 19 20 21 21 22 22 23 23 22 23 23 24
18 17 16 16 16 15 14 15 15 15 15 15 15 16 16 16 16 16 17 17 17 17 16 17 17 17 18 18 17 17 18 18 19 20 20 20 20 21 21 21 21 22 22
16 15 14 13 12 12 11 11 11 11 12 12 13 14 14 14 14 14 14 15 16 16 15 15 16 16 16 16 17 17 17 18 18 18 19 19 19 19 19 19 19 19 19
13 13 11 10 10 9 9 9 9 9 9 10 10 10 11 11 11 11 12 13 14 15 15 15 15 15 16 16 16 16 17 17 17 17 18 18 18 17 17 17 17 17 17
11 10 8 7 7 7 7 7 8 8 9 8 9 9 10 10 11 11 12 12 12 12 13 13 14 14 15 15 15 15 16 16 15 15 15 16 15 15 15 15 15 15 14
9 7 6 5 5 5 6 6 6 6 7 8 8 9 9 9 9 10 10 10 9 10 11 11 11 11 12 12 12 13 13 13 13 14 14 14 13 13 14 13 13 13 13
7 6 5 5 4 4 4 5 5 6 6 6 7 8 8 8 8 8 8 7 7 7 8 8 8 8 9 9 10 11 11 11 11 12 12 12 12 12 12 12 12 12 12
6 5 4 4 3 2 2 2 2 3 4 5 5 6 6 6 6 6 6 6 6 6 6 6 6 6 7 8 8 9 9 9 9 9 10 10 10 10 10 10 10 11 11

GEFSMW_500_meanwind_090.txt.gz
Wind_Speed
23 24 25 26 27 28 29 29 30 30 30 31 31 32 32 33 33 32 32 32 32 32 32 33 33 34 34 32 32 32 31 30 30 29 28 28 26 26 25 25 25 25 25
25 25 24 25 25 25 26 27 28 29 30 29 30 31 31 31 31 32 32 32 32 31 32 32 31 33 33 33 33 32 32 31 31 31 30 29 28 28 28 27 27 26 27
25 25 25 25 25 25 25 26 27 27 28 28 28 29 30 31 29 31 32 31 32 31 31 31 30 31 32 33 35 35 35 34 33 32 31 30 30 30 30 29 29 29 29
24 24 24 24 24 24 24 24 24 25 26 26 26 26 27 28 30 29 29 28 27 27 29 30 31 31 30 31 33 34 34 34 33 33 33 32 31 30 31 30 30 31 31
22 23 23 23 22 22 21 21 21 22 23 24 25 25 26 26 27 28 28 27 26 26 28 29 29 30 30 30 30 32 32 33 33 33 33 32 32 32 32 32 32 32 32
21 21 21 21 21 20 20 20 20 21 22 22 22 23 24 25 26 26 27 27 26 26 27 28 28 28 28 29 29 30 31 32 33 32 32 33 33 32 32 31 31 32 32
19 19 19 19 19 18 19 20 20 20 20 20 20 20 21 22 24 25 26 26 26 26 26 27 27 25 26 26 27 29 30 30 31 32 33 33 34 32 32 32 32 32 32
17 17 17 17 17 17 18 19 19 20 20 19 19 19 20 20 22 23 24 24 24 24 24 24 24 24 24 25 26 27 28 29 30 30 31 32 33 32 31 32 32 33 33
16 17 17 17 16 17 17 18 18 19 20 20 19 19 19 20 21 22 23 23 23 23 23 24 24 24 24 24 24 25 26 28 29 29 30 31 31 32 31 31 31 31 31
16 16 16 16 16 16 17 17 17 18 19 19 19 19 19 20 20 21 22 22 22 23 23 23 23 22 23 23 24 25 26 27 28 28 28 28 28 29 30 30 30 30 31
16 15 15 16 16 16 16 17 17 17 18 19 19 20 20 19 20 21 21 21 22 23 23 23 22 22 22 22 23 24 25 25 26 26 26 26 27 27 28 28 29 30 29
17 17 17 18 17 17 17 17 18 18 18 19 20 20 20 20 20 20 20 21 21 21 22 22 22 22 22 21 22 23 23 24 24 24 24 25 26 27 27 27 27 28 29
19 18 19 18 18 18 19 19 18 18 18 19 20 20 20 20 20 21 21 21 21 22 22 22 22 22 21 20 20 20 21 21 21 22 23 24 25 25 25 25 26 27 27
20 19 20 20 20 20 20 19 19 18 18 19 20 20 21 21 21 21 22 22 23 23 22 23 23 22 22 21 21 21 21 21 21 22 23 23 23 23 24 25 25 26 26
21 21 21 21 21 21 20 20 19 19 19 19 20 20 21 21 21 22 22 22 22 23 22 22 22 22 22 22 22 23 22 22 22 22 22 22 22 23 23 24 24 24 25
23 23 23 23 22 22 22 21 20 20 20 20 20 21 21 21 22 23 22 22 22 22 23 22 23 23 23 23 23 23 22 22 22 22 22 23 23 23 23 23 23 24 25
25 24 23 23 22 22 21 21 21 21 21 21 21 21 21 21 21 21 21 21 21 20 21 21 21 21 21 22 22 21 21 21 21 21 22 21 21 22 22 23 23 24 25
24 24 23 23 22 21 21 21 21 21 21 20 20 20 20 20 21 21 21 20 19 20 19 19 19 19 19 20 20 21 21 21 21 21 21 21 21 22 22 22 22 23 24
24 23 22 22 21 21 21 20 20 20 19 18 18 18 19 20 19 19 19 19 20 20 19 19 18 18 18 18 18 19 19 20 20 20 20 21 21 21 21 22 22 23 24
22 22 21 21 20 19 19 18 18 18 17 17 17 17 17 18 17 17 17 17 17 17 18 18 17 17 17 17 17 17 17 18 18 19 19 20 20 20 21 21 22 23 23
21 20 20 19 18 17 16 16 16 15 15 15 14 14 15 16 16 16 16 15 15 15 16 16 17 17 17 16 17 16 16 17 18 19 20 19 19 20 20 21 21 21 22
19 18 17 16 15 15 14 13 12 12 12 12 12 12 12 12 13 13 13 14 14 13 14 15 15 15 16 16 15 16 17 17 18 19 19 19 19 19 20 20 20 21 20
17 16 14 13 13 12 11 10 10 9 9 9 9 10 9 9 10 10 11 11 12 13 13 13 13 13 14 14 14 14 16 16 17 18 18 18 18 18 19 19 18 18 18
14 13 11 11 10 9 8 8 7 7 7 7 7 8 8 8 8 9 10 9 10 10 11 11 11 11 11 12 12 13 13 15 15 16 16 17 17 17 16 16 16 15 15
11 10 9 8 7 6 5 5 5 5 5 5 6 6 6 7 7 7 8 8 7 8 8 9 9 10 10 10 11 11 12 12 12 13 14 14 14 13 13 13 13 13 12
9 7 6 5 4 3 3 3 3 3 4 4 5 5 6 7 6 6 6 6 6 6 6 6 6 7 7 7 7 8 9 9 10 11 11 11 11 11 10 10 10 10 11

GEFSMW_500_meanwind_096.txt.gz
Wind_Speed
23 24 25 26 26 27 27 28 28 28 29 30 31 32 32 33 32 32 32 31 32 33 32 32 34 34 32 33 32 32 32 31 30 31 31 29 29 29 29 28 28 28 27
23 23 24 25 26 26 27 28 29 28 29 30 31 33 33 34 34 33 33 32 32 32 32 32 33 34 33 33 33 33 33 33 33 32 32 32 31 31 31 31 30 30 29
22 23 24 25 25 26 27 27 28 27 28 29 30 31 31 32 32 33 33 32 32 32 33 32 33 35 35 34 34 34 33 34 34 33 33 33 34 33 33 33 32 32 31
21 21 22 23 24 25 26 26 26 27 28 28 29 30 30 31 32 32 32 32 31 31 32 32 33 34 35 35 35 34 35 34 34 34 33 33 34 34 35 34 33 34 33
20 20 21 22 22 23 24 24 25 26 27 27 27 28 29 30 31 31 31 31 31 31 32 32 33 34 35 35 34 34 34 33 33 34 33 33 34 35 34 34 34 34 34
19 19 19 20 20 21 22 23 24 24 25 25 26 27 27 28 29 30 30 30 31 31 32 32 32 33 33 33 32 33 33 33 32 33 34 34 34 33 34 34 34 35 35
17 18 19 19 19 19 20 21 22 22 23 23 24 25 25 25 26 27 27 28 29 31 31 32 32 33 32 32 31 32 33 33 32 32 33 34 33 33 34 34 34 34 35
17 17 16 17 17 18 19 20 21 21 22 22 22 23 24 24 23 24 25 26 27 28 29 31 31 32 32 31 30 30 31 31 32 32 33 34 34 35 34 34 35 36 36
16 15 15 16 17 17 18 19 20 20 20 21 21 22 22 23 22 22 23 24 25 27 28 29 30 31 31 32 31 30 30 31 31 31 33 33 34 35 34 34 35 35 36
16 16 16 16 17 18 18 19 19 19 18 19 20 20 21 22 22 22 23 24 24 25 26 27 28 29 30 31 30 29 28 29 29 30 31 32 33 33 33 34 35 36 36
17 17 17 17 17 18 19 19 19 19 19 20 20 21 21 21 22 22 23 24 24 25 25 26 26 27 28 28 28 28 28 28 28 28 28 29 30 30 31 32 33 33 33
18 18 18 18 18 18 19 20 20 21 21 21 21 21 21 22 22 22 22 22 23 24 25 25 25 26 27 27 27 27 27 28 27 27 27 27 28 29 30 30 31 31 31
20 20 20 20 20 21 21 22 22 22 22 22 22 22 22 22 22 22 22 22 23 23 23 24 24 25 25 25 25 25 26 27 26 26 26 26 27 26 27 28 28 28 28
21 22 22 22 23 23 23 23 23 23 23 23 23 23 23 23 23 23 23 23 23 23 23 23 23 23 24 23 24 24 24 24 24 24 24 24 25 25 25 26 26 26 26
23 23 23 23 24 24 24 24 24 24 24 24 23 23 23 24 23 23 24 24 24 23 23 23 23 23 22 22 22 23 23 23 23 23 23 23 24 25 25 25 25 25 25
24 25 25 25 25 25 25 24 24 25 25 25 24 23 23 24 24 24 24 23 23 23 23 23 23 23 23 23 22 22 22 22 22 23 23 23 23 22 23 23 24 24 23
26 27 27 26 26 25 25 24 24 24 24 24 24 24 23 23 23 23 22 22 22 22 22 23 23 22 22 22 22 22 21 21 21 21 21 20 21 21 20 21 21 21 22
26 26 26 25 25 24 23 23 23 22 22 22 23 23 22 22 21 21 21 21 20 20 21 20 19 19 19 19 18 18 18 18 18 18 18 18 18 18 18 19 20 20 20
26 25 25 24 23 22 22 21 21 20 20 20 20 20 20 19 19 19 19 19 18 17 17 16 15 16 15 15 15 15 15 14 15 16 16 17 17 17 18 18 18 19 19
24 24 24 22 21 21 20 19 19 19 18 17 16 16 16 16 16 16 16 16 16 15 15 15 14 13 12 13 13 13 13 13 14 14 15 15 16 17 17 17 18 18 19
22 22 21 20 19 19 18 17 17 15 14 14 14 13 12 12 12 12 13 13 13 13 12 12 11 11 11 11 11 11 12 12 13 14 14 15 16 16 16 17 17 18 19
20 19 18 18 17 17 16 14 13 11 10 10 10 9 10 10 10 9 10 10 11 11 10 11 10 10 10 10 10 10 10 10 11 12 13 13 14 15 15 16 16 17 17
18 17 17 16 15 14 13 10 9 8 7 7 7 7 8 8 8 8 8 9 9 10 9 8 8 8 8 7 8 8 8 9 9 10 11 12 13 14 14 15 15 15 15
16 15 14 13 12 11 9 7 6 5 4 4 5 6 6 6 6 6 7 8 7 7 7 7 7 7 7 6 6 6 6 7 8 9 10 11 12 12 12 13 13 12 12
14 13 12 11 9 7 6 4 3 2 3 3 4 4 5 7 6 6 6 6 6 6 6 6 5 5 5 5 5 6 5 6 7 8 9 9 10 10 10 10 10 10 9
12 10 9 7 6 4 2 1 0 1 2 3 3 3 5 6 6 6 6 6 5 5 4 5 5 4 4 4 4 4 4 5 5 6 7 7 7 7 7 7 6 7 7

GEFSMW_500_meanwind_102.txt.gz
Wind_Speed
22 23 24 24 24 25 26 26 27 28 29 29 30 30 30 30 31 31 31 32 32 33 33 33 32 32 31 31 31 30 30 31 31 31 30 30 30 30 29 28 28 28 28
20 21 23 23 24 25 26 27 28 28 29 30 31 31 31 31 31 31 32 32 32 32 32 33 32 32 32 31 31 30 31 32 32 32 32 31 31 31 30 30 29 30 30
21 22 23 23 23 24 26 27 28 28 29 30 31 31 32 33 33 32 32 33 33 34 33 33 33 33 32 31 31 31 31 31 32 32 32 32 32 32 31 32 31 31 32
21 21 22 23 23 24 25 26 26 27 28 29 30 31 32 33 33 33 33 33 34 33 34 34 34 32 32 31 32 32 32 32 33 33 33 33 33 33 33 33 33 33 33
20 20 21 22 23 24 24 24 25 25 26 28 29 29 30 31 32 31 32 32 32 33 34 34 34 34 32 32 32 32 32 33 33 33 33 33 33 33 33 33 33 34 34
19 19 20 22 23 23 24 23 24 25 26 27 27 28 29 30 30 30 31 32 32 33 34 34 34 33 33 33 33 33 33 33 32 33 35 35 35 33 33 32 32 33 34
19 20 20 21 21 22 22 22 23 24 24 26 26 26 27 27 28 28 29 30 31 32 32 32 32 32 32 33 33 33 33 33 33 32 34 35 35 33 33 33 33 33 33
19 20 20 20 20 21 21 21 21 22 23 24 25 26 26 26 26 27 27 28 28 29 30 30 30 31 31 31 32 33 33 33 33 33 32 33 33 32 31 32 32 33 34
19 19 20 21 21 21 22 21 22 22 22 22 22 22 23 24 25 25 25 25 26 26 26 27 28 29 29 29 29 30 30 31 32 32 32 32 32 32 31 31 32 32 32
20 20 20 21 22 22 21 21 22 21 21 21 21 21 22 22 22 23 24 25 25 26 26 26 26 26 27 27 27 28 29 29 30 30 31 31 31 31 30 30 31 32 33
21 21 22 22 23 22 22 22 22 21 21 21 21 22 22 22 22 23 23 23 24 23 23 24 24 25 25 25 26 27 28 29 29 28 29 30 30 30 30 30 30 31 31
23 23 24 24 24 23 23 22 22 22 22 22 22 23 23 23 23 23 23 23 23 22 22 23 23 24 24 24 25 26 26 26 27 27 28 28 29 28 29 29 28 29 29
24 25 25 25 25 24 24 23 23 23 23 23 23 24 24 23 23 23 23 23 23 22 22 22 22 23 23 23 23 24 24 24 24 24 24 25 26 27 27 26 26 25 25
26 26 26 26 26 25 25 25 25 24 24 25 24 24 24 24 23 23 23 23 23 23 22 23 23 22 22 22 22 22 23 22 22 22 22 22 23 24 24 24 24 24 24
26 26 26 26 26 26 26 26 26 26 26 26 25 25 24 24 24 24 23 23 23 24 24 23 23 22 21 21 20 20 21 21 21 21 20 20 21 22 21 22 22 23 23
27 27 26 27 27 27 26 26 26 26 26 26 25 25 24 24 24 24 24 23 23 23 23 23 22 21 21 20 19 19 19 19 19 19 20 19 19 20 20 20 19 19 20
26 26 26 26 27 26 27 27 27 26 26 25 24 24 23 23 23 23 23 23 23 23 22 22 21 20 20 20 19 18 18 18 18 18 19 19 19 19 19 18 19 18 19
26 26 26 26 26 26 26 26 26 25 24 23 22 21 21 21 21 21 21 21 22 21 20 20 18 18 18 18 18 17 17 17 17 18 19 18 17 17 17 17 17 18 18
26 26 26 26 26 25 25 24 24 23 22 21 20 20 19 19 19 18 18 18 17 17 17 17 16 16 15 16 15 15 14 14 14 14 14 14 14 15 15 16 16 16 16
24 24 24 24 24 24 23 23 22 20 20 19 18 18 17 17 16 16 15 15 14 14 14 13 13 13 13 12 11 11 12 12 11 10 10 10 10 11 12 13 14 14 14
23 22 22 22 22 21 21 20 19 18 17 16 16 15 14 13 13 12 12 11 11 10 10 9 9 9 9 9 8 7 7 8 8 8 9 10 10 10 10 11 12 13 13
21 20 20 20 19 19 18 17 16 15 14 13 12 12 11 10 10 9 8 7 8 9 9 8 8 8 7 7 8 7 6 6 6 7 7 8 8 9 10 10 10 10 10
19 19 19 18 17 16 15 14 13 12 11 10 10 9 9 8 8 7 6 6 7 7 7 7 6 4 4 5 7 7 6 7 7 7 6 6 6 7 8 8 8 8 8
17 16 16 15 14 13 12 11 11 9 8 7 7 6 5 5 5 5 5 5 5 5 5 5 5 4 4 5 4 5 5 5 5 5 5 5 5 5 5 6 6 7 7
14 14 13 12 11 10 9 8 7 6 5 4 3 3 3 3 3 3 3 3 3 3 3 3 4 4 4 4 4 4 3 3 3 2 2 2 3 3 4 4 5 5 5
13 12 11 10 8 7 7 6 5 3 2 1 1 1 2 2 2 2 2 2 3 2 2 3 3 4 3 3 4 3 2 2 1 0 0 1 2 2 3 3 3 3 3

GEFSMW_500_meanwind_108.txt.gz
Wind_Speed
9 11 12 13 15 16 16 16 16 16 18 19 19 21 23 24 24 25 26 26 26 26 26 26 27 27 27 28 28 27 27 27 27 26 27 27 27 28 27 27 27 27 26
10 11 12 13 15 17 18 17 17 18 18 19 21 22 24 25 26 26 27 27 27 27 28 27 28 28 28 28 28 28 28 27 27 27 26 27 27 28 29 28 27 27 26
11 13 13 13 15 17 18 18 18 19 19 20 21 22 23 24 25 26 27 28 28 28 28 28 28 28 29 29 29 29 28 28 27 28 27 27 27 28 28 28 27 28 28
12 12 12 13 15 16 17 18 19 19 20 20 22 22 23 24 26 26 27 28 28 29 29 29 29 29 29 29 30 30 29 29 29 29 28 28 27 27 27 28 28 28 28
12 13 13 14 15 16 17 18 18 19 20 21 22 23 24 25 26 26 27 27 28 28 28 29 29 29 28 29 29 30 30 30 30 29 29 28 28 27 28 28 28 28 28
12 13 14 15 16 16 17 18 18 19 19 20 21 22 23 24 24 25 25 26 26 27 27 28 28 29 29 29 29 30 30 30 29 29 30 29 29 29 29 29 30 29 29
12 13 14 16 16 17 17 18 18 19 19 20 20 21 21 22 23 24 24 25 25 25 26 27 27 28 28 28 28 29 29 29 29 29 30 30 30 30 29 30 30 30 30
13 14 15 16 16 17 17 18 19 19 20 20 21 21 21 22 22 22 23 23 24 24 25 25 26 26 27 27 28 27 27 28 28 28 29 30 30 30 30 30 30 30 30
13 14 15 16 17 18 18 19 20 21 21 21 21 21 21 21 21 21 22 22 22 23 23 24 24 25 25 25 26 25 25 26 26 26 27 28 29 30 31 30 30 30 30
15 15 16 17 19 20 20 21 21 21 21 21 21 21 21 21 21 21 21 21 22 22 22 22 23 22 22 23 23 23 23 24 25 26 27 27 28 28 29 29 29 29 29
16 17 18 20 21 21 22 22 22 22 22 22 22 22 22 22 22 22 22 22 22 22 22 22 22 22 21 21 21 22 23 23 24 24 25 26 27 27 27 28 28 28 28
17 18 20 21 22 23 23 23 23 23 23 23 23 23 23 23 23 22 22 22 22 22 22 21 22 22 22 21 21 21 22 22 23 23 24 24 26 26 26 27 27 26 26
18 20 22 23 23 24 24 24 24 24 24 24 24 24 24 24 23 23 22 22 22 22 22 22 22 22 22 22 21 22 22 22 22 22 22 23 24 24 25 25 25 24 24
21 23 23 23 24 24 25 25 25 25 25 25 25 25 24 24 24 23 23 23 23 23 23 22 22 23 22 22 22 22 22 22 22 22 23 23 23 23 23 22 22 23 23
23 23 24 24 25 25 25 25 25 25 25 25 25 25 25 25 25 24 24 24 23 24 24 23 23 22 22 22 22 21 21 20 20 20 20 21 21 20 20 20 20 21 21
24 25 25 25 26 25 25 26 26 25 25 25 25 25 24 24 24 24 24 23 23 23 23 23 23 22 22 21 21 20 20 19 18 18 17 17 17 18 19 19 19 19 19
25 25 25 25 26 25 25 25 25 25 24 23 23 23 23 23 23 23 22 22 21 21 21 21 21 21 20 20 19 19 18 18 17 16 16 16 15 16 16 17 17 18 18
24 24 23 23 23 23 23 23 23 23 22 22 21 22 22 22 21 21 21 20 19 19 19 19 18 18 18 17 17 16 16 15 14 14 14 14 13 14 15 15 16 16 16
23 23 22 22 22 22 22 22 22 21 21 20 20 20 20 19 19 19 18 17 16 16 16 16 15 15 16 16 15 14 14 13 12 12 12 12 12 13 14 14 14 14 14
21 21 21 21 21 21 21 21 20 20 20 19 19 18 17 17 16 15 14 14 14 13 13 13 13 13 13 13 13 12 11 11 10 9 9 9 8 9 11 11 11 11 11
20 20 19 19 19 19 19 19 18 17 17 16 16 16 15 14 14 12 11 11 11 10 10 10 9 8 8 9 9 9 8 8 8 8 7 6 6 7 8 8 9 9 9
19 18 18 17 17 17 16 16 15 14 14 14 13 13 11 10 10 9 8 8 8 8 7 6 5 5 6 6 7 7 7 7 7 7 6 6 6 6 6 7 7 7 7
17 17 16 15 14 13 13 13 12 11 10 10 9 8 7 7 6 5 5 5 4 4 4 4 4 5 6 7 7 7 7 7 6 5 5 5 5 5 5 5 4 4 4
15 15 14 13 11 11 11 9 8 7 6 5 4 4 4 3 3 2 2 2 2 2 2 2 4 5 6 7 7 6 6 5 5 5 4 4 4 4 4 3 3 2 2
13 12 11 10 9 8 7 6 6 5 4 4 3 2 2 1 0 0 1 2 2 2 3 3 5 6 7 6 5 6 6 5 5 5 5 5 5 5 5 5 4 4 3
11 10 9 8 8 7 6 6 5 5 4 4 3 2 2 3 3 4 4 4 4 5 6 6 6 7 6 6 6 6 6 7 7 6 6 7 7 6 6 6 6 5 5

GEFSMW_500_meanwind_114.txt.gz
Wind_Speed
12 12 11 11 10 9 8 9 10 11 12 13 14 16 18 20 21 22 23 24 24 25 25 26 27 28 28 28 28 28 29 28 28 28 28 29 29 27 27 27 27 26 26
13 13 12 11 10 10 10 10 10 11 12 14 15 17 19 20 21 22 23 24 26 26 27 27 28 29 29 28 29 30 30 30 30 30 30 30 30 29 28 28 28 28 27
12 13 13 12 12 12 12 11 11 12 13 15 15 17 18 19 21 23 24 25 25 26 27 28 29 29 29 29 29 30 30 30 30 30 30 30 30 30 28 29 29 29 29
13 14 13 13 13 13 13 13 13 13 14 15 15 17 18 20 21 23 23 24 25 25 27 28 30 30 30 30 31 31 31 31 31 31 31 31 31 31 29 28 29 28 28
15 15 14 14 14 14 14 14 14 14 14 15 16 17 18 20 21 23 24 24 25 26 27 29 30 30 30 30 31 31 31 31 31 31 31 31 30 30 29 29 29 29 29
15 15 15 15 15 15 16 16 16 16 16 16 17 18 18 19 20 22 23 24 25 26 27 29 29 29 29 30 30 31 31 31 31 31 31 31 31 31 31 30 29 29 28
14 15 16 16 17 17 17 17 17 17 18 18 19 19 20 21 21 22 23 23 24 26 26 27 28 29 29 29 30 30 31 31 31 31 31 31 31 31 31 31 30 30 29
14 16 17 17 18 18 18 18 18 19 19 20 20 20 21 22 22 22 23 24 24 25 25 26 27 28 28 28 29 30 30 30 31 31 30 30 31 31 31 31 31 31 30
17 18 18 19 19 19 20 20 21 21 21 21 22 22 22 22 23 23 24 24 24 24 25 26 26 27 27 27 28 28 29 29 29 29 29 29 30 31 32 31 31 31 31
19 20 19 19 19 20 21 22 22 23 23 23 23 23 23 24 24 24 24 24 24 24 25 25 25 26 26 27 27 27 28 28 29 29 28 28 29 30 30 30 30 30 31
20 21 20 20 20 21 23 24 24 24 25 25 25 25 25 25 25 25 25 25 25 25 25 26 26 26 27 27 27 27 27 27 27 27 27 27 28 28 28 29 30 30 30
20 21 21 21 22 22 24 25 25 26 26 26 26 26 26 26 26 26 26 25 25 25 25 26 26 26 26 26 26 26 26 26 26 25 26 26 27 27 28 29 29 30 30
18 20 21 22 23 23 25 26 26 26 27 27 27 26 26 26 26 26 26 25 25 24 24 25 25 26 26 27 27 26 26 25 25 25 26 26 26 26 27 27 27 28 28
20 21 21 22 23 25 26 27 26 27 27 26 26 26 27 27 26 26 25 25 25 25 25 25 25 26 26 26 26 26 25 25 25 25 25 25 25 25 26 27 27 27 27
22 23 23 23 24 25 26 26 26 26 26 26 25 25 25 25 25 25 25 25 25 25 25 25 26 26 26 26 26 25 24 24 24 24 24 24 24 25 25 25 25 26 26
23 24 23 23 24 24 25 26 26 26 25 24 25 25 25 25 24 24 25 25 24 25 24 25 25 25 25 25 25 24 24 23 23 23 22 22 21 22 22 22 22 23 23
24 23 23 23 23 24 24 24 24 24 23 23 23 23 24 24 23 23 23 23 23 23 23 23 22 22 22 22 23 23 22 22 21 20 19 18 18 18 18 19 19 19 20
22 21 23 23 22 23 23 22 22 22 21 22 22 22 22 22 22 22 22 21 21 20 20 20 21 21 20 20 21 21 20 20 20 19 18 17 17 17 16 17 17 18 18
20 21 21 21 21 21 21 21 21 22 22 21 22 22 22 21 21 20 19 19 18 18 18 18 18 18 18 19 19 19 19 19 18 17 17 17 16 16 15 15 15 15 15
19 19 20 19 19 20 20 20 20 20 19 19 19 19 19 19 18 18 17 17 17 16 15 15 15 15 15 16 16 16 16 16 15 15 14 14 13 13 13 13 12 12 12
18 18 18 18 18 18 18 18 18 17 17 17 17 16 16 15 15 15 15 14 13 13 12 11 11 11 11 12 12 12 12 12 12 12 12 11 11 10 10 10 9 9 9
18 17 16 16 16 15 15 15 15 14 14 14 13 13 13 12 12 11 10 10 9 9 8 8 8 7 7 7 8 8 9 9 9 9 9 9 9 8 7 7 7 7 7
16 15 15 14 13 13 13 13 12 11 11 10 9 10 9 9 8 7 7 7 6 6 5 4 4 5 5 5 5 5 6 6 6 6 6 6 7 7 7 7 6 5 4
14 13 12 11 11 11 10 10 9 9 8 8 7 7 6 6 5 4 4 4 3 3 2 2 2 3 5 4 4 4 4 4 4 5 6 6 5 6 6 6 6 5 5
12 11 10 9 9 8 8 7 7 7 6 5 5 4 4 3 3 2 1 1 0 1 1 2 2 3 3 4 4 4 5 5 5 6 6 7 7 7 8 8 7 7 6
11 10 9 8 7 6 6 5 5 4 3 3 2 3 2 3 3 3 3 3 3 3 4 4 5 5 4 5 5 5 6 7 7 8 8 9 9 9 9 9 8 8 8

GEFSMW_500_meanwind_120.txt.gz
Wind_Speed
15 15 16 17 17 17 18 18 19 18 18 18 19 21 22 23 25 25 25 26 27 28 28 27 28 28 28 28 29 30 29 29 29 29 28 28 28 27 27 27 27 27 27
15 15 16 16 17 17 16 16 17 17 17 18 19 21 22 23 24 25 26 26 26 26 26 27 28 28 28 29 29 29 30 29 29 30 30 29 28 28 28 28 28 28 28
16 16 16 16 16 16 16 15 16 16 17 17 19 21 22 22 23 25 25 26 27 27 27 28 28 29 29 29 30 29 30 30 30 30 30 29 29 29 29 29 29 29 29
17 17 17 17 17 16 16 16 16 16 17 17 17 19 20 21 22 23 24 25 26 26 27 28 29 29 29 29 29 30 30 30 31 31 32 32 31 31 30 29 29 30 31
18 18 18 18 18 18 18 18 17 17 18 17 17 19 20 21 21 22 24 24 25 26 27 28 29 29 30 30 30 30 30 30 30 32 32 32 32 31 31 30 30 30 31
16 17 18 18 19 19 19 19 18 19 19 18 18 19 21 22 22 23 24 25 26 27 28 29 30 30 30 30 30 30 30 30 30 30 31 31 31 31 32 31 31 31 31
17 18 18 19 19 19 19 19 19 20 20 20 20 20 21 22 23 24 25 25 26 27 28 28 28 29 30 30 31 31 31 31 31 31 31 31 31 31 32 32 32 32 32
18 19 19 19 19 20 20 21 21 21 21 21 21 22 22 23 24 25 26 26 26 26 27 27 28 29 29 30 30 31 31 31 32 32 32 32 32 31 31 32 32 32 31
19 20 20 20 20 21 22 22 22 22 23 23 23 23 23 24 25 26 26 26 26 27 27 28 28 28 29 29 30 30 30 31 31 31 31 31 31 31 31 31 31 31 32
21 20 21 22 22 23 24 24 24 24 25 25 25 25 26 26 27 27 28 28 28 28 29 29 30 30 30 30 30 30 30 30 30 30 30 31 31 31 31 31 31 32 31
21 22 23 23 23 24 25 25 26 27 26 26 26 27 28 28 28 28 29 29 29 29 30 30 31 31 31 31 31 31 31 31 30 30 30 30 31 31 31 31 30 30 31
22 23 24 24 25 26 26 26 26 26 26 26 27 28 28 28 28 28 29 29 29 30 30 31 31 31 31 31 32 32 32 32 31 31 30 30 30 30 29 28 28 28 28
21 23 23 24 24 25 25 25 25 26 27 27 27 27 27 28 28 28 29 29 29 29 30 30 30 29 30 30 31 31 31 31 31 31 30 30 29 28 27 27 26 26 27
21 22 23 25 25 25 25 25 26 26 27 27 27 27 28 28 28 28 28 28 29 29 29 29 29 29 30 30 30 30 30 30 30 30 30 29 29 28 27 27 26 26 26
22 22 23 24 24 25 25 25 26 26 26 26 26 27 27 28 27 27 27 28 28 28 28 29 29 29 29 28 29 29 29 29 29 28 28 27 27 26 26 26 25 24 24
22 23 23 24 24 24 24 24 24 25 25 26 27 27 27 27 27 26 26 26 26 27 27 27 28 28 28 28 28 27 27 27 27 26 25 24 24 23 23 23 22 21 21
21 22 22 23 23 23 23 24 24 25 25 25 26 26 25 25 25 24 25 25 25 26 26 25 26 26 26 26 26 25 25 24 23 22 22 21 21 21 21 21 20 19 19
20 21 21 21 22 22 22 22 23 24 24 25 25 24 24 23 23 23 23 22 23 23 23 23 22 23 22 22 22 23 22 20 20 20 19 19 18 19 18 18 17 16 15
19 20 20 20 20 21 21 21 21 22 22 23 22 22 22 22 22 22 22 21 21 21 21 21 20 20 20 19 18 18 17 18 17 17 17 16 15 15 15 15 14 14 14
18 18 19 18 18 18 17 17 18 19 20 20 20 20 20 20 20 20 19 18 18 18 18 18 18 18 17 16 16 15 15 16 16 16 15 15 14 13 13 13 12 12 12
17 16 16 16 16 16 16 16 16 16 16 17 17 17 17 17 17 16 15 14 14 14 14 14 14 14 14 13 13 13 13 13 13 13 13 13 12 12 11 11 10 9 10
15 15 14 13 13 13 13 14 14 14 14 14 13 12 13 13 12 12 11 11 10 11 11 11 11 10 10 10 10 10 10 10 10 10 10 10 10 10 10 9 9 9 8
13 13 11 11 11 10 10 11 11 11 11 10 10 10 10 9 9 8 8 7 7 7 7 7 7 7 8 7 7 7 7 8 8 8 9 9 9 9 9 8 8 8 8
12 11 9 9 8 9 9 9 8 8 7 7 7 7 7 6 6 6 5 5 4 4 4 4 4 4 4 4 4 4 5 6 7 7 9 9 8 8 8 8 7 8 8
12 10 9 8 8 8 7 7 7 6 6 6 6 5 4 4 4 3 3 2 2 2 2 2 1 1 2 3 3 4 4 5 6 7 9 9 9 9 9 9 9 9 9
12 10 9 8 8 7 6 6 6 6 5 5 4 4 4 4 3 2 2 2 2 1 1 1 1 2 3 4 5 5 6 7 8 9 9 10 10 11 11 11 11 11 11

GEFSMW_500_meanwind_126.txt.gz
Wind_Speed
18 19 20 20 20 20 20 21 21 22 23 24 24 25 25 25 25 25 25 25 25 24 24 24 24 24 24 23 23 22 23 23 23 24 24 24 24 24 24 25 25 25 25
18 20 19 19 20 20 20 21 22 23 24 24 25 25 24 25 24 23 23 23 23 23 23 23 23 23 23 23 23 23 23 22 23 24 24 24 24 24 24 25 26 26 26
19 20 20 20 21 21 21 22 23 24 24 25 25 24 24 23 22 22 22 22 22 22 22 23 23 23 23 23 22 23 23 23 23 24 25 25 24 24 24 25 26 26 27
19 20 21 21 22 22 22 22 23 23 24 24 23 23 22 21 21 21 22 22 22 22 23 22 22 23 23 23 23 24 24 24 23 24 25 25 25 25 25 26 26 27 27
19 20 21 21 22 22 22 22 22 23 23 23 22 21 21 21 20 21 21 21 21 21 21 22 22 23 23 23 24 24 24 25 24 24 24 25 25 25 25 25 26 27 27
21 21 21 21 21 22 22 23 23 23 23 22 22 21 21 21 21 21 21 20 21 21 22 22 23 23 23 24 25 25 25 25 25 25 25 25 25 25 25 25 26 27 27
22 22 22 22 23 24 24 24 24 24 24 24 23 24 23 22 21 20 20 21 21 22 22 23 23 24 24 25 25 26 26 26 26 26 26 26 26 26 26 26 26 27 27
22 23 24 24 24 25 26 26 25 25 25 25 25 24 24 23 22 21 22 22 22 23 24 24 24 25 25 25 25 25 26 26 26 26 26 27 27 27 27 27 27 27 27
24 25 25 25 26 26 27 27 27 27 27 26 26 25 25 25 25 24 25 25 24 25 25 26 26 26 27 27 27 26 27 27 27 27 27 27 28 28 28 28 28 27 27
25 26 26 27 28 28 28 28 28 28 28 27 27 27 27 27 27 26 26 26 26 27 27 28 28 27 27 28 28 28 29 28 28 28 28 28 28 29 29 29 29 29 28
27 26 28 28 28 28 28 28 28 28 28 28 28 28 28 27 27 27 27 27 27 28 28 28 28 29 29 29 29 30 30 30 30 30 30 29 29 29 29 29 29 29 28
27 28 27 27 28 28 27 28 28 28 28 28 28 28 28 28 28 27 27 27 27 28 28 28 28 28 29 29 30 30 30 30 30 31 30 29 30 30 30 30 30 29 29
26 27 27 27 27 27 27 27 27 27 28 28 29 29 28 28 28 28 28 28 28 28 28 28 28 28 28 29 30 30 31 31 30 30 30 30 29 29 29 29 30 30 29
27 27 27 27 27 27 27 27 26 26 26 26 26 26 27 27 27 27 27 27 28 28 29 29 28 28 29 29 29 29 29 29 30 30 29 30 30 29 29 28 29 29 28
27 27 27 27 27 27 27 27 25 25 25 25 26 26 26 27 26 26 26 26 27 28 28 27 27 28 28 28 28 27 28 27 27 28 28 28 28 28 28 28 27 27 26
25 25 26 26 26 26 26 26 26 26 26 25 25 25 26 26 26 25 25 26 26 26 26 27 27 26 26 26 26 26 26 26 26 26 26 27 27 27 26 26 25 25 24
23 23 24 23 24 24 24 24 24 24 24 23 23 24 24 24 24 24 25 25 25 25 25 25 24 24 24 25 25 25 24 24 24 24 24 24 24 25 24 24 23 22 21
22 22 22 22 22 23 23 23 24 24 23 23 24 24 24 24 23 23 24 23 22 22 22 22 22 22 22 21 22 21 21 21 22 22 22 22 21 21 21 20 20 19 18
21 21 21 21 21 21 21 21 21 21 21 22 22 22 23 22 22 22 22 22 21 21 20 19 19 20 20 20 19 19 19 19 19 19 18 18 18 18 17 17 17 16 16
20 20 20 19 19 20 20 20 20 20 20 20 20 20 21 20 20 20 20 19 18 18 18 18 18 19 18 18 18 17 17 16 15 15 15 14 14 14 14 13 14 14 14
18 18 17 17 17 18 17 17 17 18 18 17 17 16 16 15 16 17 17 17 16 16 16 16 16 16 16 16 16 15 14 14 13 13 13 13 12 12 12 12 12 11 12
16 16 16 16 16 15 15 15 15 15 15 15 14 14 13 14 14 14 14 14 14 13 13 13 13 13 13 13 13 13 12 12 12 11 11 10 11 11 11 11 11 10 10
15 15 15 14 14 13 12 12 11 11 11 11 11 12 12 12 12 11 11 10 11 10 10 10 10 10 10 10 9 9 10 9 9 9 9 9 8 9 10 10 10 10 10
15 15 14 12 11 10 9 9 9 9 9 9 10 10 10 9 9 9 8 8 8 8 7 7 7 7 8 8 7 7 7 7 7 7 7 8 8 8 9 11 12 11 10
14 13 12 11 10 9 8 8 8 8 9 9 9 8 8 8 8 8 7 6 5 5 5 5 5 5 5 5 4 4 4 4 4 5 6 6 7 7 9 10 10 10 9
14 13 12 11 9 9 8 8 7 8 8 8 7 6 7 7 6 6 5 4 4 3 3 3 3 3 3 2 1 2 2 2 3 4 5 6 7 8 9 9 10 10 9

GEFSMW_500_meanwind_132.txt.gz
Wind_Speed
18 16 16 17 18 18 18 18 19 19 20 21 22 22 22 22 22 22 22 22 23 23 23 24 24 23 24 23 23 22 22 22 21 21 22 23 22 23 24 23 23 22 22
16 17 17 17 18 19 19 19 19 20 21 21 22 23 24 24 24 23 23 23 22 22 23 23 23 23 23 22 22 21 20 20 20 20 21 22 22 22 23 23 23 23 23
14 15 16 17 18 19 19 20 21 21 21 22 22 23 24 24 24 24 24 24 23 22 22 21 21 21 21 21 21 20 20 20 20 20 20 21 21 21 21 21 22 22 22
14 15 16 16 18 19 20 20 21 21 21 21 22 22 23 23 23 23 23 21 21 21 21 21 21 21 20 20 20 20 21 21 21 21 21 21 22 22 22 22 22 22 22
15 16 16 17 18 19 20 21 21 22 22 22 23 23 22 23 23 22 21 21 21 20 20 21 20 20 21 20 20 20 21 21 21 21 22 22 21 22 22 22 22 22 22
17 17 18 19 19 20 20 21 22 23 23 23 23 23 23 23 22 21 21 21 21 21 20 20 20 20 21 21 21 22 22 22 22 22 22 22 22 21 22 22 23 23 23
17 17 17 19 20 21 22 23 23 24 24 24 24 24 24 23 22 21 20 21 22 22 21 20 19 19 20 20 21 21 21 22 22 22 23 23 23 23 23 23 23 23 23
19 19 19 20 21 22 23 23 23 24 25 25 25 25 25 24 23 22 22 22 22 21 21 20 20 20 21 21 21 22 22 22 23 24 24 24 24 24 24 24 24 24 24
22 21 20 20 22 22 23 23 23 24 24 26 26 26 26 25 24 23 23 22 22 22 22 22 22 22 22 23 23 24 24 24 24 25 25 25 26 26 26 26 25 25 25
20 20 21 21 22 22 23 23 23 24 24 25 26 26 26 26 25 25 24 23 23 23 23 24 24 24 24 25 24 25 25 26 27 27 27 27 27 27 27 27 27 27 26
19 19 20 22 23 23 23 23 23 24 25 25 26 26 26 26 25 25 25 24 24 23 23 23 24 25 26 26 26 27 27 27 28 28 28 28 29 29 28 28 28 28 28
20 21 21 21 22 22 23 23 24 24 24 24 24 26 26 25 25 25 24 24 24 24 24 24 24 24 25 25 26 27 28 28 28 28 28 28 29 29 29 29 29 29 29
20 21 22 22 22 23 24 24 24 24 24 24 24 25 24 24 25 24 24 24 24 24 24 24 24 24 24 25 25 26 27 28 28 29 29 29 29 29 29 29 29 28 28
21 20 21 22 22 23 24 25 24 24 24 24 24 23 23 22 23 24 23 23 23 24 24 24 24 24 24 24 25 25 26 26 27 27 28 28 28 29 29 29 28 28 27
21 21 20 21 22 22 23 23 23 23 23 22 21 21 21 22 22 23 23 23 23 23 24 25 24 24 24 24 25 25 25 25 25 25 26 26 26 28 29 29 28 28 27
20 21 20 21 21 22 22 22 22 22 21 20 20 21 21 22 22 23 24 23 23 22 23 23 23 23 23 24 24 24 24 24 24 25 25 25 26 26 26 26 26 26 26
19 20 20 20 20 20 21 21 21 21 21 21 21 21 21 21 22 22 22 22 22 22 22 22 22 22 22 22 23 23 23 23 23 23 24 24 24 24 24 24 24 23 23
17 18 19 18 19 19 19 19 19 19 20 20 20 20 21 21 20 20 20 20 20 20 20 21 20 20 20 21 21 21 21 21 21 22 22 22 23 22 22 21 22 22 21
17 17 18 18 18 18 17 17 17 18 18 18 18 18 18 18 18 19 19 19 19 18 18 18 18 18 18 18 18 19 19 19 20 20 20 21 21 21 20 20 20 20 20
17 17 18 17 16 16 16 15 16 16 16 16 16 16 16 16 17 16 16 16 16 16 17 16 16 15 16 16 17 17 17 17 17 17 17 17 18 18 18 18 19 18 18
17 17 17 16 15 14 14 14 14 13 13 13 13 13 13 13 13 13 13 13 13 13 13 13 13 13 14 14 15 15 15 15 15 15 14 14 14 15 15 16 17 17 16
17 17 16 14 13 12 11 11 11 11 11 11 11 10 10 10 10 10 11 11 11 11 11 11 11 12 12 12 12 12 12 12 12 12 12 12 12 12 12 13 14 14 14
16 16 15 13 12 10 10 9 10 10 10 9 8 8 8 9 10 10 10 9 9 9 9 9 9 9 10 10 10 10 10 9 8 8 9 10 10 10 10 10 11 12 13
16 15 14 13 11 9 9 9 10 10 9 8 8 8 9 10 10 9 9 8 7 7 7 7 7 8 7 7 7 6 6 5 5 4 5 6 7 8 9 10 11 12 13
15 15 14 13 11 10 9 9 10 10 9 9 9 9 10 10 9 9 9 9 8 7 5 5 5 5 5 4 4 3 3 2 2 1 2 4 5 6 8 9 10 11 12
15 14 13 13 12 12 11 10 10 11 11 10 10 10 10 9 9 10 10 9 8 7 5 4 4 4 3 3 3 2 2 2 3 3 3 5 5 6 7 8 8 9 11

GEFSMW_500_meanwind_138.txt.gz
Wind_Speed
22 22 22 22 23 23 22 22 21 21 21 21 21 21 22 23 23 24 25 25 25 25 26 25 25 25 25 26 26 26 26 26 26 26 26 26 26 26 26 26 26 25 25
21 22 23 24 24 23 23 21 22 21 21 21 22 23 23 24 24 24 24 24 25 25 25 25 25 25 25 25 24 25 25 26 25 26 26 26 27 27 26 26 25 26 26
20 22 24 24 24 24 24 22 22 22 22 22 22 23 24 24 24 25 26 26 26 25 25 25 25 25 24 24 25 25 25 25 26 26 26 27 28 28 27 26 26 26 26
21 22 24 24 24 24 24 23 23 24 24 23 24 24 24 25 26 26 27 27 26 26 25 24 24 24 25 25 26 25 26 26 26 26 27 27 27 27 26 26 26 25 25
19 20 22 23 24 24 23 23 24 25 25 25 25 25 26 26 26 27 27 28 27 27 26 25 25 25 25 25 26 26 27 27 27 27 27 27 28 28 27 26 26 26 26
19 20 21 23 24 24 25 26 26 26 26 25 25 26 27 27 27 27 28 28 27 27 27 26 26 26 26 25 25 25 26 27 27 27 27 27 27 27 27 26 27 27 26
19 20 21 23 23 25 26 26 25 25 25 25 26 27 27 28 28 28 28 28 27 26 26 26 26 26 26 27 26 25 26 26 26 26 26 26 26 27 27 28 28 28 28
19 20 21 22 22 24 25 24 25 26 26 26 26 27 26 27 27 27 27 27 27 26 26 25 26 26 27 28 28 27 27 26 25 25 26 27 28 28 29 29 30 30 29
19 19 19 20 21 22 24 24 25 26 25 26 26 26 27 27 27 27 27 27 27 26 26 26 26 27 27 27 27 28 28 27 27 27 27 28 28 29 29 30 30 29 29
19 19 19 19 20 22 23 24 24 25 26 26 27 27 28 28 28 28 27 27 27 27 27 26 27 27 27 27 28 28 28 28 28 28 29 29 29 29 29 29 29 30 30
20 20 20 20 21 22 22 23 24 25 25 25 26 27 27 28 28 28 28 27 27 27 27 27 27 27 27 27 28 28 28 29 29 30 30 30 30 30 31 31 31 31 31
19 19 19 20 21 22 23 23 24 24 24 25 25 25 26 27 27 27 28 28 28 28 27 26 26 26 26 26 27 28 29 30 30 30 31 31 31 31 31 31 31 31 31
19 20 20 20 21 22 23 23 23 24 24 25 26 26 26 26 26 27 27 27 27 28 28 27 26 26 26 26 27 27 28 29 30 30 31 31 32 32 32 31 32 32 32
19 20 20 20 21 22 22 23 23 24 24 25 26 25 25 25 25 25 26 26 27 27 27 27 27 26 26 27 27 28 28 29 30 30 31 31 31 32 33 33 33 32 32
19 19 20 20 20 21 22 23 23 23 23 24 24 24 24 25 24 24 24 24 24 25 25 25 25 26 26 26 27 28 28 28 29 29 30 29 30 31 32 32 32 32 32
18 19 19 20 20 20 21 21 22 21 21 22 22 23 23 23 23 23 22 22 23 23 23 23 24 25 25 26 26 27 27 27 27 27 28 29 29 29 29 30 31 31 31
17 17 18 18 19 19 20 20 21 21 20 20 21 20 21 20 20 21 21 21 22 22 23 23 23 24 24 25 25 25 25 25 25 26 26 27 27 27 28 28 29 29 29
16 16 16 17 17 18 18 19 19 18 18 18 18 18 19 19 19 19 20 20 21 21 21 21 21 22 22 22 23 23 23 23 24 24 25 26 26 26 27 26 27 27 27
15 14 15 16 16 17 17 16 15 15 15 16 16 16 17 17 17 17 17 18 18 19 19 19 19 20 20 20 21 21 21 21 22 23 23 24 24 24 24 25 25 25 25
14 14 15 15 15 15 14 14 13 13 13 13 14 14 14 14 15 15 15 16 16 17 17 17 18 18 18 19 18 18 18 19 19 20 20 20 21 21 21 21 22 22 22
14 14 14 14 14 13 13 12 12 12 12 12 12 12 12 12 12 13 13 14 14 14 15 15 15 16 16 16 16 16 17 16 16 16 16 16 16 17 17 18 18 18 19
14 14 14 13 13 12 12 12 12 11 11 11 11 11 11 11 11 11 11 12 12 12 12 12 13 13 13 13 13 14 14 14 14 13 13 13 13 13 13 14 14 14 15
13 14 13 13 12 12 12 11 12 11 11 11 10 10 10 10 10 11 11 11 11 10 10 10 9 9 10 10 11 11 11 11 11 11 10 10 10 9 9 10 11 11 11
13 14 13 13 12 12 12 12 12 12 12 11 11 10 10 10 11 11 11 10 9 9 9 8 8 7 7 7 8 8 8 8 8 7 6 6 6 6 7 8 8 9 10
13 13 13 13 13 13 13 13 12 12 12 12 11 11 10 10 10 10 10 10 9 10 9 8 7 7 7 7 7 6 6 5 4 3 2 2 3 3 4 5 6 7 8
13 13 13 13 13 13 13 13 13 13 12 12 12 11 11 10 10 10 10 10 10 10 9 9 8 8 8 7 7 7 6 5 4 3 1 0 1 1 2 2 4 5 5

GEFSMW_500_meanwind_144.txt.gz
Wind_Speed
24 23 24 24 25 25 25 25 26 26 26 27 27 26 26 26 26 26 26 26 27 27 28 28 28 28 28 28 27 28 29 28 28 28 29 29 29 28 29 29 29 28 28
23 23 23 24 25 25 25 25 26 27 27 28 27 26 26 26 27 27 26 26 28 29 29 28 29 29 30 30 29 29 29 29 29 29 28 29 29 29 29 30 30 30 29
23 24 24 24 26 26 26 27 27 28 29 28 28 27 27 27 27 27 27 27 28 29 29 29 30 30 30 31 31 30 30 30 29 29 29 29 28 29 30 30 30 31 30
25 25 25 25 26 27 27 28 28 28 29 29 29 28 28 28 28 28 28 29 30 31 31 31 31 30 31 31 30 31 31 30 29 29 29 30 30 30 30 29 30 31 30
24 25 25 25 26 26 27 28 28 28 28 29 29 30 29 29 28 28 28 29 30 31 31 31 31 32 31 31 31 31 31 30 30 30 29 30 31 31 31 30 30 30 30
23 24 24 25 26 26 27 27 28 28 28 28 28 28 28 28 28 28 29 30 30 30 30 30 30 31 31 31 31 31 31 30 30 30 31 30 30 31 31 31 30 30 29
22 23 24 25 26 27 27 28 27 27 27 27 27 27 28 28 28 29 29 30 30 30 30 30 30 30 30 30 30 31 31 31 30 30 31 31 31 31 31 30 30 29 29
21 22 23 24 25 26 26 27 27 27 27 28 27 28 28 28 28 29 29 29 30 31 31 31 30 30 30 31 30 30 31 31 30 30 30 31 31 31 30 29 28 29 29
20 21 22 23 23 24 25 25 25 26 26 27 27 28 28 29 29 29 30 30 31 31 32 31 31 30 30 31 31 30 30 30 31 31 31 31 31 30 30 29 29 28 29
20 21 21 21 22 23 23 24 25 25 26 26 27 28 28 29 30 30 31 31 31 31 31 31 31 30 30 29 29 30 30 30 31 31 31 32 31 31 30 30 29 29 29
19 20 21 21 22 22 22 23 24 24 24 25 26 28 29 29 30 30 30 31 31 32 31 31 31 31 30 30 29 30 29 29 29 30 30 30 31 30 30 30 29 29 29
19 20 20 21 21 22 23 23 24 24 24 25 26 27 28 28 28 28 29 30 30 31 30 30 31 30 29 29 28 29 29 29 29 28 28 29 29 30 30 31 30 29 29
19 20 20 21 21 22 23 23 23 24 24 24 25 26 26 27 27 26 27 28 28 29 29 30 29 29 28 28 28 28 28 29 28 28 28 28 29 29 29 30 30 30 30
19 20 20 21 21 21 21 22 23 24 24 24 24 25 26 26 26 26 26 26 27 27 27 28 27 27 28 27 27 27 27 27 28 28 28 28 28 29 29 29 30 30 30
19 20 20 21 21 21 21 22 23 23 24 24 24 24 25 24 24 24 24 24 25 24 25 25 25 24 24 24 25 25 26 25 26 26 27 27 28 28 28 28 29 29 29
18 19 19 20 20 20 21 21 22 22 22 22 23 22 21 20 21 21 21 21 22 22 22 22 21 21 22 22 23 24 24 24 25 25 26 27 28 27 27 27 27 28 28
17 17 18 18 18 18 19 19 19 19 20 20 19 19 19 19 18 18 18 18 18 19 19 19 19 19 20 21 21 22 23 23 23 24 25 25 25 25 26 26 26 27 27
15 15 16 15 15 16 17 17 17 17 17 17 16 16 16 16 16 16 16 16 17 18 17 18 18 18 19 19 19 19 19 20 21 21 22 22 23 23 24 25 25 24 24
13 13 14 14 14 14 15 16 15 15 15 15 15 14 14 14 15 15 15 15 16 16 16 17 16 17 18 18 18 18 18 18 18 19 19 20 20 21 22 22 23 24 24
13 13 13 13 13 14 14 13 13 14 14 13 13 13 13 13 13 13 13 13 13 12 12 13 12 13 14 15 15 15 15 15 16 16 17 17 17 17 18 18 19 21 22
12 12 12 12 12 12 12 12 12 12 12 12 12 12 12 11 12 12 12 12 12 11 11 11 11 11 12 13 13 13 12 13 14 14 14 15 14 14 14 15 16 17 18
11 11 11 11 11 11 11 12 12 11 11 11 11 11 11 11 11 11 11 11 11 11 11 11 11 11 11 11 11 11 11 11 11 12 12 12 12 13 13 13 14 14 15
10 11 11 11 11 11 11 11 11 11 11 11 10 10 10 10 10 10 10 10 9 10 10 10 10 10 10 10 10 10 10 10 10 9 9 9 9 9 9 11 11 12 12
10 11 11 12 12 12 12 11 11 11 12 11 11 10 10 10 10 10 10 10 9 9 9 9 9 10 10 9 9 9 8 8 7 7 7 7 6 6 6 7 8 9 10
9 10 11 12 12 12 12 12 12 12 11 11 11 11 10 10 10 10 10 10 10 10 10 9 9 10 10 9 9 8 8 7 7 6 5 5 4 4 4 5 6 7 7
10 11 11 11 12 12 12 12 13 12 12 11 11 11 11 11 10 11 11 10 10 10 10 10 10 9 9 9 9 9 8 8 7 5 5 4 3 2 2 2 3 4 5

GEFSMW_500_meanwind_150.txt.gz
Wind_Speed
25 25 25 24 25 26 26 27 27 27 27 28 27 28 28 29 29 29 30 29 29 30 30 30 30 30 30 30 30 30 30 30 30 30 29 28 29 28 28 28 28 28 28
26 26 26 26 26 26 27 26 27 28 28 29 29 29 29 29 29 29 30 30 31 31 31 31 31 32 31 30 30 31 32 31 31 31 30 30 30 29 28 27 27 27 28
26 27 27 28 28 28 28 28 29 29 30 30 30 31 31 31 31 30 31 31 31 31 31 31 31 31 31 31 31 32 33 32 32 31 31 31 30 29 29 28 27 27 27
27 27 28 28 29 29 29 29 30 30 30 31 31 32 32 32 32 31 30 30 30 30 31 31 31 32 32 31 32 32 33 33 33 32 32 31 30 30 30 29 29 28 28
29 28 27 28 29 29 28 29 29 30 31 31 31 32 32 32 31 31 31 31 30 31 31 30 31 31 32 32 32 32 32 33 33 32 32 32 32 31 31 30 30 30 29
27 26 27 28 28 28 28 29 29 30 31 32 32 32 32 32 32 32 31 31 31 30 30 31 31 31 31 31 31 31 32 33 33 32 32 32 33 32 32 32 31 30 29
27 26 26 26 26 26 27 28 29 30 30 31 31 31 31 32 32 32 32 32 31 31 31 32 32 31 31 32 32 31 31 31 31 30 31 32 32 32 31 31 30 30 29
26 25 25 25 25 26 26 27 27 28 29 30 30 30 31 31 31 32 32 32 32 31 31 30 31 31 32 32 32 32 31 30 30 30 30 30 31 31 30 30 30 30 30
25 25 25 24 24 25 26 26 27 28 29 29 29 29 30 30 31 31 32 31 30 30 30 30 30 30 30 30 30 30 30 29 29 30 30 30 30 30 30 30 30 30 30
23 23 23 24 24 25 26 26 27 28 29 29 29 29 29 28 28 29 30 29 28 29 30 29 30 30 30 29 29 29 29 28 28 29 29 29 29 29 30 30 30 30 29
23 23 24 24 25 26 26 26 27 28 28 28 28 28 27 27 28 28 28 28 28 29 29 29 29 30 29 29 29 29 29 29 29 29 28 28 28 28 29 29 29 29 29
23 22 22 23 24 24 25 25 26 26 26 26 26 26 27 27 28 27 27 28 29 29 29 29 28 28 28 28 28 28 28 29 29 28 28 27 27 28 28 28 28 28 29
22 22 22 22 23 24 24 24 24 24 25 25 25 25 26 26 26 26 26 26 27 28 27 26 26 26 27 27 27 26 26 26 27 27 27 27 27 27 27 28 27 27 27
21 21 21 22 22 23 23 23 23 24 24 24 24 24 25 25 25 25 25 25 25 24 24 24 24 25 25 24 25 25 26 25 25 26 26 26 26 26 26 26 27 27 26
20 21 21 21 22 22 22 22 22 23 23 23 22 23 23 23 22 23 22 22 23 22 22 22 22 22 22 22 23 24 25 25 25 24 24 24 24 24 25 25 25 26 25
19 20 20 21 22 22 22 22 22 22 22 22 21 21 21 20 21 21 21 21 20 20 20 20 21 21 21 21 21 21 22 22 22 22 22 23 23 24 24 24 24 25 25
19 20 20 20 21 21 21 21 21 21 21 20 20 20 19 19 19 20 20 19 19 19 19 20 20 20 20 19 19 20 20 19 20 21 21 22 22 23 23 23 23 23 24
19 20 20 20 20 20 20 20 20 20 19 19 18 18 18 18 18 19 19 17 17 17 17 17 17 17 17 17 18 17 17 18 19 19 20 21 21 21 22 22 22 22 23
18 19 19 19 19 19 18 19 19 19 18 18 17 17 17 17 17 17 17 16 16 16 16 17 16 15 15 15 15 15 16 17 17 18 19 18 18 19 19 19 20 20 20
17 18 18 18 17 17 17 17 18 18 18 17 16 16 16 16 16 15 15 15 14 14 14 15 15 14 14 14 14 15 16 16 17 18 17 16 17 16 16 16 16 16 17
16 17 17 17 16 16 15 15 16 17 17 16 15 15 16 15 15 13 13 13 14 13 13 13 13 13 13 14 14 14 15 15 15 16 14 14 14 13 13 13 13 13 14
15 15 15 15 15 15 14 14 15 16 16 16 16 15 15 13 13 12 13 13 13 12 12 13 14 14 13 14 13 14 14 15 14 13 13 13 13 12 11 11 11 12 12
13 14 14 14 14 14 14 15 15 15 15 16 15 15 14 13 13 12 13 12 12 12 12 13 13 13 14 14 14 14 14 14 14 13 13 12 12 11 11 10 10 11 12
13 14 14 14 14 14 14 15 15 15 15 15 15 14 14 14 13 13 12 12 12 12 13 13 13 13 13 13 13 14 14 13 13 12 12 11 11 10 10 10 9 9 10
12 13 13 13 13 14 14 15 15 15 15 14 14 14 15 15 14 13 13 12 13 13 13 12 13 13 13 13 13 13 13 13 12 11 11 11 10 9 9 8 8 7 7
10 12 13 13 14 14 14 15 15 14 14 14 14 14 15 15 15 14 13 13 14 14 14 13 13 13 13 13 13 13 13 12 12 11 10 10 9 8 8 8 7 7 7

GEFSMW_500_meanwind_156.txt.gz
Wind_Speed
18 19 21 21 22 23 23 24 24 24 24 24 25 26 27 26 26 26 27 28 28 27 28 28 28 28 28 29 29 29 28 29 29 28 29 30 30 30 30 30 30 29 28
20 20 22 22 23 24 25 25 25 26 26 26 26 27 28 27 28 28 29 29 29 29 30 29 28 28 29 29 30 30 29 29 29 29 29 29 30 30 30 30 30 30 29
21 22 23 23 24 24 25 25 25 26 26 26 27 27 28 28 29 29 30 30 30 30 29 29 29 29 30 29 28 28 28 29 29 29 30 29 29 30 30 30 30 30 30
21 21 23 23 24 24 25 25 26 26 27 27 27 28 28 29 29 30 31 31 31 31 30 30 30 30 29 29 29 29 29 28 29 29 30 30 30 30 30 30 30 30 30
22 23 23 23 25 26 25 25 26 26 27 27 28 28 28 29 30 31 31 31 31 31 30 30 30 30 29 29 29 29 30 29 29 30 31 30 30 30 30 30 30 31 31
22 23 23 24 24 24 25 26 26 26 26 27 27 28 29 29 30 30 30 30 30 30 29 29 29 29 30 29 28 29 29 29 29 29 30 30 30 30 31 31 31 31 31
21 22 23 24 24 24 25 25 25 25 26 27 28 28 28 28 28 28 28 28 29 28 28 28 28 29 29 29 29 28 28 29 29 29 28 28 29 30 30 30 30 31 31
20 20 21 23 23 24 24 25 25 26 27 27 28 28 28 28 28 28 28 27 27 27 27 27 27 28 28 28 28 28 28 29 28 28 28 27 27 28 29 29 29 30 30
21 21 22 23 24 25 25 25 25 25 26 27 27 28 28 28 28 28 28 27 27 27 27 27 26 26 26 26 26 26 27 27 27 27 27 27 27 27 27 28 28 29 30
21 20 21 23 24 25 25 25 25 26 25 25 26 26 27 27 27 27 27 27 26 26 25 25 25 25 24 24 25 25 25 25 25 25 25 25 26 27 28 28 28 29 30
20 21 22 23 23 23 23 23 25 25 25 25 25 26 25 26 26 25 25 25 24 24 24 24 24 24 24 24 24 23 24 24 23 23 24 25 26 26 26 27 28 28 28
21 21 21 21 22 22 22 23 24 24 24 24 25 25 25 24 23 23 22 23 23 23 23 23 22 22 22 22 22 23 23 23 23 23 23 24 25 25 25 27 28 27 27
20 20 21 21 21 22 22 23 23 23 23 24 24 23 22 22 22 21 21 21 21 22 22 21 21 21 21 21 21 21 21 22 22 22 22 22 23 24 24 25 26 26 26
18 19 20 20 21 21 22 22 22 22 23 23 22 21 21 21 21 21 21 20 20 20 20 19 19 19 20 19 19 20 20 20 21 21 21 21 22 23 23 23 24 25 25
18 18 19 19 19 20 21 21 21 21 21 21 20 20 20 19 20 20 20 19 18 18 18 18 18 18 18 18 18 18 18 19 20 21 21 21 21 21 21 22 22 23 24
16 17 18 18 19 20 20 20 20 19 19 19 19 19 19 19 18 18 17 17 17 17 17 17 17 17 16 15 16 16 17 18 18 18 19 19 19 19 19 20 20 21 22
16 16 17 17 18 18 19 19 20 19 18 18 18 18 18 18 17 16 16 16 16 16 15 16 16 16 15 14 15 16 16 17 17 17 18 18 18 19 19 18 19 19 20
15 16 17 17 17 18 18 18 19 17 16 16 17 17 17 17 16 16 16 15 15 15 15 15 15 15 14 14 15 15 15 16 16 17 17 17 17 17 18 18 18 18 19
14 15 16 16 17 17 17 17 17 16 16 16 16 16 16 15 16 15 15 15 14 14 14 13 13 13 13 14 14 14 15 15 16 16 16 17 17 17 16 16 16 16 16
13 14 15 16 16 16 17 16 16 15 15 15 15 15 15 15 14 14 14 14 14 14 13 13 12 12 13 13 13 14 14 15 15 15 15 16 15 15 15 15 14 14 14
12 13 14 15 15 16 16 15 15 14 14 15 15 16 15 15 14 14 13 13 13 14 13 13 13 12 13 13 14 14 14 15 15 15 15 15 14 14 14 13 12 13 14
11 13 13 14 15 15 14 14 14 14 14 14 15 15 15 14 14 13 13 13 13 14 14 13 13 14 14 14 14 14 14 14 14 14 13 13 12 12 12 12 12 12 12
11 12 13 13 14 14 14 14 14 14 14 14 14 14 14 14 14 14 14 14 14 14 14 14 14 14 14 14 14 14 14 14 14 14 13 12 12 12 12 12 11 11 11
10 11 11 12 13 13 14 14 14 14 14 14 13 14 14 14 14 14 14 15 15 14 14 14 14 14 14 14 14 14 14 14 14 13 13 12 12 12 12 12 11 11 11
9 10 11 12 12 13 14 14 14 14 13 13 13 13 14 14 14 14 15 15 15 15 15 14 15 15 15 15 15 14 14 14 13 13 13 12 11 11 12 12 11 11 11
8 10 11 11 12 13 14 14 14 13 12 13 13 13 14 15 15 16 16 16 16 15 15 15 16 16 15 15 15 16 15 15 14 14 13 12 12 12 11 11 11 10 11

GEFSMW_500_meanwind_162.txt.gz
Wind_Speed
20 20 20 21 21 20 20 21 22 24 24 24 25 25 26 26 27 28 28 29 30 30 30 30 30 31 30 31 31 31 31 31 31 32 32 32 33 33 32 32 32 33 33
20 20 21 20 20 21 21 22 23 23 24 25 26 25 26 27 28 29 30 31 31 30 31 31 32 32 32 32 33 33 32 32 32 32 33 33 34 34 33 33 33 33 34
20 20 19 19 19 21 21 23 23 24 25 26 26 27 27 28 29 30 30 31 31 31 31 32 32 32 32 32 32 33 33 33 32 32 33 33 32 33 33 33 33 33 34
19 18 18 19 20 21 22 23 24 25 27 27 26 27 28 29 29 30 30 30 31 32 32 32 32 32 32 32 32 32 32 32 32 32 32 32 32 32 32 33 33 34 35
19 19 19 20 21 23 23 24 25 26 27 27 26 27 29 29 29 29 29 29 30 30 31 31 32 32 31 31 31 31 31 31 32 32 32 32 32 32 33 33 33 34 34
20 19 20 22 23 23 24 24 26 26 27 26 26 27 28 28 29 29 29 29 29 29 29 30 30 30 30 29 29 29 30 30 29 30 31 31 32 32 33 32 32 32 33
20 21 22 22 23 24 24 25 26 26 26 26 26 27 28 27 28 28 28 28 28 29 29 29 28 29 29 28 29 29 29 29 28 29 29 30 31 31 31 31 30 30 31
20 21 22 23 24 24 24 24 25 25 25 26 26 26 26 26 26 27 28 29 29 29 29 28 28 28 28 28 28 28 27 28 28 28 29 29 30 30 30 30 30 30 30
20 21 22 23 23 23 23 23 23 23 24 24 25 25 25 25 25 26 27 27 28 28 28 27 27 27 27 27 27 27 26 26 27 27 27 28 28 29 29 30 30 29 28
20 21 21 22 22 22 22 23 23 24 23 23 23 23 24 25 25 25 25 26 26 26 25 25 26 24 24 25 25 25 25 26 26 26 26 27 27 28 28 28 29 29 29
20 20 20 19 20 21 22 23 23 23 23 23 23 23 24 24 24 24 24 24 24 24 24 24 24 24 23 24 24 24 25 25 25 26 26 26 26 26 26 26 27 27 27
19 18 18 18 20 20 22 23 23 23 23 22 23 23 23 23 23 23 24 24 23 24 24 23 23 23 23 23 23 24 24 24 24 25 25 25 25 25 25 25 25 26 26
17 18 18 19 19 20 22 23 23 22 22 22 22 23 23 23 23 23 23 23 22 22 22 22 22 22 23 23 23 24 23 23 23 23 23 24 24 25 24 24 24 24 25
17 18 18 18 19 21 22 23 21 21 21 22 22 22 22 22 22 22 22 22 22 21 22 21 21 22 21 21 22 21 21 21 21 21 21 22 23 23 23 23 23 23 24
18 18 18 18 19 20 20 20 20 20 20 21 22 22 22 22 21 21 21 21 21 21 21 21 20 20 19 18 18 19 20 19 19 19 20 20 21 22 23 23 22 22 22
18 18 18 18 18 19 19 19 19 20 20 21 21 21 21 20 19 19 19 19 19 20 19 19 18 17 17 17 17 18 18 18 18 19 19 19 20 20 21 21 22 22 22
18 17 17 16 17 18 18 18 19 19 19 19 19 19 18 18 17 17 17 17 18 17 17 16 17 16 16 16 16 16 17 18 19 19 19 19 20 20 20 20 20 21 21
16 15 16 16 16 16 17 18 18 18 18 17 17 17 17 16 16 16 16 16 16 16 16 16 16 16 16 16 16 16 17 18 18 19 20 20 20 20 20 19 19 19 20
14 14 14 14 14 15 16 17 16 17 16 16 16 15 15 15 16 15 16 16 16 16 16 16 16 16 16 16 17 17 17 18 19 19 20 20 20 20 20 20 19 19 18
11 13 13 13 13 14 15 15 15 15 15 15 14 14 14 15 15 15 16 16 16 16 17 17 17 17 16 16 18 18 18 18 19 19 19 19 19 19 20 19 19 18 17
10 11 11 12 12 13 13 14 13 14 14 14 13 14 14 15 15 15 16 16 17 17 17 17 17 17 16 17 18 18 18 18 18 18 18 18 18 18 17 16 16 16 16
9 9 10 11 11 11 11 12 12 12 13 14 14 14 14 14 15 16 16 17 17 17 18 17 18 18 18 18 17 17 17 17 17 17 17 17 17 16 15 15 15 15 16
8 8 9 9 9 9 10 11 11 12 13 14 14 14 15 15 16 17 17 17 17 18 18 18 18 18 18 18 18 18 18 17 16 16 17 17 16 16 15 15 15 15 15
6 6 7 8 8 8 9 11 12 13 13 13 14 15 15 16 17 17 18 18 18 18 19 19 19 19 18 19 19 19 18 18 17 18 17 16 15 16 16 16 16 15 14
5 6 7 8 8 8 9 11 12 13 13 14 14 15 16 17 17 18 19 19 19 19 19 19 20 19 19 19 19 19 18 18 17 17 18 17 16 16 17 17 16 15 15
4 5 6 7 7 8 10 11 12 12 14 14 15 16 17 18 18 19 19 19 19 19 20 19 20 20 19 18 19 19 19 18 18 18 18 18 17 16 16 17 16 16 16

GEFSMW_500_meanwind_168.txt.gz
Wind_Speed
21 22 23 23 23 24 24 24 25 26 25 25 26 26 27 28 29 30 30 30 30 30 30 31 32 32 32 32 31 32 32 32 32 33 33 33 34 33 32 33 33 33 33
20 21 21 21 22 23 24 25 25 26 25 26 26 26 27 27 28 29 30 30 29 29 30 31 32 32 32 32 32 32 33 33 33 33 33 33 34 33 33 33 33 33 33
20 21 21 22 22 22 23 24 25 25 26 26 26 27 27 28 28 29 30 30 30 30 30 30 31 32 32 31 31 31 32 33 33 33 34 34 34 32 33 33 33 33 34
20 21 21 22 23 23 24 24 25 25 26 27 27 27 28 29 29 29 29 30 30 29 29 29 30 30 30 31 32 32 33 33 32 33 33 33 33 33 32 33 33 34 34
20 21 22 22 23 23 24 25 26 26 26 27 28 28 28 29 30 30 29 29 29 29 29 29 29 29 30 31 32 32 32 32 31 32 32 32 33 33 33 33 33 34 35
20 21 22 22 23 23 24 25 25 26 26 27 27 27 28 29 29 29 28 28 28 28 28 28 29 30 31 31 31 31 31 31 31 31 31 31 31 31 32 33 33 33 34
20 20 21 21 22 23 24 25 25 26 26 26 26 26 27 28 28 28 28 28 28 27 28 28 29 30 31 31 30 31 31 30 30 30 30 30 30 30 31 31 32 32 33
19 20 20 21 21 22 23 24 24 25 25 25 26 26 26 27 27 27 27 27 26 26 28 28 28 29 29 29 29 29 29 28 29 29 29 29 30 30 30 30 30 30 30
19 19 20 20 20 21 22 22 22 23 24 25 26 26 26 26 25 25 24 24 24 25 26 26 27 28 27 27 27 26 26 26 26 27 27 27 28 28 28 28 28 28 28
19 19 19 19 19 19 20 21 21 23 24 25 25 25 25 24 24 23 23 22 23 24 25 25 26 26 25 25 25 25 25 24 24 24 25 25 26 26 26 26 27 27 28
19 19 19 18 18 19 20 21 22 22 23 24 24 23 23 23 22 22 22 22 23 23 24 24 24 24 24 23 23 23 23 23 23 24 24 24 25 25 25 26 26 27 27
19 19 19 18 18 18 19 20 21 22 22 22 23 22 22 21 21 21 21 22 22 22 22 22 23 23 23 23 22 22 22 22 22 24 24 22 22 23 24 24 25 25 26
19 18 19 19 18 18 18 19 20 21 22 22 22 23 22 21 20 20 21 21 21 21 21 22 22 22 23 22 22 22 22 22 22 22 22 21 20 21 22 23 23 23 24
18 18 18 18 18 18 18 18 19 21 21 21 21 21 21 20 20 19 19 20 20 20 21 21 21 21 22 22 22 21 21 21 21 21 21 20 20 19 20 21 21 22 23
17 18 18 17 17 17 17 18 19 20 19 19 20 20 20 19 19 19 19 19 20 20 20 21 21 21 21 21 21 21 20 19 19 20 20 20 20 20 20 21 21 22 22
17 17 16 16 17 17 16 16 17 17 18 18 18 18 17 17 17 18 18 19 19 20 20 20 20 20 21 20 19 18 19 18 18 19 19 20 20 20 21 21 21 22 22
15 15 14 14 15 14 14 15 16 16 16 17 17 17 16 16 16 17 18 19 19 19 19 19 19 19 19 19 18 18 17 17 18 18 19 19 20 20 20 20 21 21 21
13 13 13 13 13 13 13 14 15 15 15 16 16 15 16 16 16 17 17 18 19 19 18 18 17 17 17 17 17 17 17 17 17 17 18 18 19 19 20 19 19 19 20
11 11 11 11 11 11 11 12 13 14 15 15 15 15 15 15 15 17 17 18 19 18 18 17 17 17 17 18 17 17 17 17 17 17 17 18 18 18 18 18 18 18 19
10 10 10 9 10 10 10 11 12 13 13 14 15 15 15 15 16 16 17 17 18 17 17 17 17 17 17 18 17 17 18 18 18 18 18 17 17 17 18 18 18 18 18
10 10 9 8 9 9 10 10 11 12 13 14 14 14 14 14 15 15 16 17 17 17 17 17 18 17 17 18 18 17 18 18 18 18 18 18 18 18 17 17 18 18 17
8 8 7 8 8 9 9 10 10 11 12 13 13 13 13 14 15 15 16 17 17 18 18 18 18 18 18 19 18 18 18 18 18 18 18 18 17 17 18 17 17 18 18
7 7 6 7 8 8 8 9 10 11 12 12 12 13 14 14 15 16 16 17 18 18 19 19 19 19 19 19 19 18 18 18 19 19 19 18 17 17 17 17 17 17 17
5 5 6 6 6 7 8 9 9 10 11 11 12 12 13 14 15 16 17 17 18 18 19 19 19 20 20 20 19 19 19 19 19 19 19 19 18 18 18 18 17 17 17
4 4 5 6 6 7 7 8 10 10 11 11 13 14 15 15 16 16 17 17 18 18 18 19 20 20 20 20 20 20 20 20 19 20 20 20 19 19 19 19 18 19 18
3 4 4 5 6 7 8 8 9 10 11 12 13 14 15 15 16 17 17 17 18 19 19 20 21 21 21 21 21 21 21 20 20 20 20 20 20 19 19 18 19 19 19

GEFSMW_500_meanwind_174.txt.gz
Wind_Speed
23 23 25 25 26 26 26 27 27 27 28 28 29 29 29 29 29 29 29 30 30 30 30 30 30 30 29 29 29 29 29 28 29 29 30 30 30 30 31 31 31 31 32
23 24 25 25 26 26 26 27 27 28 29 29 29 30 29 29 29 29 29 30 30 30 30 30 30 30 29 29 28 28 29 28 29 30 30 30 29 30 30 31 31 32 32
24 25 26 25 25 25 25 26 27 28 27 28 28 29 29 29 30 29 29 29 29 30 30 30 30 30 29 29 29 29 29 29 30 30 30 30 29 30 30 30 30 30 31
24 25 26 25 25 24 24 26 27 27 26 27 27 28 28 29 29 29 28 28 29 30 30 30 30 30 30 29 29 29 30 30 30 30 31 31 31 31 30 30 30 30 30
26 25 25 25 24 23 24 25 25 26 26 27 27 27 28 28 28 28 28 29 30 30 30 30 29 29 30 29 29 29 29 29 29 29 30 30 31 31 30 29 29 30 30
26 24 24 25 24 24 24 24 24 25 25 25 26 26 28 27 26 27 28 28 29 29 29 29 28 28 29 29 28 28 28 29 29 29 29 30 31 30 31 30 30 29 29
25 24 25 24 25 25 24 24 24 24 24 24 25 26 26 25 25 27 27 28 28 29 28 28 28 28 28 29 28 28 28 29 29 29 29 30 30 30 31 31 30 30 30
24 25 26 25 25 25 24 23 23 24 24 24 24 24 25 26 26 27 27 27 28 28 28 28 27 27 27 27 27 27 28 29 29 29 30 30 30 30 30 30 30 29 29
25 25 25 25 25 25 24 24 24 24 24 24 24 24 25 26 27 27 27 28 28 28 28 27 26 26 26 26 25 25 26 26 27 28 28 29 29 29 29 29 29 28 27
26 25 25 25 25 24 23 23 23 23 22 23 24 24 24 25 26 26 27 27 27 27 27 26 25 25 25 24 25 25 25 25 26 26 27 27 27 27 28 28 27 27 27
25 25 24 24 24 23 22 22 22 22 23 23 23 24 25 25 25 25 26 26 26 26 26 24 24 24 23 24 24 25 26 26 26 26 26 26 27 26 27 27 26 26 25
25 24 23 23 23 22 22 21 21 22 22 23 23 24 24 24 24 24 24 24 25 25 24 24 24 24 23 24 25 26 26 25 26 26 26 26 26 25 25 25 24 24 24
24 23 23 22 22 21 21 20 20 21 21 22 22 23 23 23 23 23 23 24 24 24 24 24 24 24 23 24 24 25 25 24 25 25 26 25 24 24 23 23 23 23 24
24 24 23 21 21 21 20 20 19 20 21 21 22 21 22 22 21 21 22 22 23 23 23 23 24 23 23 23 23 24 24 24 25 25 24 23 23 23 22 23 23 23 23
24 23 22 20 20 19 19 19 20 20 20 20 20 20 20 20 20 20 20 21 22 22 22 23 23 23 23 23 23 23 23 24 23 23 22 21 20 20 21 22 22 23 23
22 21 20 19 18 19 19 19 19 19 19 19 19 19 19 19 19 19 20 21 21 22 22 22 22 23 23 22 22 22 22 22 22 21 20 20 20 20 21 22 21 22 22
20 19 19 18 18 18 17 17 16 16 17 17 18 18 18 17 18 18 19 20 21 22 21 22 22 22 22 22 22 21 21 22 21 20 20 20 20 20 20 20 20 21 21
19 18 17 16 16 16 15 15 15 15 15 16 15 16 17 17 17 18 19 19 21 22 22 21 21 21 21 22 22 22 22 22 21 21 20 20 20 20 20 19 19 19 20
16 15 14 14 14 13 13 13 13 13 14 14 15 15 16 16 17 18 19 20 21 21 21 21 20 21 22 23 22 22 22 22 21 20 20 20 20 20 19 19 19 20 20
14 14 13 13 12 10 11 12 12 12 13 14 15 16 16 16 18 18 19 19 19 20 20 20 20 21 22 22 22 22 22 21 20 20 20 20 19 19 19 20 20 20 21
13 12 11 10 10 9 10 11 12 12 12 14 15 15 15 16 18 18 18 18 19 19 20 21 21 22 22 22 22 22 21 20 20 20 20 20 19 19 20 20 20 20 21
13 12 10 8 9 9 10 10 11 11 13 14 15 15 16 17 17 18 18 18 18 20 21 22 22 22 22 22 22 22 22 21 21 20 20 20 20 20 20 20 21 21 21
12 11 9 8 8 9 9 9 10 12 12 13 14 16 16 17 17 18 18 18 19 19 21 21 22 22 22 22 22 22 22 21 21 21 21 21 21 21 21 21 21 21 21
10 9 8 8 8 9 9 9 10 12 13 13 14 15 16 16 17 18 18 18 18 19 20 21 22 23 23 23 23 22 23 22 22 22 22 22 22 22 22 22 22 21 21
9 8 8 7 8 8 9 9 11 12 13 13 14 15 16 16 17 17 18 18 19 19 20 21 23 23 23 24 24 24 24 23 23 23 23 23 23 23 23 23 23 22 22
8 8 8 8 8 8 9 10 11 12 13 13 14 15 16 17 17 17 18 19 19 19 20 22 23 24 24 24 24 25 25 25 25 25 25 24 24 23 23 23 23 24 23

GEFSMW_500_meanwind_180.txt.gz
Wind_Speed
22 23 24 26 26 26 27 27 27 27 29 28 28 28 28 28 28 27 27 26 26 25 25 25 25 26 27 27 27 27 27 26 26 26 25 25 26 26 26 27 27 28 29
21 22 22 24 25 27 27 27 27 27 27 28 28 28 28 27 26 26 25 25 25 25 24 25 25 26 26 27 27 27 27 27 27 26 26 26 26 27 27 27 27 28 29
21 22 23 25 25 26 27 27 25 26 26 27 26 27 26 25 24 24 25 25 25 24 24 25 25 26 27 27 26 26 26 26 26 26 26 26 26 26 27 27 28 28 28
22 24 25 25 27 27 26 25 24 24 25 26 25 25 24 24 24 25 26 26 25 25 25 24 25 25 26 25 25 25 26 25 25 26 26 27 27 27 27 27 27 28 29
23 25 25 25 26 26 25 24 24 23 24 24 24 24 23 23 24 24 25 24 24 24 24 24 24 25 25 25 24 24 25 24 25 26 26 27 27 27 27 27 28 28 29
23 23 24 25 25 26 26 26 25 24 23 23 23 22 21 22 22 22 23 23 23 23 24 24 24 24 24 24 24 24 24 24 25 25 26 27 27 28 28 28 28 29 29
23 22 23 24 24 24 24 25 24 24 23 23 22 21 21 21 21 21 22 22 22 22 22 23 23 23 24 24 24 24 23 24 25 25 25 26 27 28 28 28 28 28 29
22 24 24 23 22 22 23 23 24 24 23 22 22 22 21 21 22 21 21 22 22 23 22 22 22 22 23 23 24 23 23 23 24 25 26 27 27 28 28 28 28 28 28
23 23 22 22 22 23 23 23 24 24 23 23 23 23 21 21 21 22 22 22 22 22 21 22 22 22 23 23 23 23 23 24 24 25 25 26 27 27 27 27 27 27 28
23 23 23 23 23 23 24 24 24 23 23 23 24 23 21 22 22 21 20 20 21 21 21 21 22 22 22 22 22 23 23 24 25 24 24 25 26 26 26 27 27 27 28
21 22 23 25 25 24 24 24 24 23 22 22 23 21 21 20 20 19 19 19 20 20 20 21 21 21 21 21 22 22 23 24 24 24 24 25 25 25 25 26 26 27 27
22 23 23 23 24 24 25 24 23 22 22 22 21 20 20 19 19 18 19 20 20 20 20 20 20 20 21 21 22 23 23 23 24 24 24 25 25 25 24 24 25 25 26
23 23 23 23 24 24 23 23 22 21 20 20 19 19 19 18 18 19 19 20 20 19 20 19 19 20 21 21 22 23 23 23 24 24 24 24 24 24 24 24 24 24 24
23 23 23 23 22 23 22 21 20 19 18 18 17 17 17 18 18 18 19 19 19 18 19 19 19 20 21 22 23 23 23 22 23 23 23 23 22 22 22 23 23 23 23
24 23 22 21 20 20 19 17 16 15 16 15 15 15 16 17 16 17 18 18 18 18 18 19 19 20 21 21 21 22 22 22 21 21 21 21 21 21 21 21 22 23 23
21 21 21 20 19 18 16 15 13 13 13 13 14 14 14 14 15 16 16 16 17 17 18 19 19 20 19 20 21 22 21 21 21 20 20 20 20 20 20 21 22 22 22
20 19 19 18 17 15 14 12 11 11 12 12 13 13 13 13 14 15 16 16 16 17 18 18 19 19 19 20 21 21 21 21 20 20 20 20 20 19 20 21 21 21 21
18 17 16 16 14 12 12 11 11 12 11 11 12 12 13 13 14 15 15 15 16 16 16 17 18 19 20 21 21 21 21 21 21 21 21 20 20 20 20 20 21 21 21
17 15 14 14 12 11 11 10 10 10 10 11 12 12 13 14 14 14 15 16 16 17 17 18 19 20 21 21 21 21 22 22 21 21 21 20 20 20 20 21 21 21 21
15 13 13 12 12 11 10 10 10 10 10 11 11 12 12 13 14 15 16 16 16 17 18 19 20 20 21 21 22 22 22 22 21 22 22 21 21 21 21 21 21 20 20
13 13 12 12 11 10 10 10 9 10 10 11 11 11 12 13 13 14 15 16 16 17 18 20 21 21 21 22 22 23 22 22 22 22 22 22 21 21 22 22 21 21 21
13 12 11 11 10 10 10 10 9 10 11 10 11 12 12 13 13 15 16 16 17 18 19 20 22 22 23 22 22 22 22 22 22 23 22 22 22 23 22 22 22 22 22
12 11 10 9 9 10 9 9 10 10 11 11 11 12 12 13 14 15 16 16 17 18 19 20 21 22 23 23 22 22 22 22 23 23 23 23 24 24 23 23 22 22 22
12 11 10 9 9 9 9 10 10 10 11 11 12 12 13 14 15 15 16 16 17 18 19 21 21 22 22 22 22 22 22 23 24 26 26 26 26 25 25 24 23 23 23
11 11 9 9 9 9 9 10 10 10 11 11 12 12 13 14 15 15 16 17 18 19 20 21 22 22 22 23 23 23 23 24 25 27 26 26 26 25 24 24 24 23 23
11 10 9 8 9 9 9 10 10 11 11 11 12 13 14 15 15 16 17 18 19 20 21 22 23 23 23 24 25 25 26 27 27 27 27 26 26 25 24 23 23 22 22

GEFSMW_500_meanwind_186.txt.gz
Wind_Speed
25 24 22 23 24 25 25 25 26 26 27 28 28 27 29 29 27 26 26 25 25 25 26 26 26 27 28 28 27 28 28 29 29 29 30 29 29 29 28 29 29 29 29
24 22 21 22 24 24 25 26 26 28 29 29 28 28 28 29 26 23 23 23 24 24 25 25 27 27 27 27 28 28 28 28 29 29 29 30 29 29 29 29 29 29 29
23 22 21 22 23 24 25 25 27 27 28 28 28 27 27 26 25 23 23 23 24 24 23 25 26 26 26 26 27 27 27 28 28 28 28 28 29 29 29 30 30 30 30
22 23 23 23 24 25 26 27 27 27 27 27 28 28 26 25 25 23 23 23 23 24 24 25 25 26 26 26 25 26 26 27 27 27 28 28 29 28 28 29 30 31 31
24 23 23 23 24 26 27 27 27 27 27 27 27 26 25 25 25 24 23 22 22 23 24 24 24 25 25 25 24 25 26 26 26 26 27 28 28 28 28 29 30 31 32
22 22 23 24 25 26 27 27 28 27 26 26 26 25 25 24 24 23 22 21 21 22 23 23 23 24 24 24 24 24 25 25 25 25 26 27 28 28 29 29 30 31 31
22 23 24 24 24 25 26 26 26 26 26 25 25 24 25 24 23 22 21 21 20 20 20 21 22 23 23 23 23 24 24 25 25 25 25 26 27 28 28 29 30 31 32
23 24 25 24 24 24 24 25 26 25 24 24 24 24 22 21 21 21 21 20 19 19 20 20 21 23 23 23 23 23 24 25 25 25 25 26 27 28 28 29 30 30 31
22 23 24 24 24 24 25 25 24 23 23 23 23 22 20 20 19 20 21 21 20 20 20 21 22 23 23 23 23 24 25 25 25 25 26 27 27 28 28 29 30 31 31
22 23 23 24 23 24 25 24 23 23 22 22 21 21 20 19 19 20 20 21 21 20 21 21 21 22 22 23 23 24 25 25 25 25 26 27 27 27 28 29 29 30 31
22 23 24 23 23 23 24 23 22 21 21 20 19 19 18 17 18 18 19 19 19 19 19 20 20 21 22 22 23 24 24 25 25 24 25 26 26 27 27 28 28 28 29
24 23 23 22 21 22 22 21 20 19 18 18 17 17 17 18 17 17 18 17 17 18 19 20 21 22 23 23 23 23 24 24 24 24 24 24 25 25 26 26 27 27 27
22 22 21 21 20 20 20 19 19 18 17 16 15 16 17 18 17 17 16 16 16 17 19 20 20 21 22 22 22 22 23 23 23 23 24 24 24 24 25 25 26 25 26
21 20 20 19 20 20 18 18 17 16 15 14 14 15 17 18 18 17 15 15 15 17 19 20 20 20 21 21 21 22 23 23 23 23 24 24 23 23 23 24 24 24 24
19 19 18 18 19 18 17 16 15 14 14 14 14 15 16 17 17 16 15 15 16 17 18 19 19 19 20 21 21 22 22 22 23 23 23 23 23 24 24 24 24 23 24
19 18 17 17 18 17 15 14 13 13 13 13 14 15 15 15 16 16 16 16 16 17 18 18 19 20 20 21 21 21 22 23 23 23 23 23 23 23 23 23 23 24 24
19 18 17 17 17 15 14 13 13 13 13 14 14 14 14 15 16 16 15 15 16 17 17 17 19 20 21 21 21 22 22 22 23 23 22 22 22 23 23 23 23 24 24
18 18 17 17 16 14 13 13 14 13 14 14 14 14 14 15 15 14 14 15 16 17 17 17 18 20 20 21 22 22 23 23 23 23 23 22 23 23 23 23 23 23 23
18 17 17 16 16 14 13 13 14 14 14 14 14 15 14 15 15 14 14 15 16 17 17 18 19 20 22 22 23 23 23 24 24 24 24 23 23 24 24 24 24 23 23
17 17 16 15 15 14 13 14 14 13 13 14 14 14 14 14 15 15 15 16 17 18 18 19 20 21 23 24 24 24 25 25 25 25 24 24 25 25 25 25 24 24 23
16 15 15 15 15 14 13 13 13 13 13 14 14 14 15 15 15 15 16 17 18 19 19 20 22 23 25 26 26 26 26 25 25 25 25 25 26 26 26 26 25 24 23
15 14 14 14 14 15 14 13 13 13 14 14 14 14 14 15 15 16 17 18 19 19 20 21 22 24 25 26 26 26 26 25 25 25 26 27 27 27 27 26 26 25 24
13 13 13 14 14 15 13 13 13 13 14 14 14 14 15 16 16 17 18 19 19 20 21 22 23 24 25 26 26 26 25 25 26 27 27 28 28 27 27 26 26 25 23
13 13 13 13 14 14 13 13 13 13 14 13 14 14 15 16 17 18 19 20 20 21 22 23 24 24 25 25 26 26 26 26 27 27 27 27 27 26 26 26 25 24 23
12 12 12 13 13 13 13 13 13 13 13 13 14 15 16 17 18 19 20 21 21 21 22 23 24 24 24 25 26 26 26 26 27 27 27 27 26 25 25 25 24 24 23
12 13 13 13 13 13 12 12 13 13 13 14 14 16 16 18 19 19 20 21 21 21 22 23 23 24 25 26 26 27 27 28 28 28 28 28 27 26 25 25 24 23 23

GEFSMW_500_meanwind_192.txt.gz
Wind_Speed
24 25 26 27 26 25 25 25 25 26 27 27 27 27 27 27 27 27 27 28 27 25 26 25 25 25 25 25 25 25 26 26 27 28 28 29 29 29 30 31 31 31 31
26 26 27 27 27 26 25 25 26 27 27 27 27 26 26 26 27 27 27 26 24 24 24 22 23 24 23 24 24 25 25 26 27 27 28 28 29 29 30 31 32 32 32
25 27 26 26 26 25 25 25 26 26 27 27 26 26 26 26 26 26 25 24 23 22 22 22 22 23 23 23 23 24 25 25 26 27 27 27 27 29 29 29 31 32 33
25 26 26 25 24 24 25 25 26 26 26 26 26 26 25 25 25 25 24 23 23 23 23 23 23 24 24 23 23 24 24 24 25 25 26 27 27 28 28 29 30 31 32
24 24 24 23 23 24 25 25 26 26 26 25 25 25 25 25 25 24 23 23 23 23 23 22 23 24 23 23 24 24 24 24 25 25 26 27 27 27 28 28 30 31 32
24 23 23 23 23 24 25 25 25 25 25 25 24 25 25 25 24 24 24 24 24 23 23 23 23 24 23 24 24 24 24 25 25 26 26 26 26 26 27 28 30 31 32
22 21 22 22 23 24 24 24 24 23 23 23 24 24 24 24 24 24 24 23 23 23 23 23 23 23 22 23 24 24 24 24 25 25 26 26 26 26 27 28 29 31 32
21 21 22 23 24 24 23 22 22 22 22 23 23 23 23 23 23 23 22 22 21 22 21 21 22 22 21 22 22 23 23 23 24 25 25 26 26 26 27 28 29 30 31
21 21 22 22 22 22 21 20 20 20 21 21 21 21 21 21 21 21 20 20 20 20 19 20 20 20 20 20 21 21 22 23 24 25 25 26 26 27 27 27 29 29 30
20 20 20 20 20 20 19 19 18 19 20 19 19 19 19 19 19 19 19 19 18 18 18 18 19 19 19 20 20 20 22 24 24 25 25 25 25 26 27 27 28 28 29
19 19 20 19 19 19 19 19 18 19 18 18 17 17 16 16 17 17 17 16 16 17 17 17 18 18 19 20 20 21 22 23 23 24 24 24 24 25 26 26 27 28 29
19 19 18 18 18 18 19 19 18 18 17 16 16 16 16 16 15 16 16 16 16 16 16 16 17 18 19 20 20 20 21 22 22 23 23 23 24 25 25 26 28 28 28
19 19 18 18 18 18 18 18 18 17 15 15 15 14 14 14 14 15 15 15 15 16 16 17 17 18 19 19 20 21 22 23 23 22 22 23 24 25 26 26 27 26 26
19 18 17 17 18 18 18 17 17 16 15 14 14 13 13 13 13 14 15 15 16 16 16 16 17 17 18 19 20 21 22 23 22 22 22 23 24 25 26 26 25 25 25
18 18 17 17 18 18 17 17 17 15 14 13 13 12 12 12 13 14 14 15 16 16 16 16 16 17 18 19 20 21 22 23 23 22 22 23 23 24 25 26 26 26 25
17 18 17 17 17 17 16 16 15 14 13 13 12 12 12 13 13 14 14 15 15 16 16 17 17 18 19 20 21 21 21 22 22 22 22 22 22 24 24 25 25 25 25
18 18 17 16 17 16 16 15 14 12 12 12 12 12 13 13 13 13 14 15 15 16 17 17 18 19 20 21 21 21 21 21 21 21 21 21 22 23 24 25 25 25 25
18 17 17 17 17 16 15 14 13 12 11 12 12 12 12 13 14 15 15 15 16 17 17 18 19 19 20 20 21 21 21 21 21 21 22 22 23 24 24 25 25 25 25
17 17 17 17 16 15 14 13 13 12 12 12 13 12 12 13 14 15 15 15 16 17 17 19 19 19 19 20 21 22 22 22 21 21 22 22 23 24 24 25 25 25 25
16 16 17 17 16 14 13 13 13 13 12 12 12 12 12 13 14 15 15 16 16 17 18 19 19 19 20 21 22 22 23 22 22 22 23 23 24 24 25 25 25 24 24
16 16 16 15 14 13 13 13 13 13 12 11 11 11 12 13 14 15 16 16 17 17 18 19 19 20 21 22 22 23 23 23 23 23 24 24 24 25 25 24 25 25 24
15 15 15 14 13 12 13 13 12 12 12 11 11 12 13 14 14 15 16 17 18 18 18 19 19 20 22 23 23 24 24 24 23 23 23 24 24 24 24 24 24 24 23
15 14 13 12 12 12 13 12 12 12 12 12 12 13 14 15 15 16 17 18 18 18 18 19 19 21 22 23 24 24 23 23 23 23 23 23 23 24 24 24 23 23 23
13 13 12 11 11 12 12 11 12 12 12 12 12 13 14 14 15 16 17 17 18 18 18 19 20 21 22 23 23 23 23 23 24 24 24 24 23 24 24 24 24 23 21
13 12 11 11 12 13 12 11 12 12 12 12 12 13 13 14 15 16 16 17 18 18 19 19 20 21 22 22 23 24 24 24 24 24 24 24 23 24 24 24 23 22 21
13 12 12 12 13 13 12 12 12 12 12 12 12 13 14 14 14 15 16 17 17 18 19 20 21 21 22 23 24 24 24 24 24 24 24 23 23 24 24 25 24 23 21

GEFSMW_500_meanwind_198.txt.gz
Wind_Speed
23 24 25 26 26 26 27 26 27 27 27 27 28 27 27 27 27 27 26 25 25 24 25 25 25 25 25 24 24 24 24 24 24 25 25 25 25 25 25 26 26 27 27
24 25 25 26 26 26 27 26 26 27 27 28 28 28 27 28 27 27 26 25 25 25 25 25 25 25 24 23 23 23 24 24 24 24 25 25 25 25 24 25 26 26 27
26 26 26 26 26 26 27 26 26 27 28 28 27 27 27 26 26 25 24 23 23 23 23 24 23 23 23 23 23 23 24 24 24 25 26 26 25 25 25 25 25 26 27
28 28 27 27 28 27 27 27 27 27 26 26 26 27 26 25 24 23 23 22 22 23 23 23 23 22 22 23 23 24 24 24 24 25 26 26 26 26 26 26 26 26 27
28 28 28 28 28 28 27 27 27 26 25 25 26 26 25 24 24 23 22 22 22 22 22 22 22 22 23 23 24 25 25 25 25 25 25 26 27 27 26 26 26 26 26
27 28 28 28 27 26 26 26 24 24 24 25 25 25 23 23 23 22 22 22 22 22 22 22 23 23 23 24 24 24 24 25 25 25 25 26 27 27 27 26 25 25 26
27 27 26 25 25 25 25 24 24 24 24 24 24 24 22 22 22 21 21 21 21 22 22 22 22 23 23 23 23 24 25 26 26 26 26 26 27 27 27 26 25 25 25
25 25 24 24 23 23 23 23 23 24 24 24 23 22 21 20 20 20 20 20 20 21 21 21 21 22 23 22 23 24 25 26 26 27 27 27 27 27 27 26 25 25 25
23 23 23 22 22 22 22 22 22 23 23 23 21 20 20 19 19 19 20 20 19 19 20 21 21 22 22 22 22 23 24 25 25 26 26 26 26 26 25 25 25 26 26
22 22 21 21 21 21 21 22 22 21 21 20 19 19 19 18 19 18 18 18 18 19 19 20 21 21 21 21 21 22 23 24 24 24 24 24 24 25 25 25 26 27 27
21 21 21 21 21 21 21 21 21 21 20 19 18 17 16 16 17 17 17 17 17 17 18 19 20 20 20 20 21 22 22 22 22 22 22 23 23 24 25 25 26 26 28
21 20 20 21 20 21 20 20 20 20 19 17 16 15 15 15 16 16 15 16 16 16 17 19 19 19 19 20 20 20 21 21 22 22 21 21 22 22 23 24 25 25 27
20 20 20 20 20 20 19 19 19 19 18 16 15 14 13 14 14 14 15 15 15 16 17 18 18 18 18 19 19 20 20 21 21 21 21 21 21 22 23 23 23 23 25
20 19 19 19 19 19 20 19 19 19 17 16 16 14 13 13 14 14 14 14 15 15 16 17 17 16 17 18 18 19 20 20 21 20 21 21 21 22 22 22 23 23 24
19 18 19 19 19 19 19 19 19 18 17 16 16 15 13 14 14 13 14 15 15 15 16 17 16 17 17 18 19 19 20 21 21 21 21 21 21 21 21 22 22 23 24
19 18 19 18 18 19 19 19 18 17 17 16 15 13 12 13 13 13 13 15 15 17 18 18 17 18 18 18 19 19 20 21 21 20 20 21 20 21 21 22 22 23 24
18 18 18 19 19 18 19 18 18 17 16 16 13 12 13 13 14 13 14 15 16 17 18 18 18 18 18 18 19 20 21 22 22 21 21 21 20 21 22 22 23 24 24
18 18 18 18 18 18 18 18 17 16 15 14 13 12 13 13 13 14 14 16 17 17 17 18 18 19 19 19 20 21 22 22 22 22 21 21 21 22 23 23 23 25 25
17 18 19 18 18 18 17 17 17 16 14 14 13 13 13 13 14 15 16 16 17 17 17 18 18 19 20 21 22 22 22 22 22 22 22 23 23 23 24 24 24 25 24
17 17 17 17 17 17 17 16 16 15 14 13 13 13 13 13 14 15 16 16 16 17 18 18 19 20 21 21 22 23 22 22 23 23 23 23 24 24 24 25 25 25 24
18 17 16 16 16 16 16 15 15 15 14 13 13 14 13 14 15 15 16 17 17 18 18 19 20 21 22 22 23 23 23 23 24 24 24 23 24 25 25 25 25 24 23
17 16 16 16 16 15 15 15 15 14 14 13 13 14 14 14 15 16 17 18 18 18 19 19 20 21 22 23 23 23 23 24 25 24 24 24 24 25 25 25 25 24 24
15 15 15 15 15 15 14 14 15 14 13 13 13 14 14 15 16 16 17 18 18 19 19 19 20 20 22 23 23 24 24 24 25 25 25 25 25 26 26 25 25 24 24
15 14 14 15 14 14 14 14 14 13 13 14 14 14 14 15 16 17 17 18 18 18 18 19 20 21 22 23 23 23 24 25 25 26 25 25 25 25 25 25 25 24 24
15 15 14 14 14 14 14 14 14 13 13 14 15 14 14 14 15 16 16 17 17 17 18 19 20 22 23 23 24 25 26 26 26 26 26 25 25 24 25 25 25 24 24
15 15 15 14 14 14 14 14 13 13 13 14 14 14 13 14 14 15 15 16 17 17 19 20 21 22 23 24 24 25 27 27 27 26 26 25 25 25 25 25 25 25 25

GEFSMW_500_meanwind_204.txt.gz
Wind_Speed
20 19 19 20 23 23 22 23 24 24 24 24 23 22 22 23 22 21 21 20 20 19 19 19 19 19 19 20 19 19 19 19 19 20 20 21 22 22 22 22 23 24 25
23 23 24 23 22 22 23 24 23 23 23 23 23 22 21 22 21 21 20 19 19 19 19 18 18 19 20 19 19 19 20 20 20 21 21 21 22 22 22 23 23 23 24
24 24 23 22 23 23 23 23 22 22 22 21 21 20 20 21 20 20 20 19 19 20 20 19 19 19 19 18 19 20 20 20 20 21 22 22 22 22 23 23 22 22 23
25 23 23 23 23 23 24 24 24 23 22 21 21 21 21 20 20 20 20 20 20 20 20 20 20 20 19 19 19 20 20 21 21 22 23 23 23 23 23 23 23 24 24
23 22 22 23 23 23 23 23 23 22 22 21 21 21 21 20 20 20 20 20 20 20 19 19 19 19 19 19 20 20 21 21 22 23 24 24 24 23 23 23 23 24 24
20 20 20 20 21 22 22 22 23 22 21 21 21 20 20 20 19 20 19 19 19 18 18 18 18 18 19 19 20 20 21 22 23 23 24 25 24 24 24 24 24 25 25
19 19 19 20 21 21 20 21 21 21 20 20 20 20 19 19 19 18 18 18 18 17 17 18 18 18 19 19 20 21 22 23 23 24 24 25 24 24 25 25 24 25 25
19 20 19 20 21 21 20 21 20 20 20 20 19 19 18 18 17 17 16 16 15 16 17 18 18 18 19 20 20 21 22 23 23 24 23 24 23 23 25 25 25 25 25
19 19 19 19 20 20 20 20 20 19 19 19 18 18 18 17 15 15 14 14 15 15 16 17 18 19 20 21 21 22 23 23 23 23 22 22 23 23 24 24 24 25 24
17 18 19 19 19 19 19 20 19 19 19 18 17 16 15 15 14 13 13 14 15 15 16 16 17 19 20 21 21 21 22 22 22 22 21 22 22 22 23 23 23 24 24
18 18 18 19 19 19 19 19 19 18 18 18 16 15 14 13 13 12 13 13 14 14 15 15 17 18 18 19 19 20 20 20 20 20 20 21 21 22 22 21 21 22 22
19 19 18 18 19 19 19 18 18 17 17 17 15 14 14 14 13 13 12 12 13 13 14 15 16 17 17 17 18 18 19 19 20 20 20 21 21 21 21 20 21 21 21
19 19 19 18 18 18 18 18 18 16 16 15 15 14 14 13 13 12 12 12 12 13 14 15 15 15 15 16 17 17 17 18 19 19 20 20 20 20 20 20 20 20 21
18 18 18 17 17 17 18 17 17 16 15 15 14 14 13 13 13 12 11 11 12 13 15 15 14 15 15 15 16 16 16 17 18 18 19 20 20 20 20 19 19 19 20
16 16 16 16 15 16 16 17 16 15 15 15 14 14 14 13 13 12 12 12 13 14 15 15 15 15 16 15 14 15 16 17 18 19 20 20 20 20 19 18 18 19 19
16 15 15 15 15 16 16 16 16 15 15 15 14 13 13 13 13 12 12 12 13 15 15 15 15 16 16 15 15 16 16 18 19 20 20 20 20 20 19 18 18 18 19
15 15 15 15 15 16 16 16 16 15 15 15 14 13 13 13 13 12 12 13 14 14 14 14 15 15 15 15 15 16 18 19 20 20 21 20 19 19 18 18 18 18 18
15 16 15 15 16 16 16 16 15 15 16 15 14 13 13 12 13 13 13 13 13 14 14 15 15 15 15 15 16 18 19 19 20 21 21 21 20 19 19 18 19 18 18
16 16 16 16 16 16 16 15 15 15 16 15 14 13 13 12 13 13 13 13 14 14 14 15 15 15 16 16 17 18 19 20 21 21 21 21 22 21 20 20 20 19 19
16 16 16 16 16 16 16 15 15 16 15 14 13 13 13 13 14 14 13 13 14 14 15 15 15 16 16 17 18 19 20 21 21 21 22 22 22 21 21 20 20 19 19
17 17 16 16 16 16 16 15 15 15 14 13 13 13 12 12 13 13 14 14 14 14 14 15 15 16 16 17 18 19 20 21 21 22 22 22 22 21 21 21 20 20 20
18 18 17 16 16 16 15 15 15 14 14 13 13 13 13 13 13 13 13 14 14 14 14 15 16 16 17 18 18 19 20 21 22 22 23 22 22 22 22 22 22 21 21
19 18 17 16 16 15 15 15 14 13 13 13 13 13 13 13 12 13 13 14 15 15 14 15 16 16 17 18 19 20 20 21 22 23 23 23 22 22 23 23 23 23 22
19 18 17 17 16 16 15 15 14 13 13 13 13 13 13 13 13 13 13 14 14 14 15 16 17 18 18 19 19 20 21 22 22 23 23 23 23 23 24 24 24 24 23
19 18 17 17 16 16 15 14 13 13 13 13 13 13 13 13 13 14 13 14 15 15 16 16 17 18 18 19 20 21 22 22 22 23 23 24 24 24 24 24 25 25 25
18 18 18 18 17 16 15 14 13 14 14 14 13 13 13 13 13 13 14 14 15 16 16 16 17 18 19 19 20 21 21 22 22 23 24 24 25 25 25 25 26 25 25

GEFSMW_500_meanwind_210.txt.gz
Wind_Speed
20 21 22 22 22 22 22 22 23 22 22 22 22 21 20 20 20 20 20 20 19 19 19 19 19 20 20 21 21 21 22 21 22 23 23 23 24 24 24 24 24 25 25
20 21 22 22 22 22 22 22 23 22 22 21 21 21 20 20 19 19 18 18 18 19 19 19 19 19 20 20 21 21 21 22 23 23 23 24 24 24 25 26 26 26 26
22 22 22 22 22 22 22 22 21 21 21 20 20 19 19 18 18 18 17 17 18 18 17 18 19 19 19 20 21 22 22 22 23 24 25 24 24 25 26 27 27 26 26
22 22 22 23 23 22 22 22 20 19 19 19 19 17 17 17 17 17 16 16 17 17 17 18 19 20 20 20 21 22 23 23 24 25 26 26 26 26 26 27 27 27 26
21 21 21 21 21 22 22 20 19 17 18 18 19 18 18 17 16 16 16 16 17 17 18 18 19 20 21 22 22 23 22 23 23 24 25 26 27 26 26 26 26 27 27
21 20 19 19 20 22 21 20 18 17 17 18 18 18 18 17 16 17 16 16 17 18 18 19 19 20 21 21 21 22 22 23 23 23 25 26 26 26 27 27 26 27 28
19 19 18 18 18 18 18 16 16 17 18 18 18 18 18 17 17 17 15 16 17 17 18 18 19 20 20 20 21 21 22 23 24 24 24 25 25 26 26 27 27 28 28
17 17 16 16 17 17 16 16 16 16 17 18 17 18 18 18 18 17 15 16 16 16 17 18 19 20 20 21 21 21 21 22 23 23 24 24 25 25 26 26 27 27 27
17 16 16 16 17 17 17 16 16 16 17 17 17 17 17 17 17 16 15 16 16 16 17 17 18 19 20 21 21 21 21 21 22 22 22 23 23 24 24 25 25 25 26
17 17 17 17 17 17 16 16 16 16 16 16 17 17 16 16 16 15 15 15 16 16 16 17 18 19 19 20 20 20 20 20 21 21 21 22 22 23 23 24 24 25 25
17 18 18 19 18 18 17 17 17 17 17 17 17 17 16 16 16 16 15 15 16 17 17 18 18 18 18 18 19 19 19 19 20 21 21 21 22 21 22 23 23 24 24
18 18 18 18 18 18 18 18 18 17 17 17 17 16 16 16 16 16 15 16 17 17 17 17 16 16 17 18 18 18 18 18 18 19 20 20 21 21 21 21 22 22 22
18 18 18 18 18 18 18 18 18 17 17 17 16 16 16 16 16 16 16 17 17 17 16 15 15 16 17 17 17 17 17 17 18 18 19 20 20 20 20 20 20 20 20
18 18 17 17 17 17 16 17 17 18 17 16 15 15 16 17 16 16 16 16 16 15 14 14 15 16 17 17 16 15 15 16 16 17 18 19 19 19 18 19 18 18 19
18 17 16 16 16 16 15 16 17 17 16 15 15 15 16 16 15 15 15 15 15 14 14 14 15 16 16 16 14 13 14 15 16 17 17 18 17 17 18 17 17 17 19
17 16 16 16 16 16 16 16 16 16 15 15 15 15 15 15 15 14 14 14 14 13 13 14 15 15 15 15 14 14 15 16 16 16 17 17 17 18 18 18 18 19 19
18 17 17 16 16 16 16 16 16 16 16 15 15 15 15 15 14 14 14 14 13 13 13 13 14 15 15 15 15 15 15 16 17 18 19 19 19 20 21 20 20 20 19
18 18 17 16 16 16 16 16 16 16 16 16 16 15 15 14 14 14 14 13 13 13 13 14 14 15 15 15 16 16 16 17 18 19 20 21 21 22 22 21 22 21 21
18 18 17 16 17 16 16 17 17 16 16 17 16 15 14 14 13 13 13 13 13 13 13 14 15 15 16 16 16 16 16 17 19 20 21 22 23 23 23 23 23 22 22
18 18 18 18 17 17 17 18 17 17 17 16 15 15 15 14 13 13 13 13 13 13 14 15 15 16 16 16 17 17 18 18 20 21 22 23 24 24 25 24 24 23 23
20 20 19 19 18 18 18 18 17 16 16 16 16 15 15 14 14 13 13 13 13 14 14 15 16 16 16 17 17 18 19 20 21 22 23 24 25 25 25 25 24 23 23
20 20 20 20 20 19 19 18 17 17 17 16 16 15 14 14 13 13 13 14 13 14 15 16 17 17 17 17 18 19 20 21 22 23 24 24 25 25 26 25 25 24 24
21 21 21 21 20 20 19 18 17 17 17 16 15 14 13 13 13 12 13 13 13 14 15 16 17 17 17 18 19 20 21 22 23 24 25 25 26 26 26 27 26 25 25
23 22 22 22 21 20 19 18 18 17 17 16 15 14 14 14 13 13 13 13 14 14 15 16 17 17 18 19 20 21 22 23 23 24 25 26 26 26 26 26 26 25 25
23 22 22 22 21 19 19 18 17 17 17 16 15 15 14 14 14 14 14 14 14 14 15 16 17 17 18 20 21 22 22 22 23 24 25 25 26 27 27 26 26 26 25
23 22 22 21 20 19 18 17 17 17 16 15 15 15 15 15 15 14 14 14 15 15 16 16 17 18 19 20 21 22 22 22 23 24 25 26 26 27 27 26 26 26 26

GEFSMW_500_meanwind_216.txt.gz
Wind_Speed
20 19 20 20 20 21 21 21 20 19 20 20 20 20 19 18 18 18 18 17 17 17 17 18 18 19 19 19 19 20 20 21 21 22 23 24 24 24 25 25 26 25 26
20 19 19 19 20 20 21 21 19 18 20 20 20 19 17 17 16 16 16 17 16 16 17 16 17 18 18 18 20 20 21 21 22 22 23 24 25 25 25 26 26 26 27
18 18 19 19 20 20 20 20 19 19 19 19 18 17 16 15 16 16 16 17 17 16 16 16 16 17 18 18 19 20 21 21 22 23 23 24 24 25 25 26 26 27 27
18 18 19 19 20 19 19 19 18 18 18 18 17 16 15 16 16 16 16 16 16 16 15 15 17 18 18 19 19 20 21 21 22 22 23 23 24 25 26 25 25 26 26
18 19 19 18 18 18 18 17 17 18 18 17 16 15 14 14 15 16 15 16 15 15 15 16 17 18 18 19 19 20 21 21 21 21 21 21 22 23 24 24 24 25 26
18 18 17 18 18 18 18 18 17 18 17 16 15 14 13 14 14 15 15 15 15 14 15 16 16 17 18 18 19 19 20 20 20 20 20 20 20 20 21 22 23 25 26
19 19 18 19 19 18 18 18 18 18 17 15 13 13 13 14 14 14 14 14 14 15 15 15 16 17 17 17 17 18 18 19 19 19 19 20 20 20 21 22 23 24 25
19 19 18 18 18 17 17 16 16 16 16 14 12 12 12 13 13 13 14 13 14 15 15 15 15 15 15 16 17 17 18 18 19 19 19 20 20 21 21 22 22 22 22
18 18 18 18 18 17 17 16 16 15 14 13 13 13 13 13 13 14 14 14 14 15 15 14 13 13 15 16 16 17 18 19 19 19 20 21 21 21 21 21 21 21 22
17 17 17 17 17 17 17 17 16 15 14 14 13 13 13 13 13 13 14 14 14 14 14 13 13 14 15 16 16 17 18 18 18 19 19 19 19 20 20 20 21 22 22
17 17 17 17 17 16 15 16 15 14 13 14 14 14 14 13 13 13 14 14 13 14 14 13 14 14 15 16 16 16 16 16 17 18 18 18 18 18 19 19 20 21 23
17 17 17 17 16 16 15 15 14 14 14 14 14 13 13 13 13 13 13 13 13 14 13 13 13 14 15 15 16 16 15 15 16 16 17 17 17 17 18 19 19 20 21
17 18 17 17 16 16 16 16 15 14 14 14 14 13 12 13 13 13 13 13 13 13 13 13 13 14 14 15 15 15 15 15 15 15 15 16 16 16 17 18 18 20 20
17 18 18 17 17 16 16 15 14 14 13 14 13 13 13 13 13 13 13 13 13 13 13 13 13 13 13 13 13 14 14 13 14 15 15 15 16 17 18 17 18 19 20
17 17 17 17 16 15 15 14 13 14 14 14 13 13 13 13 13 12 12 12 12 12 13 13 13 13 13 13 13 13 13 13 13 14 14 15 17 18 18 18 19 20 21
17 17 17 16 15 15 14 13 14 14 14 14 13 13 13 12 12 12 12 12 13 13 13 13 13 13 13 13 14 14 15 15 15 15 15 16 17 18 19 19 19 20 20
17 16 16 16 15 15 14 14 14 14 14 13 13 12 12 12 12 12 12 13 13 13 13 13 13 13 13 14 14 15 16 16 16 16 17 18 19 19 20 20 21 20 21
17 17 16 15 15 15 15 15 14 14 13 13 13 13 12 12 12 13 13 13 13 13 13 13 14 14 14 14 15 15 16 16 16 17 18 19 20 21 21 21 22 22 22
17 16 16 16 15 15 15 15 14 13 13 13 13 14 13 13 13 14 13 13 13 13 14 14 14 14 14 14 15 15 15 16 16 18 19 20 21 21 22 22 22 22 23
17 16 16 16 16 16 16 15 15 15 14 14 13 14 14 14 14 14 14 14 13 14 14 14 14 14 14 15 15 15 16 17 17 18 20 20 21 21 21 22 23 23 24
18 18 18 17 17 17 17 16 16 15 15 14 14 15 15 15 15 14 14 14 13 14 14 14 15 15 15 15 15 16 17 18 18 19 19 19 20 21 22 23 24 24 25
19 19 18 18 17 17 17 17 16 16 15 15 15 16 15 15 14 14 13 13 14 14 15 15 15 15 16 16 16 17 18 19 19 19 19 19 20 21 23 24 24 24 24
20 19 19 18 18 18 18 17 17 16 16 16 16 16 16 15 14 14 13 13 14 14 15 15 15 15 16 16 17 17 17 18 18 18 19 20 21 22 23 23 23 24 23
20 20 20 19 18 18 18 18 17 17 17 17 16 15 15 14 14 14 14 14 15 15 15 15 16 16 16 16 16 16 17 17 17 18 18 19 20 22 22 22 23 24 23
21 21 20 20 19 18 18 18 18 18 18 17 16 15 14 14 14 13 13 13 14 15 14 15 15 15 16 16 17 16 17 17 17 18 19 19 20 21 22 23 23 23 23
22 21 21 20 19 19 18 18 18 18 17 17 16 16 15 15 14 14 13 14 14 14 13 13 13 14 15 15 16 16 17 17 18 18 19 20 21 22 23 23 23 23 23

GEFSMW_500_meanwind_222.txt.gz
Wind_Speed
21 22 22 22 22 21 22 22 23 23 23 23 22 23 23 22 21 21 22 21 20 19 19 19 18 17 17 18 17 17 18 18 19 19 20 20 21 22 23 24 24 24 25
22 22 22 22 22 22 22 22 22 22 22 21 22 22 21 21 21 21 21 21 19 18 18 18 17 16 16 16 17 16 17 18 19 19 19 20 21 21 22 23 23 23 23
22 22 22 22 22 22 21 21 20 20 20 20 21 20 20 20 19 20 20 19 19 18 17 17 16 16 16 15 15 16 17 18 18 19 20 20 20 21 22 22 23 23 23
23 23 23 22 21 21 21 20 18 18 18 19 19 19 19 18 18 18 18 17 18 17 15 15 15 15 15 14 15 16 17 18 18 19 19 20 20 20 21 21 21 22 23
22 22 23 22 21 20 20 20 18 18 18 18 18 18 18 17 16 17 16 16 16 16 16 15 16 15 15 14 15 16 17 18 18 19 19 19 20 20 20 20 20 21 21
22 22 22 22 21 20 20 18 18 17 17 18 17 16 16 15 15 16 16 16 15 15 15 15 15 15 15 15 16 17 17 17 18 18 19 19 19 20 21 21 21 20 21
22 22 21 22 22 21 20 18 18 18 18 17 16 15 15 16 15 15 16 15 14 13 14 14 15 15 15 15 17 17 17 18 19 18 19 19 20 20 21 21 21 21 21
20 20 22 23 22 21 20 19 18 18 18 17 16 16 16 16 16 15 15 14 13 13 13 14 15 15 15 16 17 18 18 18 18 18 19 20 20 20 20 21 21 21 22
20 21 22 23 22 22 21 19 18 17 17 17 17 16 15 15 14 14 14 14 14 14 13 14 15 15 15 16 17 17 18 18 19 19 19 19 19 20 21 21 22 22 22
21 21 21 22 23 22 20 19 17 17 17 17 15 14 14 14 14 14 14 14 14 14 14 14 15 15 16 16 17 17 17 17 18 19 19 19 19 19 20 21 22 22 22
21 23 22 22 22 21 19 17 16 16 16 15 14 14 14 14 14 14 14 14 14 14 14 14 14 15 15 15 15 16 16 17 18 18 18 19 19 19 20 21 21 22 22
21 22 21 21 20 19 17 16 15 15 15 15 14 14 14 14 14 15 15 15 15 15 15 15 14 14 14 15 15 15 16 17 18 18 18 18 19 19 20 20 21 21 21
21 21 21 20 19 17 16 15 15 15 15 15 14 14 15 15 15 16 15 15 16 16 15 15 15 15 15 16 15 15 16 17 18 18 18 18 19 19 19 20 20 21 21
21 21 20 19 18 17 16 15 15 15 15 15 15 15 15 16 16 16 16 16 16 16 16 16 16 17 17 16 15 16 16 17 18 18 18 18 19 19 19 20 20 20 20
21 21 20 19 18 17 17 16 16 16 16 16 15 15 15 16 15 16 16 15 16 16 16 16 17 17 17 16 16 17 17 17 17 17 17 18 18 19 19 19 20 20 21
20 20 19 18 18 17 17 16 16 16 16 16 15 15 15 15 14 15 15 16 16 17 17 18 18 18 17 17 17 17 17 17 17 17 17 17 18 19 20 20 21 22 21
19 19 19 18 18 17 17 16 16 16 16 15 15 14 14 14 14 15 16 16 16 17 17 17 17 18 18 17 17 17 17 17 17 17 18 18 19 20 21 21 22 22 22
19 19 18 18 17 17 16 16 16 16 15 15 15 15 15 15 15 16 16 15 16 16 17 17 17 17 18 18 18 17 18 17 18 18 19 20 21 21 22 22 23 23 23
19 18 18 18 17 17 16 17 17 16 16 15 15 16 16 16 16 16 16 16 17 17 17 17 17 18 18 18 18 17 17 17 17 17 18 20 21 21 22 22 22 23 23
18 17 17 18 18 17 17 17 17 17 17 17 17 16 16 16 16 17 17 17 18 18 18 18 18 18 18 18 18 17 17 17 17 18 19 19 20 21 21 22 22 22 23
18 18 18 18 18 18 17 17 17 17 18 18 17 16 17 17 17 17 17 17 17 17 17 18 18 18 18 17 17 17 17 17 18 18 19 19 20 21 21 21 21 22 22
19 19 19 19 19 19 18 18 18 18 18 18 18 17 17 18 18 18 18 17 17 17 17 18 18 18 18 17 17 17 17 18 19 19 19 19 20 21 21 21 21 22 22
21 21 20 20 20 20 20 19 19 19 19 19 18 18 18 18 19 19 18 18 18 18 18 18 18 17 17 16 16 16 16 17 18 18 18 19 20 20 21 21 21 22 23
23 23 22 21 21 20 20 20 20 19 19 19 19 19 19 19 18 18 19 19 18 18 18 18 18 17 16 16 16 16 17 17 17 17 18 19 20 20 21 21 21 22 23
24 23 22 22 21 21 20 20 20 20 20 20 20 20 19 19 19 19 20 19 18 18 18 18 18 16 16 16 16 16 17 17 18 18 19 20 21 21 20 20 21 22 24
25 23 23 23 22 21 21 20 21 20 20 19 19 19 18 19 19 19 19 18 18 18 17 17 16 15 15 15 16 16 17 17 18 18 19 20 20 20 21 22 22 23 24

GEFSMW_500_meanwind_228.txt.gz
Wind_Speed
16 17 17 16 16 17 19 19 19 19 19 20 19 18 18 18 19 19 19 19 19 17 17 18 18 17 17 17 17 17 17 17 17 18 18 18 18 19 20 20 20 21 21
17 17 16 16 17 17 19 20 19 20 20 20 19 19 18 18 18 18 19 18 18 18 17 16 16 16 17 17 17 17 17 17 17 17 17 18 19 20 20 21 21 21 21
18 17 18 18 18 19 20 20 19 19 20 19 19 18 18 18 18 18 18 17 18 17 16 15 15 15 15 16 16 17 17 17 17 18 18 18 18 19 20 21 21 21 22
18 18 18 18 20 20 21 21 20 20 20 19 19 18 18 17 17 16 16 16 15 15 15 15 14 14 15 15 16 16 16 16 17 18 19 19 19 19 19 20 21 21 21
18 19 19 20 20 21 20 20 20 20 19 18 18 18 17 17 17 16 15 14 14 15 15 14 14 14 14 15 16 16 17 17 18 18 18 19 19 19 19 19 20 20 20
19 19 20 20 20 20 19 19 20 19 18 18 17 17 16 16 16 16 14 14 14 14 14 14 14 15 15 15 16 16 17 18 18 18 18 18 18 18 18 19 19 20 20
19 18 20 20 19 19 19 19 20 19 17 17 16 16 15 16 16 15 14 14 13 13 14 14 15 16 16 16 16 16 17 17 17 18 18 18 17 18 18 18 19 19 19
17 16 18 20 20 19 18 19 19 17 17 16 15 15 15 14 14 14 14 13 13 13 14 14 15 16 15 15 14 15 16 16 16 16 17 17 17 18 18 18 19 19 19
15 15 17 18 18 19 19 18 16 15 15 14 13 13 14 13 13 13 13 13 13 13 13 14 15 15 15 15 15 15 16 16 16 16 17 17 17 18 18 18 19 19 19
16 16 17 17 18 18 18 17 16 14 13 13 13 13 13 13 13 14 14 14 13 13 13 13 14 14 14 14 15 15 15 15 15 16 16 16 17 17 18 18 19 19 20
17 17 16 16 17 17 17 16 14 13 12 12 12 12 13 13 13 13 13 13 13 13 13 13 14 14 14 14 14 15 14 15 15 16 17 17 17 17 18 18 19 20 20
16 17 17 17 17 16 16 15 13 12 12 12 12 13 13 14 14 14 13 13 13 13 14 14 15 15 15 14 13 13 13 15 16 16 16 17 17 18 19 18 19 19 20
17 18 18 17 17 17 16 15 14 13 13 13 13 13 14 14 15 15 14 14 14 14 14 15 15 14 14 14 13 13 13 14 15 15 16 16 17 17 18 18 18 19 19
18 18 17 17 16 16 15 13 14 14 13 13 14 14 15 15 15 15 15 14 14 14 15 15 14 13 14 14 14 14 14 14 14 15 16 17 17 17 18 18 19 19 20
17 18 17 17 16 15 14 14 14 14 14 14 14 14 15 15 15 15 15 15 14 14 14 13 13 13 14 15 15 16 16 15 15 15 16 16 17 17 17 18 19 19 20
17 18 17 17 16 15 14 14 14 15 15 15 15 15 15 15 15 15 15 15 15 14 14 14 14 14 14 15 15 16 16 16 16 16 16 16 16 16 17 17 18 19 20
17 17 17 17 17 16 15 15 15 15 16 16 15 14 14 15 15 15 14 14 14 14 13 13 14 15 15 15 15 15 16 16 17 17 16 16 16 17 18 18 19 19 20
17 18 18 18 17 17 17 17 17 17 16 16 15 15 15 14 14 14 14 14 14 14 14 14 15 15 16 16 16 16 16 16 16 16 16 16 17 18 18 19 19 20 20
18 19 20 18 18 18 18 17 17 17 17 16 16 16 16 15 15 15 15 14 14 14 14 15 15 16 16 16 16 16 16 16 16 17 16 17 17 18 18 18 19 20 21
19 19 19 18 19 18 18 18 18 18 17 17 17 16 16 16 15 15 15 15 15 15 15 16 16 17 17 17 18 17 17 17 17 17 17 17 18 18 18 19 19 20 21
19 19 19 19 18 18 19 19 19 18 18 17 17 16 16 16 16 16 16 16 16 16 16 17 18 18 18 18 18 19 19 19 18 18 18 18 18 18 19 19 20 21 21
20 21 20 19 19 19 20 20 19 19 18 18 17 17 17 16 16 17 17 17 17 17 17 18 19 18 18 18 18 19 19 18 18 18 18 19 19 19 19 20 20 21 21
21 21 20 20 20 20 20 20 19 19 20 19 18 17 17 17 18 18 18 19 19 19 19 20 19 19 18 18 18 18 18 17 17 17 18 18 19 20 20 20 21 22 21
22 22 22 21 20 20 21 21 20 20 20 19 18 18 18 18 18 18 19 20 20 19 19 19 19 18 18 18 17 16 16 15 15 16 18 18 18 19 20 21 21 21 20
23 23 23 23 22 22 22 21 20 19 19 19 18 19 19 19 18 19 19 20 20 20 19 19 18 18 16 16 15 15 15 15 15 16 17 18 18 19 20 20 20 20 20
23 23 23 23 23 23 23 23 21 20 20 19 19 20 20 20 20 20 20 20 20 19 19 19 18 17 17 16 15 15 16 16 16 16 17 17 17 18 19 18 18 19 19

GEFSMW_500_meanwind_234.txt.gz
Wind_Speed
14 15 16 17 17 18 18 17 17 18 18 18 18 19 18 18 18 18 18 18 17 17 17 17 16 17 17 18 18 18 18 18 18 19 20 21 22 22 22 23 22 22 22
16 16 17 18 17 18 19 18 17 18 19 19 19 18 18 17 18 18 18 18 17 17 16 16 17 17 17 18 18 18 18 18 18 19 21 22 22 22 22 22 22 22 22
17 18 18 18 18 18 18 18 17 18 19 19 18 18 18 18 18 17 17 17 17 17 16 16 16 17 17 17 17 17 18 18 19 19 20 21 21 22 22 22 22 22 22
19 19 19 18 17 17 17 17 18 19 19 19 17 17 18 18 17 17 17 17 17 17 17 17 17 17 17 17 17 17 18 19 19 19 19 20 20 21 21 21 21 21 21
18 18 18 18 17 18 18 18 19 20 19 18 17 16 17 17 16 16 16 17 17 17 17 17 17 16 16 17 17 17 18 19 19 19 19 19 19 19 20 20 21 21 22
17 17 17 17 17 17 18 18 19 20 19 18 17 16 17 17 16 16 15 16 16 17 16 16 16 17 17 17 17 18 18 18 19 18 19 19 20 19 19 20 20 20 21
17 16 16 17 17 18 18 19 19 19 19 18 17 16 16 16 16 16 16 16 16 16 16 16 17 17 17 17 17 18 18 18 18 19 18 19 19 19 20 20 20 21 21
16 16 16 17 18 18 18 18 18 18 17 17 16 16 15 14 14 15 15 16 15 15 15 15 16 16 16 16 16 17 17 18 18 18 17 18 19 20 19 19 19 20 21
16 16 17 18 18 19 18 17 17 15 14 14 14 14 14 14 14 14 14 14 14 14 14 14 14 14 15 15 16 16 17 17 17 17 18 18 19 19 19 19 19 19 19
16 16 17 18 18 18 16 15 15 14 14 14 14 14 14 14 13 13 14 14 15 15 14 13 13 13 14 15 15 15 15 15 16 16 17 18 17 18 18 19 20 20 20
16 17 17 17 16 16 16 15 14 14 14 14 13 13 13 13 13 13 14 14 14 14 13 13 13 13 14 14 14 15 15 15 16 16 17 18 18 18 19 20 20 21 21
16 16 16 16 16 16 16 14 13 13 13 13 14 13 13 14 14 14 14 14 14 14 13 13 13 13 13 13 14 15 15 16 16 17 17 18 18 19 19 19 20 20 21
16 17 17 17 17 16 15 15 14 14 14 14 13 13 14 14 14 14 14 14 14 13 13 13 13 13 14 14 15 15 15 16 16 17 17 18 18 18 19 20 21 21 21
17 17 17 17 17 16 15 15 14 14 14 14 14 14 14 14 14 14 15 14 14 13 13 13 14 14 14 15 15 16 16 16 17 16 17 18 18 18 19 20 21 21 22
17 17 17 17 16 16 15 15 15 15 15 15 15 15 15 15 15 15 15 14 14 14 14 14 14 15 16 16 17 17 17 17 17 16 17 18 19 19 19 20 21 21 22
16 16 16 16 16 15 14 15 15 15 15 15 15 15 15 15 15 15 15 14 14 14 14 15 15 15 16 17 17 17 17 17 17 18 18 19 19 20 20 20 21 21 22
17 17 17 17 16 16 16 16 17 15 15 16 16 16 15 15 15 15 15 15 15 15 15 16 16 16 17 17 17 17 17 17 17 18 18 19 19 19 20 20 21 21 21
17 17 18 17 16 16 17 17 17 17 16 16 16 16 16 15 15 15 15 15 15 15 16 17 17 17 17 17 17 17 17 17 18 18 18 19 19 19 20 20 21 21 21
17 17 17 17 17 17 17 18 18 17 17 16 17 17 17 16 16 15 15 16 16 16 17 17 17 18 18 18 18 18 17 17 18 18 18 19 19 19 19 20 20 21 22
17 18 18 18 18 19 19 19 18 17 17 17 17 17 17 17 16 16 16 17 17 17 17 17 18 18 18 18 18 18 18 18 19 19 19 19 20 20 20 20 20 21 22
18 18 19 19 19 19 19 18 18 18 18 18 18 17 17 17 17 17 17 17 17 17 17 17 18 18 18 19 19 19 20 20 20 20 20 20 19 20 20 20 20 21 21
18 19 19 20 20 20 20 19 19 19 19 18 18 18 18 18 17 17 18 18 18 18 18 19 19 20 19 19 20 20 20 20 20 20 20 19 19 20 20 20 20 20 20
20 20 20 21 21 21 21 20 20 20 20 19 19 18 18 18 18 18 18 19 19 19 19 20 20 20 20 20 20 21 21 21 20 20 19 19 19 19 19 20 21 21 20
22 21 22 22 22 22 21 21 21 21 21 20 20 19 19 19 19 19 19 19 20 20 20 20 20 20 20 21 20 21 21 21 20 19 19 19 19 19 19 20 21 21 21
23 22 22 22 22 22 22 22 22 21 21 20 20 20 20 20 20 20 19 20 20 21 22 21 21 21 20 20 20 20 20 19 19 18 18 18 18 19 19 20 20 21 21
23 23 23 23 23 23 24 24 24 23 22 21 22 21 21 21 20 20 20 21 21 21 22 21 21 21 20 20 20 20 19 19 18 17 17 17 17 17 18 18 19 19 20